GFSSGP_925_thetae_000.txt.gz
Theta_e
307 312 316 318 322 323 323 331 335 335 336 333 334 334 337 341 346 347 337 339 342 342 341 340 340 340 339 338 338 338 338 339 339 338 337 335 333 332 331 330 328 326 323 330 335 336 330 329 334
311 318 316 320 322 324 328 331 332 333 331 329 331 331 336 338 338 336 336 340 342 344 344 342 339 339 340 340 339 337 336 335 335 335 335 334 333 332 331 329 322 320 323 329 328 329 331 330 329
311 318 318 321 322 322 329 331 334 330 329 330 330 334 336 336 334 333 335 340 343 346 343 339 339 340 340 342 340 338 335 333 333 334 335 335 335 333 328 322 321 322 323 324 325 325 325 325 326
317 317 317 319 321 326 327 332 330 330 332 331 330 335 333 334 332 331 334 337 338 342 338 340 341 342 342 342 342 341 339 337 334 332 332 331 329 325 323 322 319 316 314 316 319 321 322 323 323
318 318 319 322 326 328 330 329 329 330 330 329 328 335 338 335 330 330 331 332 333 337 334 336 337 337 337 337 336 336 335 332 328 326 324 323 323 322 321 320 315 311 312 313 314 316 315 315 316
317 318 320 322 327 328 328 327 328 330 328 326 328 333 337 334 331 329 328 328 330 334 332 328 327 326 325 326 327 327 326 325 324 323 323 323 323 322 321 319 316 312 311 312 312 311 311 310 311
318 319 320 325 327 327 328 327 324 323 325 325 326 333 333 333 332 328 326 325 329 331 330 331 324 321 321 322 323 323 323 322 322 321 321 321 321 322 320 317 313 312 312 313 313 311 310 309 307
318 319 320 326 325 324 322 322 322 322 324 323 324 329 331 333 331 327 325 324 327 331 331 332 331 333 333 324 322 322 320 320 320 323 324 327 329 328 325 323 320 318 312 315 316 316 313 312 312
318 318 324 322 321 319 318 317 318 318 322 322 325 326 331 331 330 327 325 324 326 329 331 331 331 331 333 330 322 326 320 325 329 330 329 330 330 330 328 325 325 324 323 322 321 320 320 319 319
318 320 319 318 318 317 316 317 316 317 320 320 322 328 333 332 331 328 326 325 326 330 330 333 332 331 327 327 328 329 328 331 331 331 330 331 329 328 327 328 327 326 326 323 324 322 321 322 321
318 318 317 316 316 317 316 316 316 317 317 318 320 322 332 332 331 328 326 325 328 330 331 335 334 332 330 326 328 328 329 327 330 331 330 329 327 328 328 326 326 324 324 324 322 323 321 322 320
318 317 317 316 316 316 315 316 315 316 318 318 320 322 331 330 329 329 328 326 327 329 330 336 335 332 330 330 328 328 327 326 327 327 329 327 327 325 324 322 320 319 318 319 320 320 320 319 318
318 317 317 316 316 317 317 317 317 317 318 318 320 325 329 330 330 329 329 328 327 330 330 333 334 331 331 325 329 329 327 328 324 326 326 325 325 324 322 320 318 318 318 318 318 318 318 318 315
318 317 317 317 318 318 317 318 319 319 318 317 320 324 327 330 330 330 329 328 328 329 331 334 335 331 327 327 329 330 328 325 324 323 321 323 323 322 321 319 320 319 318 318 317 318 319 319 318
319 318 319 319 320 319 318 320 318 319 319 318 318 320 323 327 328 328 328 328 328 327 328 336 337 331 325 325 327 327 322 320 321 321 321 321 321 321 321 321 320 320 319 318 318 319 318 318 319
318 320 320 320 321 321 320 321 320 320 319 319 319 319 320 325 326 327 327 327 326 328 328 331 334 328 324 325 324 323 323 322 322 321 320 321 321 320 319 319 319 319 319 319 319 319 319 319 318
320 320 321 322 321 322 321 322 321 321 321 321 321 321 320 321 325 325 326 326 327 326 327 332 330 325 323 324 323 323 322 322 319 318 318 317 317 317 317 317 317 317 317 318 319 319 319 320 319
320 320 319 318 321 318 319 320 321 321 321 322 321 321 322 321 323 325 324 325 326 326 326 329 330 323 321 323 324 320 320 319 318 316 316 316 316 316 315 315 315 315 316 316 316 317 316 315 316
319 319 319 321 321 319 320 321 321 322 322 322 322 322 323 327 328 326 325 325 325 326 325 327 325 323 322 323 319 317 316 315 316 315 314 312 313 313 312 312 312 311 312 312 312 311 312 312 314
319 319 320 321 320 319 322 321 321 321 322 322 322 324 326 326 324 324 324 325 327 326 325 324 321 318 317 317 316 315 315 315 314 314 312 312 311 310 310 309 309 310 309 309 310 311 310 309 309
321 321 324 322 322 321 321 322 321 321 321 321 322 322 323 322 323 323 324 323 322 321 320 318 317 315 314 314 314 313 313 312 312 313 313 312 312 311 308 307 307 307 307 307 307 308 308 310 308
323 322 321 321 321 322 321 322 322 321 321 321 321 322 321 320 320 321 322 321 320 318 317 316 315 313 313 312 313 312 313 313 314 314 312 311 309 308 306 306 306 305 306 305 307 306 306 307 308
324 322 321 322 322 322 322 324 325 322 321 321 321 321 321 321 321 320 320 319 319 318 317 316 315 314 313 312 311 312 313 313 311 309 309 307 307 305 304 304 303 304 303 304 305 305 304 306 305
322 324 324 324 325 333 323 325 327 323 322 321 321 321 321 320 320 319 318 318 318 317 316 315 314 313 313 312 312 311 308 308 308 308 307 304 303 303 303 302 302 303 303 303 304 304 304 302 302
322 325 332 335 338 334 326 323 327 323 322 321 321 321 321 321 321 320 319 318 317 316 316 315 315 314 313 312 310 309 309 308 307 305 304 302 302 302 301 302 301 302 301 301 300 299 302 301 300
324 323 334 332 335 329 322 320 323 321 320 319 319 319 319 320 320 319 318 317 317 316 316 316 315 314 313 312 311 309 307 305 305 303 301 301 301 301 300 301 300 300 299 298 298 298 299 298 298
324 324 320 326 328 329 320 324 322 320 319 319 318 318 319 319 319 318 317 317 317 316 315 315 314 314 313 312 309 306 305 304 303 301 300 300 301 301 300 299 299 298 298 298 297 297 296 296 296
322 320 325 329 331 326 321 321 325 322 320 318 318 318 318 319 318 318 317 316 316 315 315 315 314 313 312 308 305 304 304 304 302 301 301 301 300 298 299 299 298 298 297 296 295 295 295 295 295
323 324 321 319 324 326 326 320 319 320 318 318 318 318 318 318 318 317 316 315 315 314 314 313 311 310 308 306 304 304 303 302 301 301 300 299 298 297 297 296 295 295 295 295 293 292 292 293 292
320 321 320 329 324 330 329 322 319 319 320 318 318 318 318 318 316 316 315 313 312 312 311 311 309 309 307 305 304 303 302 301 300 300 298 296 296 296 295 295 294 294 294 293 293 293 293 293 293

GFSSGP_925_thetae_003.txt.gz
Theta_e
308 308 315 315 318 317 319 325 334 332 330 328 335 337 339 338 340 346 343 343 340 339 340 340 340 339 338 338 338 338 339 338 338 337 336 335 334 333 331 328 322 320 319 320 322 325 330 328 328
308 315 317 315 319 320 327 331 329 328 327 331 333 333 337 338 335 337 342 342 341 341 339 340 339 339 339 338 337 337 337 336 336 335 335 334 335 333 328 322 321 317 315 316 318 322 324 325 326
310 315 314 316 318 319 329 330 326 327 327 327 332 333 333 335 333 337 344 344 344 340 339 339 339 341 341 339 337 334 333 333 334 336 335 334 332 327 323 320 315 311 312 314 315 318 320 320 320
315 315 312 315 316 321 329 327 327 330 329 331 331 336 330 331 333 340 344 345 344 340 339 340 341 342 342 341 339 338 337 335 332 331 328 326 324 322 321 319 312 310 311 312 312 313 313 313 312
319 314 314 316 320 329 326 326 327 329 327 330 337 336 331 330 335 338 342 339 335 341 340 341 342 342 341 339 340 337 334 329 326 323 322 322 322 322 321 319 314 310 310 310 310 310 309 309 309
314 313 315 317 322 326 324 324 328 328 327 328 336 335 331 329 330 333 334 331 326 331 335 335 335 333 332 330 328 326 324 323 322 321 320 319 319 319 318 316 310 310 309 310 309 309 308 308 307
315 314 316 321 326 326 323 320 319 325 322 328 332 334 330 327 327 328 331 332 331 325 324 325 323 322 322 323 322 322 320 319 319 319 318 319 325 321 319 317 318 317 309 314 314 314 311 310 309
314 314 317 320 325 320 319 318 314 319 319 319 326 330 331 327 326 325 327 331 330 330 330 328 331 328 322 320 321 319 319 318 319 322 323 328 328 327 324 323 324 322 322 321 319 319 319 317 317
314 313 314 316 323 316 316 314 313 316 318 320 324 328 329 328 325 323 327 329 331 332 331 333 334 334 328 322 323 317 322 326 328 327 330 329 328 327 325 326 326 324 324 322 322 320 321 320 320
312 312 314 314 314 313 314 312 314 315 317 319 329 328 328 327 325 323 323 325 329 331 333 333 331 333 332 327 326 325 330 329 330 329 331 329 327 326 327 327 326 323 323 323 322 321 321 320 320
315 313 313 312 312 312 312 313 314 315 316 315 329 329 328 328 327 325 323 325 328 329 332 331 331 327 330 328 328 328 330 331 330 330 328 328 327 329 325 324 321 319 320 320 320 321 320 320 319
314 313 312 313 312 312 312 311 314 313 314 314 320 329 329 327 327 326 324 324 328 329 333 333 330 330 329 325 328 329 329 330 330 329 329 328 326 324 321 320 317 318 317 318 319 321 319 319 319
314 313 313 313 314 314 315 313 314 313 314 313 316 329 329 328 327 327 325 324 328 330 334 333 328 324 327 329 329 329 329 327 326 327 327 322 324 322 321 320 319 319 319 318 318 317 317 318 318
315 313 312 312 314 316 316 315 317 315 312 314 319 326 325 326 327 327 327 325 326 329 335 334 332 332 328 327 329 329 328 325 324 325 322 319 320 322 321 320 319 319 320 320 319 318 318 319 319
315 314 313 314 316 316 316 316 315 315 313 313 315 317 323 327 328 328 328 327 327 328 335 333 332 331 326 327 327 330 324 321 322 321 321 321 321 321 321 320 320 318 318 319 318 318 318 319 318
316 315 315 316 317 317 314 315 314 314 316 313 313 314 315 323 327 329 328 327 326 327 334 334 328 325 327 326 325 324 322 321 322 320 321 320 317 318 317 316 314 317 317 317 317 316 318 319 319
316 315 318 318 317 318 317 319 315 314 315 315 314 312 313 315 321 326 327 326 326 325 330 334 329 327 324 324 324 323 322 321 319 317 316 315 315 315 314 313 313 313 314 313 314 315 313 312 311
318 317 318 318 317 317 316 317 317 318 318 317 316 318 319 323 322 323 324 324 323 325 327 328 327 324 323 323 322 320 317 315 315 314 313 312 313 313 313 311 312 312 311 311 311 310 311 311 311
318 317 318 318 318 319 318 317 318 318 315 317 322 324 322 322 322 324 322 323 324 326 326 324 322 319 322 319 317 315 314 314 314 312 312 312 312 312 312 311 311 310 310 308 308 308 306 307 308
318 319 321 318 319 317 317 318 317 319 318 317 321 320 320 321 322 321 319 319 320 318 317 316 316 315 315 315 313 313 313 313 312 312 312 312 312 312 310 309 308 307 307 306 306 305 308 307 307
320 321 320 321 319 317 318 318 319 318 319 319 317 317 318 319 320 319 318 317 317 316 315 315 314 314 313 313 313 312 312 312 313 313 313 310 309 308 307 306 305 305 307 306 304 305 305 306 306
324 322 321 320 319 318 315 320 319 319 320 319 318 317 317 318 319 319 318 318 317 316 315 314 313 313 312 311 311 311 312 313 312 309 308 308 305 305 304 304 303 303 304 304 304 303 305 306 306
323 321 321 321 320 320 319 320 320 321 321 319 317 316 315 315 315 316 317 318 317 316 315 314 313 313 312 311 310 311 311 308 307 308 306 304 303 301 302 302 302 302 303 303 302 302 302 303 303
320 322 323 322 322 323 323 324 328 325 321 320 319 318 316 315 315 316 318 317 316 315 315 314 313 312 312 311 311 310 308 307 307 304 304 303 301 301 301 301 302 301 301 301 301 299 301 301 301
321 322 324 325 323 323 326 325 326 320 319 319 319 317 316 315 315 314 316 316 316 315 315 314 314 314 312 311 310 309 308 305 303 302 301 300 301 300 300 301 300 299 298 298 298 298 299 299 298
322 323 321 329 322 324 317 324 321 317 316 316 316 316 316 315 314 313 315 315 316 315 315 315 314 314 313 312 308 305 304 303 303 302 301 300 300 302 300 300 300 299 298 298 297 297 296 296 296
324 319 318 322 322 320 320 320 319 317 317 316 316 316 315 314 313 314 316 316 314 314 314 314 314 312 309 306 304 304 304 304 304 303 301 301 300 300 300 299 298 297 295 295 295 295 294 294 294
319 318 321 318 322 320 319 325 325 322 320 317 314 314 314 314 314 313 313 312 311 312 311 311 310 308 306 305 305 305 304 304 302 302 300 299 298 297 296 296 295 294 294 294 293 293 291 291 292
321 323 320 319 317 318 318 319 319 319 317 316 315 314 313 312 311 311 311 311 311 309 308 308 308 308 309 308 306 305 304 302 301 301 300 299 297 295 295 295 293 292 291 290 290 290 290 290 291
319 321 321 316 323 316 314 316 317 316 316 314 315 315 313 311 310 310 311 309 308 306 306 306 306 307 307 307 306 305 303 301 300 299 298 296 295 294 294 292 291 290 289 289 289 289 290 289 288

GFSSGP_925_thetae_006.txt.gz
Theta_e
308 307 316 315 317 316 318 321 332 333 334 335 336 338 338 337 340 345 341 341 340 341 340 339 339 338 338 337 337 337 337 337 336 335 334 334 333 331 325 320 317 311 311 314 316 320 323 325 326
307 315 316 313 318 319 323 328 333 334 332 333 334 337 340 344 341 341 341 340 340 340 340 339 338 337 337 338 338 338 338 337 335 334 334 333 328 324 320 318 311 308 311 313 314 316 318 319 319
309 315 312 315 315 316 327 327 327 329 330 332 333 331 334 339 340 340 341 339 340 340 339 339 339 338 337 336 335 334 333 333 333 332 328 326 323 321 319 317 310 309 310 311 311 312 312 311 311
314 313 310 314 314 315 327 326 329 333 333 332 332 333 329 335 339 342 342 340 339 340 339 339 340 339 338 335 333 333 334 332 329 325 322 322 321 320 319 317 310 308 309 309 309 309 309 309 309
318 311 313 314 314 327 327 326 327 328 334 333 331 333 332 339 343 343 343 338 338 340 339 340 341 340 339 339 338 335 330 327 323 320 321 321 319 317 317 315 309 308 309 309 309 308 308 308 307
313 311 314 314 326 325 322 326 327 335 333 331 332 333 330 339 344 344 342 338 339 342 341 341 340 339 336 333 330 326 323 321 320 319 319 317 317 314 313 311 313 312 308 312 314 314 311 310 309
314 313 314 320 329 325 320 318 323 328 332 334 329 331 327 331 343 335 335 335 337 339 338 337 333 330 326 324 322 320 319 318 318 318 316 321 321 318 318 319 322 321 321 320 318 318 318 316 315
312 313 315 319 326 320 317 315 317 321 325 328 329 331 328 324 336 333 333 330 329 327 325 325 322 319 319 320 320 318 317 318 319 319 325 324 324 323 324 324 324 322 323 321 321 319 320 319 318
313 312 313 315 318 319 315 315 314 316 322 325 324 328 326 328 333 334 334 331 326 325 324 328 327 323 316 317 317 317 320 323 325 328 328 327 324 325 326 326 325 323 323 322 321 320 319 319 319
313 312 313 313 316 314 313 312 313 317 327 328 328 327 324 324 327 327 328 330 332 332 330 332 330 327 324 322 319 326 325 327 326 329 328 328 326 327 327 326 323 321 321 319 320 320 320 319 318
312 312 311 311 313 311 311 312 313 314 323 330 330 326 322 321 322 324 325 329 331 332 333 332 330 330 327 326 326 328 328 328 327 328 327 328 328 328 324 322 318 317 317 317 318 320 319 318 318
314 311 312 313 311 311 310 310 312 314 314 327 328 325 324 322 321 321 322 326 330 332 332 330 328 330 330 328 328 328 329 330 330 329 328 327 326 323 320 318 318 318 318 318 318 317 317 317 318
311 311 311 310 313 312 310 311 311 314 312 327 327 327 326 324 323 323 323 324 329 332 331 331 328 330 328 326 328 329 329 329 330 329 327 322 323 321 320 320 320 319 320 320 319 318 318 318 318
312 310 311 312 314 315 313 314 315 313 311 327 328 327 326 326 325 324 323 323 327 332 332 331 324 327 328 329 328 328 327 325 327 325 324 319 319 322 321 320 320 317 318 318 318 318 317 316 318
311 311 312 312 315 315 314 316 315 314 312 327 329 328 327 326 326 325 325 322 326 332 333 330 330 330 326 328 329 328 323 324 324 324 322 321 321 321 320 316 313 313 314 315 315 315 317 316 313
314 312 313 314 314 316 313 313 314 311 310 313 321 326 325 324 325 326 326 324 324 333 334 332 324 323 327 327 327 329 321 321 321 321 320 317 317 316 315 314 313 312 312 312 313 312 312 311 310
312 313 315 316 314 316 315 317 313 311 311 310 310 313 317 319 322 323 323 323 327 334 334 331 326 328 325 325 324 322 321 321 318 316 315 314 314 313 313 312 312 312 312 311 310 310 308 307 307
314 316 314 315 315 317 314 316 315 313 316 319 320 320 322 320 319 319 323 321 332 333 331 330 325 325 325 323 323 320 318 315 313 313 313 312 312 311 311 311 310 311 311 309 308 307 307 306 306
316 316 315 316 316 316 315 316 315 318 322 321 321 323 322 318 317 319 321 322 326 328 327 326 327 325 319 316 316 315 314 313 312 312 312 312 312 312 311 309 309 308 307 306 305 306 306 305 304
319 319 319 317 317 315 315 315 317 320 319 320 321 322 320 318 316 316 315 316 316 315 315 315 316 317 315 316 314 313 312 312 312 313 312 311 309 307 307 305 304 304 305 305 304 304 304 305 305
320 319 319 319 317 314 317 317 319 317 316 316 315 318 318 318 317 316 314 314 314 314 314 313 313 314 314 312 312 311 312 312 313 312 310 309 307 305 303 303 302 302 302 303 303 302 302 304 305
323 321 320 319 317 313 315 318 318 318 318 318 319 318 318 317 317 315 314 315 314 313 313 313 313 313 312 312 312 312 312 312 309 307 307 306 304 302 301 301 301 301 302 301 301 301 301 301 302
322 320 320 320 318 318 318 318 318 318 318 317 316 317 316 315 315 314 315 315 315 314 314 313 313 312 312 311 311 311 311 308 307 307 305 303 302 301 300 300 301 301 300 300 299 300 301 300 301
319 321 321 320 319 320 321 322 322 320 319 319 316 315 315 314 313 315 316 316 315 315 314 313 314 313 312 311 311 311 309 307 306 303 302 302 301 300 300 300 300 299 299 298 298 297 297 297 296
318 322 322 323 320 321 323 324 323 321 319 319 318 315 314 313 313 313 315 315 315 315 314 314 313 314 312 312 310 309 306 304 302 303 304 303 300 300 300 300 299 299 298 297 297 296 295 293 293
321 320 320 327 320 321 319 323 319 318 319 318 317 315 314 313 313 312 314 313 313 312 312 313 311 310 310 306 304 304 304 304 305 304 304 302 301 300 299 298 297 296 294 293 293 293 292 291 290
322 316 317 318 315 317 319 319 317 317 316 316 316 317 314 311 310 310 311 311 310 310 310 310 310 308 306 305 306 307 307 306 305 304 303 301 300 299 296 294 294 294 294 292 291 290 289 290 290
315 316 321 315 319 319 318 322 321 319 317 314 313 312 312 311 310 309 310 309 308 307 306 306 307 307 307 307 307 306 304 303 302 302 301 300 299 296 295 293 293 293 291 290 289 289 289 289 290
319 320 318 316 314 316 316 317 316 319 316 315 313 312 311 310 309 308 308 307 306 305 305 305 304 305 304 303 304 305 305 304 302 300 299 297 296 295 294 293 292 291 290 289 289 289 289 289 289
318 319 317 313 321 312 311 315 315 314 314 315 314 312 310 309 308 307 307 306 304 304 301 298 298 297 297 297 300 303 304 303 301 299 298 297 296 294 293 291 290 289 289 289 289 288 288 288 287

GFSSGP_925_thetae_009.txt.gz
Theta_e
309 307 316 315 317 315 317 319 334 335 338 337 337 338 341 342 342 343 340 340 340 340 340 339 339 339 337 336 335 333 334 336 335 334 333 331 326 321 318 313 308 310 315 313 314 317 320 320 322
307 313 315 312 316 317 322 329 337 337 336 333 335 339 343 348 342 342 340 341 340 340 339 339 338 337 337 336 336 336 337 336 334 333 330 325 321 319 317 312 309 310 310 311 311 311 312 312 313
308 314 312 313 314 316 324 331 333 333 332 332 333 330 336 346 341 340 340 341 340 339 338 338 337 337 337 337 337 337 336 333 332 330 324 321 319 318 316 312 308 309 310 310 309 309 309 309 309
312 312 308 314 315 314 324 325 329 331 332 333 331 335 331 339 340 341 341 341 340 339 338 338 337 337 336 336 334 332 332 332 327 322 320 319 319 317 316 312 308 309 309 309 308 308 308 308 307
317 308 312 314 314 318 320 326 330 332 332 332 332 334 334 343 340 340 341 340 339 339 339 339 338 336 334 332 333 333 330 325 320 318 318 318 317 316 313 308 308 308 308 313 313 314 312 311 309
311 308 313 314 322 324 321 324 332 334 332 333 336 333 330 342 341 342 341 340 339 340 341 340 338 337 336 336 332 327 323 320 317 317 316 317 315 313 313 319 319 317 320 318 318 318 317 316 315
311 310 313 316 326 322 323 319 334 332 332 332 330 330 329 341 341 342 340 343 343 344 340 339 339 337 333 329 325 322 319 317 316 316 319 320 318 319 321 323 321 321 321 319 319 317 317 317 317
309 310 315 321 325 325 319 316 321 332 331 328 326 330 335 331 342 341 343 343 344 342 340 337 332 329 325 323 320 318 316 316 318 320 324 324 322 324 324 324 323 322 322 320 319 318 317 316 316
310 311 312 314 319 324 323 314 315 320 329 326 325 326 335 340 339 339 341 341 340 336 330 324 323 321 321 320 318 316 317 319 322 326 326 324 324 325 325 325 324 322 320 319 320 319 318 317 317
312 309 312 313 316 318 313 319 320 326 328 329 325 322 331 333 336 334 334 335 335 331 327 323 322 317 318 316 316 319 323 324 327 328 326 325 326 326 326 324 322 321 319 318 318 319 319 318 317
311 312 311 311 316 314 313 312 314 325 328 329 326 323 326 330 329 329 329 328 327 326 327 327 325 321 320 318 323 325 326 327 326 327 326 327 327 326 323 320 317 318 318 318 318 318 319 319 318
314 310 310 310 311 310 310 310 315 315 325 326 324 322 322 324 325 326 328 329 330 329 330 330 329 325 325 323 326 327 327 327 327 326 325 325 325 323 319 318 318 319 319 319 320 318 318 318 317
311 310 310 310 309 309 309 310 312 312 317 326 323 321 322 322 322 325 329 329 331 331 331 331 330 328 327 327 326 328 328 328 329 328 325 321 322 320 319 320 320 319 317 317 317 317 317 316 315
310 310 310 311 312 311 311 313 313 311 323 325 323 321 320 320 321 321 322 326 329 331 332 331 330 330 329 327 328 328 329 328 329 328 327 325 323 323 321 320 316 313 312 312 312 313 314 315 313
309 310 311 311 313 313 313 315 312 310 325 326 325 324 323 322 322 321 321 322 329 331 332 331 329 329 328 328 328 328 328 325 327 328 328 323 321 321 319 315 314 313 312 312 312 312 312 311 310
312 310 311 312 314 313 311 310 313 309 326 327 326 325 323 321 321 322 323 321 326 331 331 330 329 328 327 328 328 327 324 324 325 325 320 318 317 315 315 313 311 311 311 311 311 310 309 308 307
310 312 314 315 312 314 314 315 312 307 319 314 318 319 319 319 319 321 323 322 322 330 331 330 328 326 326 324 324 321 319 318 318 316 314 314 313 312 311 311 311 310 311 310 307 306 306 306 306
313 315 312 314 314 314 314 314 313 316 316 318 318 317 317 318 318 319 323 328 329 331 330 325 327 326 324 323 320 317 316 314 313 312 312 311 311 311 311 310 309 308 307 306 305 305 304 304 304
315 315 314 313 314 314 314 316 319 318 321 321 319 317 317 316 315 315 321 327 330 329 329 326 324 318 319 315 316 316 313 312 312 312 311 310 310 308 307 306 305 304 303 303 302 302 302 302 303
317 317 317 316 314 315 318 317 317 318 320 321 319 317 316 316 314 314 315 321 322 322 321 319 318 316 318 318 314 313 312 312 312 310 310 309 307 305 305 304 302 301 301 300 301 301 301 301 301
320 318 318 317 315 316 318 318 316 316 316 318 317 317 315 315 315 314 312 315 318 318 315 314 314 315 315 316 312 312 311 312 312 309 308 306 304 303 302 301 300 301 301 300 300 300 301 301 301
322 320 318 316 317 320 315 320 318 318 319 319 318 317 317 316 314 312 312 312 312 311 312 312 312 312 312 312 311 311 311 311 309 307 304 303 302 300 300 300 300 300 299 299 298 298 299 299 299
321 319 318 318 315 315 317 317 318 317 320 319 318 318 317 315 313 312 312 313 314 313 313 313 313 312 312 311 311 311 311 308 306 303 302 303 301 300 300 301 301 300 299 298 298 297 297 297 296
318 319 319 318 317 318 320 319 319 318 318 317 317 317 317 314 312 312 313 313 313 312 311 310 310 311 311 311 310 309 309 306 302 304 305 305 303 304 304 303 299 299 298 297 297 296 294 292 292
318 319 320 321 318 320 320 322 320 318 316 317 317 315 313 312 312 313 313 312 312 312 313 312 312 311 309 308 306 305 304 303 304 304 306 306 304 303 302 300 299 296 295 294 293 292 291 290 289
319 319 320 324 319 319 318 322 319 317 316 316 315 313 312 315 312 309 309 310 309 309 309 309 308 306 306 306 306 306 306 305 305 305 304 303 302 302 300 298 294 293 293 293 291 290 289 289 289
320 316 316 317 313 317 318 318 316 316 317 315 315 314 311 310 309 308 308 308 308 307 307 307 307 307 306 305 305 305 305 304 304 303 302 301 301 300 297 295 294 293 292 291 290 289 289 289 289
316 316 319 313 317 317 318 320 318 316 316 314 313 312 310 308 308 307 307 305 305 306 306 305 306 305 301 301 301 303 304 303 303 302 302 300 299 297 296 296 294 292 291 289 289 289 288 288 288
318 318 315 315 312 314 315 319 313 315 314 314 312 311 309 308 307 306 306 305 304 303 301 300 298 297 296 296 295 295 295 295 296 300 300 299 297 296 295 294 292 292 290 289 289 288 288 288 289
317 318 313 311 318 310 308 314 313 313 313 313 311 310 308 307 306 305 304 303 302 298 297 296 296 296 295 295 294 294 294 294 295 298 298 296 295 294 293 293 293 291 289 288 288 288 288 288 287

GFSSGP_925_thetae_012.txt.gz
Theta_e
310 307 311 312 312 314 316 319 331 335 339 337 338 341 344 344 343 344 340 341 341 341 341 340 338 336 335 333 333 332 334 335 333 332 330 323 319 316 311 309 311 319 326 325 323 316 314 315 316
308 311 313 309 314 314 318 320 337 338 336 333 335 336 343 345 342 340 341 341 340 341 341 339 338 337 335 334 333 334 336 334 332 330 324 319 318 315 311 309 310 310 310 311 311 309 310 310 310
308 313 309 310 312 315 320 333 336 334 332 332 333 331 336 344 341 339 341 341 340 340 339 338 337 336 336 335 336 336 335 332 330 325 320 318 317 315 311 308 309 309 309 308 308 308 307 307 307
312 310 306 311 314 314 323 328 333 333 333 332 330 336 332 336 339 340 341 340 339 339 338 337 337 336 336 336 336 335 331 330 326 320 318 318 316 315 310 307 308 308 312 314 315 314 314 311 310
313 305 309 311 313 314 315 326 328 332 333 331 329 335 336 341 340 341 341 340 338 338 337 337 337 336 336 335 332 331 330 325 319 317 318 316 315 311 309 313 312 317 317 317 317 317 316 315 315
309 306 311 313 318 322 320 327 332 333 332 332 334 334 334 341 341 341 340 339 338 338 338 337 336 335 333 331 332 330 326 320 318 317 315 314 313 314 320 319 319 319 318 317 316 316 316 315 314
309 307 311 318 326 323 319 329 333 332 333 333 330 332 337 340 340 341 340 339 339 339 338 337 336 334 333 333 330 325 322 318 317 315 319 317 315 321 322 320 320 319 318 317 316 316 316 316 316
307 307 315 324 326 326 323 318 329 330 332 327 327 338 343 337 341 340 339 338 338 340 342 341 337 336 334 331 325 321 319 317 317 320 322 321 322 323 323 323 321 320 319 318 318 317 316 316 316
308 309 311 320 325 325 324 318 317 323 329 326 324 331 336 340 338 338 337 337 337 337 341 337 336 333 328 325 321 319 317 317 320 323 324 323 324 324 324 323 321 320 319 318 318 319 318 317 317
310 310 312 312 319 325 325 318 321 329 329 327 326 334 338 338 337 336 335 335 335 337 341 334 330 326 324 321 318 316 317 321 325 325 324 324 325 325 322 321 319 318 318 318 318 318 318 318 318
310 312 310 311 319 320 314 320 316 328 330 326 332 334 334 336 335 335 334 334 332 327 330 326 323 320 318 317 316 320 322 324 327 326 325 326 326 324 319 318 317 318 318 319 319 318 318 318 317
313 310 310 309 314 312 314 311 323 320 324 325 331 332 331 332 331 331 331 329 328 327 326 324 322 319 318 317 320 323 326 325 326 326 325 324 324 322 319 318 318 319 319 318 317 317 317 315 315
313 311 310 309 309 309 308 311 320 313 321 322 328 330 329 330 329 327 325 324 326 327 327 326 325 322 322 320 324 326 326 327 327 327 326 324 325 322 319 320 319 318 315 314 314 313 313 313 313
311 309 309 309 307 307 309 311 312 312 322 321 325 327 326 326 325 325 326 326 327 328 328 329 328 325 324 326 324 326 328 328 328 328 328 327 325 323 320 320 316 312 312 312 311 311 311 311 310
308 309 309 309 312 311 310 313 312 316 323 322 322 323 320 319 320 320 323 326 328 329 330 330 330 330 327 328 327 327 327 328 329 329 329 327 322 321 318 313 311 311 311 311 311 310 309 307 306
310 308 310 311 313 311 309 308 309 320 324 323 322 322 320 318 320 321 322 323 325 328 330 330 330 329 327 326 327 327 327 324 325 324 320 317 316 313 312 311 311 310 310 310 308 306 306 306 304
309 311 313 314 312 313 311 313 311 310 322 319 318 317 319 318 320 321 321 321 320 328 330 329 328 326 323 324 324 320 318 317 315 315 314 312 312 311 311 311 310 309 308 306 305 303 303 302 302
311 312 312 313 313 311 311 318 317 316 317 318 316 316 317 316 314 318 325 324 325 329 329 327 326 325 324 320 318 313 313 313 313 313 312 311 311 311 310 307 306 305 304 303 302 301 300 300 300
312 313 313 312 312 316 318 318 317 318 317 316 316 316 315 315 314 319 320 325 326 326 326 326 326 325 318 315 317 315 313 312 312 311 311 310 308 307 306 304 303 301 301 300 300 299 299 299 300
315 314 315 314 314 317 318 316 315 315 318 317 316 316 315 314 313 313 317 320 322 323 324 324 319 315 317 317 317 315 312 312 311 309 308 305 304 303 302 301 300 300 300 299 298 297 297 298 300
319 316 317 315 318 316 318 319 316 317 318 317 316 315 314 314 313 312 313 316 315 315 316 315 316 315 316 315 311 311 311 311 311 308 304 302 301 301 300 301 303 301 299 299 298 297 297 298 298
320 318 316 316 317 321 315 323 319 319 320 319 318 315 315 313 311 310 310 312 313 312 311 311 311 311 311 311 311 311 310 310 308 305 302 302 302 302 302 303 304 302 300 298 298 297 297 297 297
320 317 316 315 314 314 317 319 316 319 321 320 317 316 315 313 311 311 310 310 310 310 311 311 311 311 311 310 310 310 309 307 304 302 304 305 305 303 302 302 302 300 298 297 297 296 295 294 292
317 318 316 316 315 317 317 317 317 319 319 319 317 316 315 313 311 310 311 311 311 311 311 311 311 311 310 309 308 308 307 306 304 304 304 305 304 303 302 302 300 298 296 295 293 292 291 290 289
317 317 319 320 317 319 318 319 317 316 316 318 317 315 314 312 311 310 310 310 310 311 310 310 309 307 306 306 306 305 304 304 304 304 304 304 303 302 301 300 298 295 293 292 292 290 289 289 289
318 318 318 322 319 320 317 322 319 314 313 315 315 313 311 312 312 309 308 306 306 306 307 307 306 305 305 305 305 304 304 304 303 303 303 303 302 301 300 299 295 293 296 293 290 290 289 288 288
318 315 314 316 312 316 317 317 317 316 315 314 314 312 312 310 307 306 306 307 306 306 306 306 305 303 301 300 299 299 301 300 298 297 299 301 301 301 299 296 294 296 292 291 290 290 289 288 288
316 314 316 312 316 317 316 318 318 318 317 315 314 312 309 307 306 305 305 304 305 305 305 305 301 297 297 296 296 295 294 294 293 293 294 295 299 298 297 295 296 293 292 292 290 289 288 288 288
317 316 313 313 311 312 313 316 312 315 317 313 311 310 309 307 305 303 303 303 302 302 301 299 298 297 296 295 294 294 293 292 292 291 292 297 298 297 296 295 295 293 293 291 290 289 288 288 288
316 317 311 309 314 308 307 311 310 311 311 311 310 309 306 305 304 303 303 301 298 297 297 298 297 296 295 294 294 293 293 292 292 292 292 294 296 296 296 294 293 293 294 291 289 288 288 288 288

GFSSGP_925_thetae_015.txt.gz
Theta_e
312 307 310 314 316 318 319 320 331 338 343 339 340 343 343 342 342 347 341 341 340 341 340 338 335 333 332 331 331 333 335 333 332 328 322 318 315 311 311 312 318 325 325 320 314 310 309 309 309
308 310 313 315 317 317 322 325 340 339 339 335 334 334 339 341 340 342 341 341 341 341 341 338 336 334 333 332 332 335 334 332 329 324 319 317 314 311 310 311 312 312 314 311 308 307 307 307 307
308 313 315 317 317 318 325 338 337 334 334 334 335 333 337 337 340 340 340 341 340 341 340 338 336 335 333 333 334 335 333 330 326 320 318 317 314 310 309 309 309 310 313 314 313 312 309 309 313
311 313 311 317 318 317 326 336 335 335 331 331 334 336 335 335 339 339 341 340 340 340 339 338 337 335 334 334 336 334 330 328 322 319 319 316 314 309 308 308 313 316 316 315 315 314 313 313 311
311 311 315 315 316 316 317 334 333 333 332 331 329 334 338 340 339 340 340 340 340 339 338 337 336 335 335 336 334 330 329 326 320 318 318 316 312 309 312 314 318 316 315 315 315 314 314 314 315
316 311 316 317 324 323 326 332 333 334 332 331 335 336 340 341 341 340 339 339 339 338 338 337 336 336 336 333 331 330 327 320 317 318 316 314 312 319 318 319 319 317 317 316 316 316 315 315 316
315 314 316 320 327 326 324 332 333 333 333 332 333 340 341 341 340 340 339 339 339 338 338 338 337 336 333 331 331 329 323 318 317 317 315 313 320 321 320 320 319 318 318 317 316 316 316 316 316
312 313 319 326 328 330 325 323 331 331 332 329 333 342 344 340 340 340 339 339 339 338 337 336 335 334 332 333 331 325 320 317 317 320 317 318 321 322 321 320 319 318 317 317 317 317 317 316 316
308 315 323 326 328 329 326 324 322 326 330 328 326 337 338 340 341 340 338 338 337 337 336 338 335 334 334 331 327 322 318 317 318 322 321 322 323 323 322 320 319 318 317 317 317 318 318 317 317
315 316 316 319 326 327 326 324 325 331 331 328 338 339 340 340 338 338 337 337 338 337 336 337 340 336 333 329 323 320 318 318 322 323 322 324 324 324 322 321 319 317 317 317 318 318 318 318 317
313 318 314 313 324 327 325 320 323 331 332 329 339 338 337 337 336 335 335 336 336 336 336 337 337 331 328 324 321 319 319 321 325 325 324 325 325 325 321 319 317 318 318 318 318 318 317 316 315
314 313 311 312 321 324 321 318 328 331 328 327 337 339 337 336 335 335 335 334 334 333 332 331 329 327 325 322 320 320 321 324 326 327 326 326 327 323 319 318 319 318 317 315 314 313 313 313 312
314 314 310 310 315 316 314 319 327 323 325 331 337 338 340 338 337 334 332 331 331 331 329 330 328 325 322 322 321 322 325 326 327 327 327 326 325 323 319 319 318 315 312 312 311 311 311 311 310
314 310 310 309 310 309 314 312 317 317 325 335 337 338 337 335 333 329 327 327 327 328 328 328 326 323 323 323 324 324 326 327 327 327 326 327 325 323 320 318 313 311 311 311 311 311 310 309 308
309 311 310 311 311 311 312 313 311 318 325 332 336 332 331 328 327 327 325 325 326 327 328 328 327 326 324 327 326 326 327 327 327 327 326 326 321 320 317 312 312 312 311 310 310 309 307 306 306
312 312 313 312 313 311 311 313 316 315 325 327 327 326 325 322 321 321 321 322 325 327 329 328 328 327 326 323 322 323 324 323 322 322 318 318 315 314 313 311 311 309 308 307 307 306 306 306 305
313 314 314 314 313 313 314 315 319 317 325 323 323 324 323 323 321 322 323 320 324 327 329 328 327 324 324 324 322 323 319 318 317 316 314 312 311 311 310 309 307 306 306 305 304 302 302 304 302
315 314 313 315 314 318 320 322 321 320 324 323 322 322 323 321 320 321 323 323 325 326 327 327 325 324 324 324 322 317 314 313 312 311 311 310 309 308 307 305 304 304 303 302 300 300 301 301 301
312 313 314 313 315 322 322 322 321 320 321 322 322 322 322 321 319 321 323 325 326 326 326 325 325 324 324 318 314 315 315 313 311 310 309 309 307 305 304 303 302 301 301 301 301 300 300 300 300
316 316 317 317 318 321 321 323 322 321 320 320 322 322 322 321 320 320 321 323 325 326 326 325 325 321 317 318 317 315 313 312 310 308 307 305 303 302 301 301 303 303 302 300 299 299 300 300 300
318 318 317 320 320 320 322 323 324 322 321 320 319 319 320 322 322 320 320 322 322 323 323 316 315 315 316 315 313 312 311 310 308 305 304 303 303 304 304 303 303 303 302 301 299 299 299 299 299
321 317 318 321 321 323 317 322 323 324 324 323 321 321 320 319 319 317 315 314 314 313 314 314 312 311 310 310 309 309 310 310 307 304 303 304 304 303 302 302 301 302 299 298 298 297 296 295 294
320 316 318 316 317 318 320 324 321 324 326 325 322 319 318 316 315 313 311 310 309 310 309 309 309 309 309 309 309 309 308 307 305 304 304 304 304 303 302 301 301 301 298 296 294 294 293 292 292
318 319 319 318 319 322 319 321 322 325 327 324 321 319 317 315 314 312 311 310 309 308 309 309 309 307 307 306 305 304 304 304 304 304 304 304 303 303 302 301 300 298 296 294 293 291 292 292 291
319 321 325 327 328 324 319 321 322 320 320 323 322 320 318 316 314 313 312 311 310 309 308 307 307 305 305 304 304 303 303 303 303 303 303 301 301 302 302 301 299 297 293 293 293 292 289 291 290
319 321 327 326 327 324 319 326 323 317 317 320 320 319 317 316 314 313 311 308 307 306 306 305 305 304 303 301 299 299 298 298 296 294 294 296 297 298 298 299 298 294 295 294 294 292 292 291 291
319 319 317 319 314 320 320 319 318 317 316 319 318 318 318 316 314 312 308 307 306 305 305 304 303 300 298 297 296 295 294 294 293 292 292 292 291 295 298 298 296 295 296 294 294 293 292 291 290
317 315 320 318 320 319 317 320 322 320 319 319 318 318 317 315 312 310 308 306 306 306 305 301 298 297 297 296 295 294 294 293 293 292 291 291 291 296 297 297 296 295 296 294 293 292 291 291 290
319 318 315 316 316 317 318 317 317 319 319 319 320 317 316 313 311 309 305 304 304 304 301 297 297 298 297 296 294 294 293 293 292 292 291 292 292 294 296 296 295 295 293 293 293 292 289 289 289
316 317 316 319 315 313 316 318 312 315 316 317 316 314 313 312 309 306 304 302 301 299 297 298 298 299 297 295 294 294 293 293 292 292 292 292 292 293 294 294 294 293 294 293 292 289 288 289 289

GFSSGP_925_thetae_018.txt.gz
Theta_e
318 313 312 318 322 322 326 326 334 345 344 341 342 342 343 342 346 349 342 342 343 343 341 337 331 330 330 331 333 334 333 332 330 324 319 315 312 311 312 315 317 321 323 320 311 308 307 307 307
311 310 316 320 323 325 325 324 334 342 339 335 332 336 339 338 340 343 342 343 343 343 341 339 332 331 330 331 333 334 333 332 327 320 317 314 311 310 313 314 314 313 313 310 308 307 309 312 313
311 315 319 319 321 323 325 334 337 338 334 332 332 334 337 338 336 341 343 343 343 342 342 340 333 331 331 332 334 334 332 328 323 319 317 314 310 310 310 310 313 316 315 315 313 313 313 311 309
312 316 318 319 321 320 329 336 336 335 334 332 332 333 332 332 332 338 342 342 342 341 341 338 334 333 332 333 334 334 331 326 320 319 318 314 309 309 309 316 316 315 315 314 314 313 313 314 312
314 318 319 319 320 319 328 337 335 333 332 332 332 336 332 334 337 340 340 339 338 339 341 338 335 334 333 334 336 333 329 324 320 320 317 314 308 310 315 317 315 315 315 314 314 315 315 316 315
317 318 319 321 324 326 323 336 335 331 329 330 331 335 341 341 340 342 337 337 339 341 341 339 336 334 334 336 335 330 328 322 319 318 317 311 316 316 318 317 317 316 316 316 316 316 316 316 316
318 317 319 323 329 330 329 334 335 331 328 332 333 338 343 342 341 340 340 341 341 341 340 338 337 336 335 336 333 330 324 319 319 318 315 315 320 319 319 318 318 318 317 317 316 316 316 316 316
318 317 320 326 331 334 333 332 328 329 332 332 334 338 345 342 342 341 341 341 341 340 340 339 338 338 337 335 332 328 322 319 318 318 314 319 321 321 320 320 319 319 318 318 317 317 317 317 316
317 317 322 328 330 332 328 327 326 328 331 333 332 337 339 342 340 340 340 340 339 339 339 338 336 336 336 334 333 327 321 319 320 320 318 323 325 326 325 322 318 318 317 317 317 317 318 317 319
319 319 320 327 329 331 328 326 325 332 333 333 339 340 340 341 341 341 340 339 339 338 338 337 337 337 336 332 330 328 325 324 327 327 327 327 328 328 326 322 317 317 317 318 318 318 318 319 317
319 320 319 326 329 326 325 325 325 330 335 334 340 343 340 340 340 339 339 338 338 336 336 336 335 335 333 330 327 324 325 327 329 330 330 330 329 329 326 324 322 323 320 321 320 320 318 318 317
319 319 317 324 328 325 323 324 326 330 330 331 337 340 341 340 339 338 338 334 333 334 334 335 333 335 331 327 325 325 326 329 330 330 331 331 329 328 325 322 323 323 321 319 318 318 318 317 315
318 318 317 316 321 326 324 324 328 330 329 334 338 339 341 338 336 333 332 331 331 330 332 333 332 331 329 327 327 328 330 329 331 331 331 330 329 328 324 324 322 320 318 317 317 317 315 314 313
318 317 315 314 322 321 323 322 327 323 332 337 338 338 338 337 334 331 330 329 329 328 332 332 329 328 327 328 329 329 329 328 327 328 328 326 325 323 325 322 319 318 317 316 315 314 312 312 311
315 315 315 314 319 320 321 320 319 323 330 335 335 336 337 336 334 330 327 326 325 328 331 331 330 328 329 327 324 321 321 325 326 326 326 325 322 321 319 318 317 316 315 314 313 312 311 311 310
315 316 316 316 318 314 318 319 320 323 330 334 335 336 336 332 330 328 327 325 325 329 331 332 330 329 326 325 322 320 320 322 322 322 321 320 317 315 314 316 315 313 312 311 311 310 309 309 308
315 315 315 317 318 316 316 316 321 325 329 332 334 333 332 329 328 328 328 326 327 330 332 332 331 329 326 323 323 323 321 320 317 316 315 314 313 313 314 313 311 310 309 309 308 308 307 307 306
316 317 315 316 319 316 318 322 321 327 329 330 330 331 330 330 328 328 328 328 329 331 332 332 330 328 324 323 324 322 319 316 315 314 313 312 311 310 310 310 309 308 307 307 307 307 307 306 306
316 317 317 318 321 323 322 323 323 324 329 330 329 330 330 329 327 328 329 329 330 331 331 330 327 326 325 324 321 319 319 317 314 312 310 310 309 308 308 307 307 307 307 307 306 306 305 304 304
318 317 320 320 321 324 324 325 324 323 326 329 330 330 329 328 329 329 330 330 330 330 330 329 328 325 323 322 321 321 319 315 312 310 308 308 307 306 306 307 307 306 306 305 306 304 303 302 303
321 321 322 321 322 323 324 325 326 324 324 324 326 328 328 329 330 330 330 331 330 329 329 327 324 322 321 320 318 316 315 313 312 310 309 306 307 306 306 306 305 304 303 302 304 303 302 302 301
322 320 322 323 323 322 323 322 327 327 327 326 326 327 328 329 330 330 328 326 327 325 321 320 319 318 315 314 314 315 315 315 311 308 307 307 307 306 305 304 303 303 302 302 302 300 299 298 298
323 321 323 322 323 323 324 323 327 328 328 329 329 329 330 330 327 323 321 321 320 318 317 315 314 312 313 313 313 313 311 309 308 308 307 307 306 305 304 303 302 302 302 302 301 299 297 297 297
321 322 322 322 323 324 323 324 322 329 328 329 328 327 327 325 321 318 317 315 315 314 314 313 312 312 311 311 310 309 308 307 306 305 303 301 300 300 300 301 302 302 302 301 299 297 297 297 295
323 323 324 325 326 325 323 323 321 323 325 328 328 325 324 322 319 317 315 314 314 314 313 312 311 310 309 307 305 305 304 303 301 299 298 298 297 297 297 298 299 301 301 299 297 297 297 294 293
323 323 323 321 324 321 323 322 322 322 322 326 326 324 322 321 319 318 316 315 314 313 312 311 310 308 306 304 304 301 299 298 298 297 297 296 296 296 296 297 299 300 299 298 296 297 296 294 293
322 322 322 325 322 325 321 323 323 321 322 324 326 323 322 321 319 318 316 314 313 312 311 309 307 304 302 301 299 299 298 298 298 297 296 295 295 295 296 298 299 299 299 298 297 296 295 294 293
322 320 324 324 325 322 319 320 319 324 323 323 325 323 322 321 320 318 315 313 312 311 309 306 303 301 300 299 298 298 298 297 297 297 296 295 295 295 295 296 298 298 298 298 296 295 295 293 292
322 322 319 321 322 318 316 316 321 321 323 323 324 323 322 321 320 318 314 312 311 309 306 303 302 301 299 299 298 298 297 297 297 296 295 294 294 294 294 295 296 297 297 296 295 295 295 293 291
321 322 319 319 319 321 324 318 317 320 321 322 323 322 322 321 320 317 313 311 310 308 304 302 301 300 300 299 297 297 297 297 296 296 295 294 294 294 294 294 294 295 295 294 295 295 293 291 291

GFSSGP_925_thetae_021.txt.gz
Theta_e
316 319 317 316 323 326 326 327 328 342 344 342 342 342 343 344 351 353 342 343 343 341 336 334 330 330 330 331 332 332 332 331 326 320 316 313 312 312 312 312 312 314 317 315 311 308 311 312 313
320 314 313 321 324 326 326 326 331 342 340 338 338 340 339 343 344 345 344 344 343 341 337 336 331 331 331 332 333 333 332 329 322 318 314 311 311 311 311 311 313 317 321 321 315 313 310 309 309
315 313 319 320 324 325 326 330 341 338 337 337 336 335 336 337 342 343 342 343 342 340 339 336 331 331 332 333 334 333 331 325 320 318 314 311 311 311 310 315 318 319 322 318 313 312 312 310 309
313 315 319 322 324 324 324 336 336 335 336 334 334 334 332 332 337 341 343 342 342 340 339 334 331 331 332 334 334 333 329 323 320 318 314 312 312 310 317 317 317 316 316 315 314 315 315 315 314
314 319 319 322 324 323 329 335 336 336 335 333 333 333 330 331 333 340 343 342 339 339 339 333 332 331 332 334 334 332 328 321 320 319 316 310 309 314 317 315 315 315 315 315 316 316 316 315 315
316 319 321 323 324 324 322 334 335 333 332 331 333 334 335 334 335 338 341 337 330 331 337 335 333 333 333 334 334 331 327 321 321 319 314 310 314 318 317 316 316 316 316 316 316 316 316 316 316
317 319 320 322 328 328 325 335 337 332 330 331 331 335 340 337 338 341 336 331 327 331 337 337 335 334 333 335 333 330 324 320 319 317 312 318 318 319 318 317 317 317 317 317 317 317 316 316 315
318 320 319 321 330 333 331 334 333 332 332 332 333 337 338 339 342 339 330 336 331 331 337 337 337 337 338 335 332 327 321 319 318 316 315 320 319 319 319 319 319 319 318 318 318 317 317 316 318
318 319 319 323 332 333 331 331 330 328 328 333 335 337 339 342 342 340 338 339 338 339 339 337 336 335 335 335 331 324 319 318 319 317 319 323 326 326 324 323 318 318 317 317 317 317 317 319 321
317 318 320 327 331 332 329 328 327 328 326 331 338 339 341 341 340 340 340 339 339 338 337 337 336 335 333 330 330 327 323 323 327 327 325 327 328 328 326 322 316 317 317 318 317 317 319 320 319
318 321 321 324 330 330 329 327 326 330 330 332 337 340 340 340 339 338 337 337 338 337 336 335 334 335 330 329 326 324 325 328 330 330 330 329 328 328 327 325 324 324 322 323 321 321 320 320 319
319 320 320 324 327 325 325 326 326 325 327 329 335 339 341 339 340 339 337 333 332 334 336 336 334 334 330 326 325 325 327 329 329 329 331 330 329 328 325 324 324 324 323 322 321 321 320 318 317
319 320 320 324 325 322 324 324 327 329 326 331 336 340 338 338 335 333 330 330 330 331 332 333 332 330 329 326 328 329 329 332 330 331 331 331 330 330 324 325 324 323 322 321 320 319 318 315 315
320 320 319 321 324 326 324 323 327 328 329 333 336 336 332 332 331 329 328 328 328 329 331 330 329 328 327 330 331 332 330 330 329 331 329 326 326 320 320 319 324 322 321 319 318 316 315 315 314
319 318 317 319 323 324 323 320 322 328 330 332 332 332 331 330 328 327 326 327 327 328 331 330 329 328 331 331 326 321 320 320 322 325 326 325 323 322 324 322 321 319 317 316 315 314 313 312 312
318 318 319 318 322 323 323 321 322 327 329 330 330 331 331 331 329 326 325 325 326 329 332 332 330 331 330 325 320 321 321 320 322 323 322 322 322 320 319 319 318 316 314 313 313 312 311 310 310
318 317 319 319 321 322 322 321 322 326 327 329 330 332 332 331 329 328 327 325 326 330 333 334 332 331 328 324 322 321 321 321 321 319 319 319 318 317 317 316 315 313 312 312 311 311 310 310 310
318 318 317 319 321 321 318 320 321 325 326 329 330 331 332 330 330 330 329 327 327 330 333 334 333 330 329 324 324 324 324 323 320 319 317 316 315 314 314 313 312 311 311 311 311 310 310 309 307
319 319 317 318 319 318 317 320 322 324 326 328 329 330 331 331 330 330 331 330 331 333 334 333 331 330 327 328 327 326 321 320 319 316 314 314 312 311 311 311 311 311 310 310 309 309 308 304 303
318 318 319 319 319 321 319 321 322 324 326 327 328 328 329 330 331 331 332 332 332 333 333 332 330 330 329 327 325 322 322 318 316 314 313 312 311 311 310 310 310 309 308 307 305 305 305 303 302
319 318 321 321 321 322 322 323 326 325 326 328 329 329 329 330 331 332 332 332 333 332 332 331 330 328 325 324 322 321 318 316 315 314 313 311 310 310 309 308 308 306 305 303 303 304 304 302 301
321 322 321 322 323 322 322 322 324 327 326 326 328 329 330 330 331 332 333 333 332 331 331 329 326 324 323 319 317 317 317 318 315 313 312 311 310 309 308 306 305 304 303 303 303 302 302 300 300
325 322 323 322 323 324 324 322 326 327 327 327 327 327 328 330 331 333 332 330 329 326 324 323 321 317 316 317 317 316 315 314 312 311 309 307 305 303 302 301 302 304 303 303 302 302 301 299 300
322 324 324 323 321 324 321 322 326 328 327 328 328 329 330 332 331 327 325 324 323 321 319 318 316 316 316 315 314 313 311 309 308 305 303 301 300 299 299 299 299 300 301 302 302 301 300 300 299
322 323 325 324 326 325 323 323 322 321 326 326 329 330 331 329 326 323 322 320 319 318 317 316 315 315 313 311 309 308 306 303 302 301 300 299 299 298 298 298 299 299 300 301 300 300 299 299 297
323 322 325 321 322 323 324 321 321 325 323 324 329 329 329 327 323 321 319 318 318 317 316 315 314 313 310 308 306 302 301 300 300 300 299 298 298 297 297 297 298 300 300 300 300 298 299 298 296
322 323 323 325 325 325 319 318 323 324 324 325 328 328 328 324 322 320 319 318 318 317 316 315 313 310 307 305 304 301 300 301 301 300 299 298 297 296 296 297 297 298 299 299 300 299 299 297 296
323 322 323 321 322 322 319 319 318 325 323 325 328 328 326 324 322 321 319 319 318 316 315 313 310 307 305 304 302 300 300 300 300 300 299 297 296 296 296 296 296 296 297 298 298 298 297 296 296
324 322 321 322 325 324 319 319 320 318 322 324 326 327 326 324 323 321 320 318 317 316 314 310 307 306 305 302 300 300 300 300 300 299 298 297 296 296 295 295 295 296 296 296 296 296 296 296 295
323 323 323 324 321 322 326 320 319 320 321 323 324 326 325 325 323 322 319 317 316 315 311 308 307 307 303 302 300 301 300 300 299 299 298 297 296 295 295 295 295 295 295 295 295 295 295 295 294

GFSSGP_925_thetae_027.txt.gz
Theta_e
312 310 313 318 313 312 316 318 324 339 342 339 338 344 347 346 351 349 342 337 334 335 339 340 339 334 329 329 331 329 323 317 315 314 314 314 313 312 312 313 312 315 320 318 313 309 309 310 311
312 318 318 315 310 312 315 323 341 340 338 336 336 338 344 350 344 342 338 336 331 331 333 338 335 328 329 331 331 326 319 316 314 314 312 312 312 314 316 317 316 319 324 322 318 313 312 312 312
314 321 314 307 308 312 315 330 339 337 335 335 335 333 336 347 343 343 338 333 328 334 334 332 328 329 332 332 329 322 319 315 313 311 311 311 317 318 316 317 319 321 321 318 313 313 313 312 313
317 313 307 311 314 315 315 332 336 337 336 335 333 334 331 340 343 342 338 335 333 334 329 329 330 332 333 332 326 321 318 315 313 311 310 315 316 315 315 316 315 316 314 314 314 313 312 313 315
318 309 308 311 314 317 324 334 334 334 336 335 334 334 333 342 342 340 337 337 337 333 332 332 333 333 333 330 324 320 318 315 311 309 309 316 314 314 313 313 314 314 314 314 314 313 315 316 316
314 308 310 311 313 323 334 331 333 333 335 333 333 333 333 341 341 339 337 336 335 333 332 332 333 333 333 328 322 318 317 314 310 308 314 315 313 314 314 314 314 314 315 315 315 314 317 317 316
314 312 312 312 314 331 335 332 333 332 334 334 332 339 335 338 336 336 335 335 332 332 331 332 333 333 332 327 320 317 317 314 309 311 316 315 314 314 314 315 315 315 315 315 315 314 315 319 317
311 310 312 313 315 336 330 330 329 330 330 330 332 337 340 335 332 331 328 327 328 331 328 325 331 333 331 326 319 317 316 313 311 317 316 315 314 315 317 314 315 315 315 315 315 316 318 320 320
313 310 310 312 327 331 329 329 330 328 328 329 333 338 337 331 330 332 332 327 327 329 329 327 332 331 329 323 317 315 314 312 317 317 319 324 320 325 324 314 314 315 315 318 321 321 320 320 319
312 310 313 326 329 329 329 328 329 330 329 333 332 336 334 329 327 327 328 329 325 326 330 331 330 331 326 320 315 315 315 313 320 326 327 328 327 327 322 318 317 323 320 321 322 322 321 319 317
313 313 314 326 328 327 328 329 327 328 330 331 331 331 332 332 330 328 326 325 325 326 332 331 331 330 323 320 315 325 326 325 324 327 328 326 327 322 322 323 322 325 323 323 322 321 318 315 315
314 315 315 327 327 327 330 330 324 325 328 325 325 327 331 334 328 329 327 327 326 328 333 331 333 331 325 323 324 326 329 330 329 330 329 328 328 328 325 324 320 324 323 320 318 317 316 315 314
315 315 318 327 328 328 328 329 327 323 324 329 332 331 333 334 331 329 329 328 330 333 334 333 332 327 327 327 325 327 330 330 330 330 330 330 329 327 323 320 319 321 320 320 318 315 314 314 312
316 315 318 324 328 328 329 329 326 325 324 327 331 333 334 334 333 333 332 331 334 333 331 331 329 326 327 329 329 329 329 329 330 330 329 330 326 324 319 320 323 320 320 317 315 313 312 311 311
318 317 317 320 323 325 324 326 324 325 326 327 328 332 329 329 330 334 334 334 333 331 330 333 327 328 329 329 328 328 326 323 320 320 321 325 325 322 322 321 319 319 315 313 313 312 311 311 311
318 317 318 318 323 323 321 321 325 323 326 326 326 326 326 325 325 331 331 334 333 330 329 331 328 331 330 329 327 321 320 320 320 320 321 323 323 323 320 320 318 316 313 312 312 311 311 311 310
317 317 318 318 320 322 321 321 326 324 327 327 326 324 324 323 323 327 328 332 331 329 331 329 327 332 330 328 321 321 322 321 320 320 319 319 318 317 317 316 316 311 311 312 311 311 309 308 308
318 318 316 317 319 321 320 318 318 323 325 326 323 323 324 322 322 325 326 330 330 330 329 328 330 332 330 323 321 323 324 324 320 319 317 316 315 315 314 313 311 312 311 310 309 307 306 305 305
320 318 317 315 317 321 320 318 317 317 324 324 327 328 326 324 325 325 325 329 330 330 329 330 330 331 328 320 322 325 325 321 321 317 315 314 312 312 311 311 311 310 309 308 306 304 303 303 304
321 321 319 316 317 317 317 316 316 318 320 326 323 324 326 326 325 327 329 328 332 331 331 332 331 329 326 320 323 326 322 321 316 316 314 312 311 311 310 310 310 309 308 305 304 304 303 303 303
322 322 320 319 316 315 320 317 320 319 320 324 324 325 327 326 328 328 329 332 334 333 331 331 331 329 328 326 326 326 322 316 315 314 312 312 311 311 310 308 307 306 305 305 304 303 304 302 302
320 322 321 321 321 316 319 320 325 323 322 322 322 323 327 326 329 329 330 331 334 333 332 331 330 329 327 327 328 324 317 314 314 313 312 311 310 308 303 301 300 300 300 300 302 303 302 302 301
322 320 321 323 322 323 322 321 320 323 320 323 321 322 321 327 329 330 330 333 334 333 331 330 328 328 329 329 321 318 316 314 314 312 309 305 304 302 301 300 299 299 298 299 299 301 302 302 300
321 321 323 323 322 323 322 322 324 324 323 324 324 323 324 323 326 328 331 332 332 331 330 330 329 323 319 321 319 317 314 311 307 305 305 302 301 299 299 298 298 297 298 299 300 301 301 301 300
322 321 323 324 324 326 325 324 324 323 322 324 324 322 322 326 327 329 330 330 328 329 330 326 320 317 317 317 314 313 311 308 308 305 304 301 299 298 298 297 297 297 297 298 299 300 300 299 299
320 322 326 328 330 326 325 326 322 321 322 323 323 321 323 326 327 327 324 323 322 321 319 317 317 316 316 314 310 307 307 307 306 304 300 299 299 298 297 296 296 296 296 296 296 298 297 298 299
321 319 324 327 325 328 323 317 321 322 323 324 322 322 327 326 323 323 321 321 321 320 318 317 316 315 313 311 308 308 306 307 302 301 300 299 298 297 297 296 296 296 296 296 295 296 298 299 298
320 320 322 322 323 323 318 320 325 322 322 324 323 327 327 324 320 320 320 319 320 319 318 317 316 313 310 307 306 305 305 301 301 300 300 299 298 297 296 296 296 295 295 295 296 296 296 296 295
321 320 319 319 320 322 322 320 318 318 320 321 325 328 327 324 320 318 317 318 319 319 318 317 315 311 308 305 305 305 302 301 301 300 300 299 298 297 296 296 295 295 295 295 295 295 295 294 294
321 322 323 318 320 319 317 319 317 316 318 318 318 325 325 323 319 317 317 317 317 318 317 316 314 310 306 306 306 303 301 301 301 300 300 299 298 297 296 296 295 295 295 295 295 295 295 293 293

GFSSGP_925_thetae_033.txt.gz
Theta_e
313 312 311 315 312 307 311 313 312 317 337 339 342 344 346 346 346 343 338 338 341 345 340 337 333 327 327 328 322 315 313 315 314 311 311 312 312 313 311 309 310 313 322 323 321 317 317 319 320
312 314 315 306 307 308 309 311 316 317 337 338 337 343 346 349 342 340 339 339 341 343 339 336 330 328 329 326 318 315 317 315 311 310 311 312 314 311 310 311 312 313 316 321 320 317 316 317 324
313 318 316 308 303 309 309 312 337 335 333 333 333 332 341 346 340 339 339 340 341 340 339 334 329 328 328 322 316 314 313 311 311 311 316 314 314 312 312 312 312 313 315 316 316 315 316 316 317
315 310 305 306 308 308 310 311 317 335 331 332 332 333 340 340 338 339 339 339 339 340 338 334 329 329 326 319 315 313 312 311 313 316 319 316 313 313 313 312 312 314 316 315 316 316 316 316 315
314 304 307 307 308 311 330 330 332 334 335 335 332 341 343 337 338 338 338 337 338 339 337 330 330 329 323 316 314 313 311 311 315 317 315 312 313 313 313 313 313 315 317 317 316 316 317 316 315
310 304 308 309 311 322 332 330 331 334 333 333 332 338 340 337 335 336 337 338 338 337 334 330 331 327 319 316 315 312 312 312 315 313 312 313 313 313 313 313 313 314 315 319 318 316 317 317 316
311 310 311 311 312 312 334 329 332 332 332 334 331 339 337 337 335 335 335 333 333 333 331 331 330 322 319 317 316 312 311 311 314 314 312 312 313 313 313 314 314 314 314 317 320 319 318 317 317
310 309 312 310 310 312 329 330 328 329 330 328 332 340 338 334 333 333 330 327 327 330 330 328 324 321 317 316 315 311 308 313 313 312 312 313 313 314 314 314 314 315 316 317 319 320 319 318 316
307 311 311 312 313 327 327 330 328 328 334 334 335 334 333 332 332 331 330 329 326 325 324 324 325 324 321 318 314 311 308 314 313 313 313 314 314 314 315 315 315 318 318 319 320 320 319 316 316
310 309 313 311 319 326 328 327 329 332 334 334 333 332 332 331 330 330 327 328 322 321 321 322 320 323 322 318 316 311 312 317 314 314 314 316 319 315 315 315 316 317 320 321 321 320 317 316 315
311 313 312 312 325 324 326 325 327 332 333 333 332 330 330 330 329 328 328 328 326 323 323 321 324 328 325 322 318 312 316 317 316 316 322 324 324 319 316 318 320 321 322 322 321 316 315 314 313
313 311 311 315 326 325 326 324 323 324 328 330 329 329 329 329 328 328 328 328 328 327 325 322 323 330 325 321 317 313 318 317 321 323 324 325 325 323 322 323 324 323 321 319 316 315 313 312 310
311 313 312 317 325 324 326 324 327 327 328 329 329 329 329 329 328 328 328 327 327 326 325 324 328 331 324 319 317 314 318 322 324 326 326 326 325 326 323 322 322 320 319 317 315 313 312 311 310
316 315 325 324 325 326 326 326 328 327 330 331 329 328 326 325 326 325 326 325 326 327 326 329 330 331 324 318 317 315 318 322 329 329 327 327 325 323 321 320 319 319 317 315 313 312 311 310 310
317 318 325 326 326 326 323 324 329 326 332 332 330 329 328 325 326 325 325 324 324 325 326 328 329 330 326 317 323 323 324 327 330 329 328 327 325 324 321 320 319 316 313 312 312 311 310 310 309
315 314 319 325 326 324 320 325 322 326 330 332 332 331 330 327 325 326 325 324 325 329 329 329 330 330 325 319 323 325 328 329 329 329 329 328 324 321 320 318 315 313 312 311 311 310 309 308 306
313 315 317 325 323 323 320 321 321 325 330 331 333 332 329 327 326 327 326 325 326 330 330 330 330 330 326 326 326 329 330 329 324 322 322 325 324 322 319 317 314 312 311 310 310 308 307 303 302
318 317 316 317 316 321 324 320 324 323 329 331 327 331 330 327 326 328 327 327 328 330 332 332 331 331 327 328 328 325 322 320 320 320 321 322 322 320 317 313 312 311 311 310 308 306 303 302 302
319 319 319 318 317 319 319 318 324 322 324 325 323 325 332 330 328 330 329 328 330 332 331 329 329 328 328 326 323 321 321 320 319 319 319 317 317 315 314 312 311 310 309 307 304 303 303 302 302
319 320 320 317 315 315 316 317 321 323 325 325 324 323 324 331 330 331 331 330 331 332 330 329 328 328 328 326 323 321 322 320 318 317 315 315 314 313 312 311 310 308 306 304 304 303 303 302 302
318 320 319 320 317 314 315 317 317 316 323 323 323 323 323 325 329 329 331 331 330 329 329 330 328 328 327 326 322 322 323 320 318 315 314 312 311 310 310 309 307 306 304 302 300 300 302 302 301
320 318 318 319 317 313 313 317 318 316 322 324 325 322 322 322 325 326 329 330 329 327 328 329 328 328 328 326 322 323 324 318 318 316 313 311 310 310 309 307 304 300 299 298 298 298 299 301 301
319 319 318 320 319 317 318 316 315 319 317 323 324 323 323 321 322 323 326 329 329 327 327 328 328 327 327 327 323 323 322 319 316 312 311 310 309 308 304 300 298 297 297 296 296 297 299 300 301
319 319 317 318 319 319 321 317 317 319 318 319 324 323 321 319 320 322 323 327 327 327 327 328 327 326 326 327 323 322 322 317 314 311 310 308 304 300 298 298 297 296 296 295 295 297 299 300 299
318 316 317 318 320 320 320 320 319 317 317 317 318 320 318 319 322 324 327 328 327 328 328 328 327 327 327 328 327 322 323 319 316 312 310 303 300 298 297 297 296 297 295 295 295 295 296 297 298
319 316 318 322 321 319 321 324 320 318 317 316 316 315 316 319 324 327 329 329 328 328 328 328 328 328 328 328 327 326 323 320 315 311 307 302 299 298 297 297 299 295 295 295 294 295 295 295 297
320 318 317 320 319 322 320 319 315 317 320 318 318 319 321 321 324 327 329 330 329 328 328 328 329 329 328 327 326 325 324 318 314 311 303 299 298 297 298 299 295 295 295 294 294 295 295 296 296
319 317 318 317 323 325 319 317 319 320 319 319 319 318 322 322 324 324 326 326 327 329 327 327 329 327 323 321 322 322 316 313 311 305 301 300 299 298 298 296 297 296 295 295 294 295 295 295 294
318 318 316 316 315 318 318 318 312 318 318 318 317 318 319 322 323 323 324 323 324 324 327 327 325 320 316 317 316 313 309 308 305 303 301 301 300 298 298 299 298 296 296 295 294 294 294 294 294
318 319 316 316 317 314 314 317 313 312 313 315 318 318 319 322 322 322 322 319 318 321 322 321 317 314 313 311 311 310 308 305 304 302 300 300 299 299 300 298 296 296 296 295 294 294 294 294 294

GFSSGP_925_thetae_036.txt.gz
Theta_e
312 311 312 312 310 306 310 311 311 313 326 339 340 343 344 343 343 341 338 338 340 342 338 333 328 327 326 320 315 313 311 310 311 311 310 315 317 316 318 322 325 325 325 326 323 321 320 319 324
312 312 315 304 307 308 309 309 314 323 332 331 332 336 344 344 341 339 338 340 340 341 338 332 328 327 325 318 314 311 310 310 309 310 310 314 313 314 318 323 324 324 324 323 318 322 325 326 325
313 318 313 305 303 308 309 309 326 333 331 332 333 332 340 345 339 339 338 340 339 340 337 332 329 328 323 316 313 311 312 309 310 311 313 312 315 318 318 320 323 323 320 318 315 316 318 320 321
314 311 302 306 307 307 308 310 328 331 331 331 331 339 340 336 339 339 339 340 338 339 337 331 330 327 321 316 312 310 309 311 313 315 319 318 320 316 315 317 319 321 317 316 316 315 315 317 318
311 303 306 307 307 308 317 329 330 334 334 333 334 339 341 337 339 339 340 340 339 339 336 332 330 325 320 316 312 312 312 313 319 318 320 319 316 314 314 316 316 316 316 316 316 316 315 314 317
309 302 305 308 309 310 330 329 330 333 333 331 336 337 339 336 337 335 337 338 338 338 336 332 330 325 321 319 312 313 314 318 319 319 316 316 314 313 313 316 317 317 317 317 316 316 316 316 316
310 308 309 310 311 311 331 327 330 331 330 333 331 340 337 337 333 333 333 335 336 336 334 332 327 322 317 314 314 314 316 319 315 314 313 314 313 313 313 314 314 317 319 319 318 317 317 317 316
307 307 311 309 310 310 327 329 327 328 330 329 334 339 339 335 331 330 330 330 330 332 332 330 324 317 320 318 314 316 314 318 315 312 314 313 313 314 314 315 315 316 318 319 318 318 317 316 316
306 309 309 311 312 315 327 329 328 331 334 334 333 335 334 333 330 328 326 326 328 327 324 320 319 319 319 316 315 315 316 312 311 313 313 313 314 315 315 315 316 318 318 320 320 318 316 316 314
308 309 312 311 311 324 327 326 329 334 334 333 334 334 333 332 331 328 324 324 323 324 322 321 321 321 319 316 316 314 313 312 313 314 314 314 314 315 315 316 317 319 320 320 320 317 316 314 314
309 311 311 311 312 323 326 326 327 333 335 332 334 334 332 332 330 327 323 323 322 321 322 322 321 318 317 318 313 309 316 314 314 314 314 316 315 315 316 317 318 321 322 321 317 315 315 314 312
313 310 311 311 324 324 324 324 325 326 328 330 330 330 331 330 330 328 323 322 322 321 321 322 321 320 325 320 314 311 316 315 315 316 317 323 320 317 317 321 323 322 318 318 316 315 312 311 310
311 311 313 314 323 324 324 325 328 330 329 328 328 328 329 330 328 327 328 324 324 324 322 321 323 327 325 319 317 313 317 317 316 319 323 325 325 322 322 324 322 320 317 316 314 312 311 311 310
314 316 322 324 325 325 329 328 327 329 328 329 329 328 328 329 328 327 328 327 327 325 321 321 324 328 327 322 319 315 318 318 321 324 326 326 324 324 323 322 320 318 316 314 313 312 311 310 309
316 322 323 325 325 326 322 323 329 330 330 330 329 327 325 327 326 326 325 326 327 326 325 323 322 329 329 323 319 315 318 321 326 327 326 326 324 323 320 319 318 317 315 314 312 311 310 310 308
313 314 318 324 325 323 320 324 328 331 330 330 329 328 328 325 325 325 325 324 326 325 323 323 327 330 330 324 318 315 318 324 329 328 327 325 324 321 320 319 318 315 313 312 311 310 309 307 304
312 314 317 326 324 323 320 323 326 329 331 331 330 330 330 327 324 325 325 324 324 325 325 326 328 329 329 326 319 323 324 327 329 328 327 326 324 321 320 319 316 313 312 310 309 308 306 303 301
317 317 317 317 316 323 324 320 324 328 330 332 330 330 330 327 325 325 325 325 323 325 328 328 329 329 329 326 320 324 328 329 329 327 325 325 324 321 318 315 313 311 310 309 308 304 302 301 301
317 318 318 315 315 317 322 321 324 326 328 330 329 329 330 327 326 325 326 325 324 325 329 329 329 329 330 326 326 328 328 325 322 320 320 321 322 320 316 313 310 309 309 306 303 303 302 301 301
318 318 317 316 314 315 316 318 324 324 328 328 329 327 328 329 326 325 327 326 325 326 328 331 330 330 330 327 327 326 325 322 320 320 319 319 319 316 312 311 309 308 305 304 303 302 302 301 301
317 319 318 318 317 313 315 316 323 321 324 323 325 325 325 328 329 327 328 327 327 327 328 331 331 329 329 327 326 324 321 320 319 318 316 315 314 311 310 309 308 305 303 299 298 298 299 300 300
319 316 317 318 316 314 313 315 316 318 325 322 324 322 322 323 326 327 329 329 328 328 329 330 330 329 327 326 326 323 322 320 318 317 314 312 311 310 309 308 304 300 298 296 296 296 297 298 300
318 318 318 318 317 316 317 315 314 316 318 324 323 323 321 321 321 325 327 329 329 329 329 329 330 330 326 326 326 322 322 320 318 316 312 310 309 308 306 302 299 297 296 296 295 295 295 297 299
318 318 314 316 317 319 318 317 317 318 318 320 322 323 323 320 319 321 325 327 329 329 328 328 328 328 327 326 325 323 322 320 318 314 310 308 307 303 300 298 297 299 297 295 294 294 295 298 299
316 314 316 317 319 320 318 319 318 315 314 316 315 319 321 321 319 318 319 324 327 328 326 327 327 327 326 325 325 324 322 322 319 314 310 307 302 300 298 298 298 301 300 296 294 293 294 295 296
317 315 316 319 319 317 318 321 318 317 316 315 313 313 317 317 319 319 320 322 325 326 326 326 326 327 326 326 325 324 322 322 318 313 310 306 304 300 298 297 301 305 294 295 294 294 294 295 295
318 317 314 318 317 320 317 317 313 316 319 318 317 317 313 315 318 320 321 324 325 326 326 327 326 326 326 325 326 325 325 322 319 313 311 307 302 299 297 300 302 295 297 295 294 294 294 294 295
317 315 317 315 322 322 317 316 315 316 318 319 319 317 318 319 319 321 323 326 326 326 327 327 327 327 326 326 325 326 326 319 317 313 309 306 301 298 298 302 297 298 296 295 295 294 294 295 295
317 317 314 314 314 317 317 316 311 314 316 316 315 315 315 319 320 322 323 327 327 327 327 327 327 326 325 326 325 324 323 318 315 313 309 305 300 298 301 298 299 297 297 296 295 294 294 294 294
315 316 315 316 317 313 313 315 313 310 310 312 313 315 315 317 320 320 321 323 324 325 324 324 325 325 323 321 319 317 316 315 312 311 309 302 300 300 300 299 298 297 296 295 295 295 294 293 293

GFSSGP_925_thetae_039.txt.gz
Theta_e
312 311 312 313 315 313 315 315 313 316 323 340 343 343 344 341 344 345 339 339 341 340 338 336 328 326 324 321 319 316 314 311 310 312 316 319 319 320 323 326 325 326 327 326 321 320 322 323 323
311 312 313 311 315 314 314 312 316 334 332 334 333 339 343 344 339 339 339 339 341 339 338 335 328 325 321 318 319 319 322 313 311 310 316 317 320 325 325 324 323 322 322 322 322 324 323 324 322
315 317 319 316 312 314 315 312 326 334 333 334 335 338 342 343 338 339 338 340 340 339 338 336 328 327 324 321 318 315 311 310 319 310 316 316 321 323 323 320 318 318 319 322 323 324 322 322 316
313 314 308 313 314 311 312 312 329 332 332 332 334 343 340 337 340 339 340 340 340 338 337 333 329 324 318 316 318 318 311 313 318 316 318 320 323 325 323 318 318 317 316 316 317 318 320 318 315
309 310 314 312 310 310 310 327 332 334 334 336 335 342 341 337 339 340 340 339 339 338 335 332 329 321 318 316 312 313 312 316 315 317 318 320 321 322 321 318 317 317 315 315 315 316 318 316 317
314 308 313 313 312 311 322 330 333 334 333 335 337 339 339 337 337 338 339 338 337 337 334 333 329 330 325 315 312 311 314 319 314 320 319 316 317 317 317 317 316 316 316 316 316 315 315 315 316
315 314 314 312 313 313 326 329 332 333 331 332 334 340 339 332 332 336 337 337 336 336 334 331 327 324 326 316 314 315 322 316 320 321 315 314 316 317 317 317 317 317 317 316 317 317 316 315 315
313 313 314 312 313 313 325 330 328 330 332 332 335 339 340 331 330 333 334 334 333 332 332 328 324 317 315 319 318 316 316 319 318 314 314 313 313 314 315 316 318 319 318 318 318 317 316 315 314
308 316 315 314 313 316 328 331 329 332 335 334 334 336 334 328 329 329 329 326 324 324 321 320 316 319 320 324 318 319 317 320 316 314 314 313 315 315 315 316 317 318 319 318 318 317 316 315 314
314 315 315 314 313 319 327 328 331 334 335 334 334 334 330 329 328 327 326 325 322 319 319 316 318 316 312 316 319 319 321 319 314 313 313 314 315 316 316 317 318 318 320 319 317 316 315 314 313
312 316 314 314 313 322 326 327 328 333 335 333 334 333 332 331 327 326 325 323 320 320 319 319 320 319 320 315 313 313 317 316 313 313 314 315 315 316 316 317 319 320 321 318 316 315 314 313 311
314 313 313 313 322 325 327 326 332 328 330 331 331 331 331 330 326 325 324 323 322 320 320 319 316 314 317 318 314 319 317 313 313 314 314 315 315 316 317 319 321 322 320 318 315 313 311 310 310
313 313 314 318 324 324 324 326 329 331 330 331 331 331 331 331 325 323 323 322 323 321 321 319 319 319 321 323 316 317 315 314 314 314 318 318 317 316 318 322 321 318 317 315 314 312 311 311 310
315 317 323 325 326 326 329 330 327 331 330 330 329 329 330 329 328 324 323 323 322 321 321 322 320 319 325 323 318 314 317 315 315 319 322 324 323 321 322 323 320 318 315 314 314 313 312 310 309
317 322 323 326 326 328 324 325 330 331 330 331 330 329 329 328 327 327 325 323 324 323 322 321 321 326 328 324 320 313 317 317 317 321 325 326 323 323 323 321 318 316 315 314 313 311 310 309 307
314 316 319 325 326 324 320 326 329 331 331 331 331 329 328 328 327 328 328 326 326 325 323 322 324 325 329 326 319 315 316 318 321 324 325 326 324 323 321 318 317 316 314 313 311 310 308 306 304
316 317 320 327 325 325 322 325 328 331 331 330 330 329 329 326 326 326 326 327 327 327 325 324 325 323 329 328 320 317 315 321 327 328 327 324 322 321 319 318 317 314 312 311 310 308 306 303 303
320 320 319 319 319 324 326 323 329 331 331 330 330 330 330 330 327 326 326 325 325 326 326 326 324 325 329 329 322 319 317 323 328 328 326 324 323 321 320 317 315 313 311 309 308 305 301 301 301
318 319 319 318 317 322 326 325 329 331 331 332 332 332 332 331 329 325 325 325 325 325 326 327 328 328 329 328 322 323 324 326 328 327 326 325 323 322 318 315 313 310 309 308 303 302 301 301 299
319 320 319 318 315 317 317 320 323 329 331 332 332 332 332 332 329 327 326 325 325 325 326 328 328 328 329 328 324 323 324 326 327 324 321 321 322 320 316 314 311 309 308 304 303 300 301 302 300
319 320 319 320 317 315 317 319 322 325 327 328 329 330 330 330 331 327 326 326 326 326 326 328 329 328 328 328 325 324 325 325 320 319 319 319 319 316 313 311 310 308 305 302 299 297 298 301 300
320 317 318 319 319 318 314 320 316 322 327 327 329 329 329 329 329 330 327 327 327 326 326 326 328 330 329 328 326 325 324 323 319 317 316 315 314 312 311 310 308 306 301 298 295 296 298 299 301
320 318 319 319 319 319 319 320 318 317 323 328 328 327 327 328 327 330 330 329 328 327 327 327 327 328 328 329 326 324 323 321 319 318 314 313 311 310 310 308 306 302 298 297 296 296 297 297 296
317 318 316 318 320 324 320 321 322 320 321 323 325 327 326 326 325 326 328 330 329 329 328 328 328 327 327 326 325 325 323 321 319 317 312 311 310 309 307 305 302 299 299 296 297 301 296 296 298
318 319 322 320 326 324 320 322 323 319 317 318 320 322 326 326 326 325 325 328 329 329 329 328 328 327 327 327 324 323 322 322 320 318 314 310 308 306 304 301 298 299 299 301 303 294 294 295 298
319 320 324 321 323 320 319 323 320 319 317 318 318 317 316 323 325 325 324 325 328 329 329 328 328 327 329 327 327 324 322 322 320 320 317 312 309 306 302 298 298 302 304 300 297 294 294 294 294
319 320 317 322 320 325 320 319 317 317 319 320 320 319 317 318 321 323 323 323 325 327 327 328 328 328 328 324 325 323 323 321 321 320 317 312 309 307 301 298 300 304 300 297 294 294 294 294 294
319 317 322 321 325 325 320 319 318 318 319 318 320 321 320 320 318 320 322 322 323 326 327 327 327 327 328 325 323 322 322 322 321 320 317 310 308 305 300 298 301 299 298 295 295 295 294 293 293
319 320 317 318 319 323 322 320 317 318 317 319 318 317 320 320 323 322 323 325 325 325 326 326 327 327 326 324 323 324 324 322 321 318 316 311 307 304 300 298 299 299 296 295 295 295 295 294 294
317 320 320 325 320 318 319 320 315 316 314 313 315 315 318 318 321 323 325 326 327 327 326 326 325 325 323 326 325 324 323 323 321 317 314 310 306 302 299 300 300 299 296 296 296 295 297 294 294

GFSSGP_925_thetae_042.txt.gz
Theta_e
317 315 314 317 318 317 318 318 318 320 325 337 340 343 342 344 346 347 342 342 344 340 335 336 340 341 340 337 337 332 329 326 317 315 314 313 315 320 321 321 325 325 327 330 331 333 332 321 316
314 313 316 317 315 317 317 318 318 327 329 339 339 343 343 346 340 340 341 341 342 340 336 334 332 335 336 334 331 328 324 316 314 313 316 316 321 321 321 321 323 328 331 332 332 332 326 316 316
317 316 319 317 316 316 317 317 322 327 332 334 339 342 342 345 339 339 340 342 342 340 337 335 331 329 329 327 324 321 316 316 315 318 321 321 322 320 320 322 327 332 334 335 330 325 318 316 316
316 318 316 315 315 315 316 317 323 326 332 334 336 341 341 339 341 339 341 342 341 339 337 335 329 326 321 318 319 321 323 318 319 323 321 322 321 320 320 322 324 326 327 326 323 321 315 316 315
315 317 317 316 315 315 315 316 326 330 334 336 337 343 343 339 341 342 342 341 340 338 337 334 330 324 323 326 327 324 320 318 319 324 325 322 320 319 319 319 317 318 318 319 320 316 316 316 314
318 316 316 315 314 315 316 323 328 335 335 337 339 341 342 335 338 339 342 340 338 337 336 334 331 329 330 329 325 321 321 316 322 324 323 320 320 319 318 317 315 315 316 317 317 316 317 315 314
317 316 316 315 315 319 326 331 334 335 335 335 337 340 340 336 332 335 338 338 337 336 334 331 329 328 328 328 324 318 321 321 322 321 321 319 319 317 317 316 316 316 316 316 316 316 316 314 314
317 317 316 316 320 321 324 331 332 333 334 334 336 338 341 333 331 332 335 335 335 334 331 329 326 324 325 325 321 320 320 321 317 317 319 318 317 317 316 317 316 316 316 316 316 316 315 314 314
316 318 317 317 318 318 326 325 332 333 335 335 336 338 337 330 333 329 328 327 326 328 327 324 320 314 315 321 328 323 321 319 316 316 317 318 321 321 321 321 318 318 317 317 317 316 315 314 314
318 318 317 318 318 318 321 326 331 335 335 336 337 333 331 332 333 329 326 321 320 321 320 320 317 318 320 325 326 328 326 323 319 314 318 321 322 321 321 320 319 318 318 317 316 315 314 317 317
318 319 319 319 317 317 321 329 331 332 333 334 336 333 331 331 331 329 327 325 318 317 316 317 314 314 316 321 324 327 326 321 320 320 322 324 323 322 322 321 322 321 319 318 317 316 317 316 315
318 319 319 318 320 322 327 328 331 332 335 333 334 332 331 329 329 328 324 321 319 318 319 314 313 312 315 315 316 317 317 319 321 322 323 323 322 322 322 323 325 322 321 319 318 317 316 315 314
318 319 320 322 322 328 328 329 330 335 333 332 333 332 330 328 327 325 323 321 321 321 320 318 319 317 312 312 315 320 322 321 321 322 322 322 321 322 323 323 323 321 320 318 317 316 315 314 313
320 320 327 325 326 327 329 331 331 335 333 332 332 331 329 326 325 325 324 323 319 319 317 317 316 315 317 320 319 319 320 320 323 321 323 324 322 323 325 324 322 320 319 318 317 316 316 314 312
320 322 326 327 328 330 328 329 334 334 331 331 330 332 329 325 325 324 325 324 321 318 317 317 320 322 322 324 322 319 321 321 321 321 327 326 326 325 325 323 321 319 318 317 317 315 314 312 310
320 320 321 323 328 328 328 328 334 332 331 331 331 328 331 328 326 325 325 324 322 322 323 323 321 323 326 327 324 319 322 321 321 325 328 328 327 326 324 322 320 318 318 317 317 315 313 312 309
321 320 320 322 328 328 328 326 330 332 330 329 329 328 329 330 327 328 325 324 324 324 324 324 324 324 329 328 324 323 322 322 323 327 328 327 325 324 323 321 320 318 318 317 315 313 312 309 307
319 320 322 322 325 328 328 327 330 332 330 328 329 327 327 330 330 330 329 326 326 326 325 324 325 328 329 329 326 322 320 322 327 329 329 327 325 322 322 321 319 318 316 315 313 311 308 307 305
321 320 321 321 321 322 323 325 326 331 332 330 328 329 330 328 326 329 330 330 328 328 326 326 327 328 329 330 327 323 321 324 328 329 330 327 326 323 322 321 318 316 315 314 312 309 308 307 304
322 321 321 322 320 320 321 321 324 329 332 331 330 330 330 329 329 326 329 329 329 328 329 328 327 328 330 330 329 323 324 323 325 327 329 328 326 322 321 319 317 315 314 312 310 308 307 305 304
322 322 322 322 322 320 320 321 323 327 331 332 332 330 330 330 330 330 326 327 328 328 328 328 328 330 330 329 328 325 326 328 328 327 326 325 323 321 319 317 316 314 312 311 309 307 304 307 306
322 321 321 323 323 322 320 322 322 324 329 331 331 332 329 330 331 330 329 327 326 327 327 327 329 330 330 330 329 327 325 325 326 326 324 323 321 319 317 316 314 313 311 309 307 304 305 304 305
321 321 322 322 323 323 322 321 322 322 322 326 329 331 331 328 330 331 330 328 327 327 327 328 328 331 330 330 329 329 328 327 327 326 322 320 318 317 315 314 312 311 309 307 304 304 304 303 302
321 322 322 324 324 324 322 322 322 321 320 321 324 327 330 331 330 330 329 330 330 329 328 328 329 329 331 331 330 330 330 330 327 323 320 318 316 314 312 311 310 309 306 305 304 305 304 305 300
322 323 325 324 325 325 323 323 322 321 322 322 323 323 326 329 331 331 331 331 331 331 331 331 330 329 330 330 327 328 329 329 325 323 320 317 315 312 310 308 307 306 304 304 304 305 301 297 302
322 323 325 323 324 323 322 322 322 322 322 322 323 324 323 324 328 330 331 330 330 332 333 333 332 330 330 328 326 327 326 326 323 324 320 317 312 311 308 306 305 304 303 303 305 300 295 300 300
323 323 322 324 325 324 321 320 320 320 320 321 323 324 325 323 323 326 328 329 330 331 333 334 333 331 331 328 326 322 324 324 324 323 320 315 312 310 307 305 303 302 302 304 300 297 298 298 300
322 322 323 323 324 323 322 321 319 319 319 320 320 322 325 325 323 324 325 326 327 329 331 333 333 332 332 329 326 324 326 325 323 322 319 316 311 309 306 304 303 302 302 300 297 296 298 299 300
323 323 322 322 323 324 323 321 319 320 319 322 320 321 323 325 326 326 326 326 327 327 329 331 331 331 331 331 329 326 325 325 323 322 319 315 312 310 305 303 303 302 299 297 297 298 298 299 299
320 321 323 324 322 323 326 323 319 320 321 320 320 320 322 324 325 327 328 328 329 329 329 329 329 330 330 331 330 328 325 323 320 317 316 312 309 308 304 304 303 300 299 298 297 297 297 299 299

GFSSGP_925_thetae_045.txt.gz
Theta_e
316 319 318 317 318 318 318 319 320 322 323 329 334 334 336 337 338 342 340 345 344 340 339 342 343 342 341 339 337 337 334 329 327 323 320 320 317 316 323 327 330 332 334 335 331 329 327 319 314
319 316 316 319 318 317 319 318 319 320 328 329 335 337 336 342 343 343 343 344 342 339 338 343 342 342 341 339 338 337 330 327 319 315 317 317 316 321 324 326 329 332 333 333 331 328 319 315 314
318 317 320 320 319 317 317 319 319 325 327 327 330 336 339 344 341 343 341 344 339 337 337 341 341 340 340 339 337 331 327 317 314 317 317 321 320 322 326 329 332 333 333 334 331 320 316 315 314
318 319 319 316 316 318 317 319 319 322 324 327 328 336 342 341 343 341 343 341 337 336 335 337 340 339 339 335 331 328 318 314 318 320 320 324 323 325 329 333 334 334 333 334 325 316 316 314 314
316 318 318 319 317 317 317 318 318 323 326 331 332 334 342 342 342 344 344 344 341 337 336 335 337 336 333 330 327 321 315 319 324 324 325 323 323 324 327 330 332 330 328 323 316 316 315 314 313
319 318 318 318 317 316 317 318 322 324 330 334 335 334 347 340 341 340 344 342 341 338 337 335 333 331 329 327 325 319 323 325 327 324 323 323 322 321 321 322 322 322 321 316 316 316 314 314 313
318 319 318 317 317 320 325 330 332 331 331 334 337 337 343 339 332 338 341 340 338 337 335 333 330 331 330 328 328 325 327 329 326 325 322 320 320 318 316 316 316 318 318 316 316 315 314 315 314
317 318 318 317 322 323 324 325 331 332 334 335 335 338 341 338 331 335 338 337 336 335 332 331 330 328 329 327 324 324 328 327 325 321 319 319 318 316 315 315 316 316 316 316 316 315 315 315 315
318 319 318 318 320 320 322 325 329 332 333 335 337 340 339 334 330 330 330 331 330 330 330 326 324 327 326 323 323 326 328 322 320 320 318 318 317 319 321 320 316 316 316 317 316 315 315 315 314
319 320 319 319 320 320 322 326 331 333 331 334 340 337 334 334 333 331 326 323 323 325 325 325 325 324 323 322 326 327 328 324 323 320 320 321 321 323 323 318 317 317 317 317 316 316 317 319 318
320 320 320 320 320 320 322 325 330 332 334 328 337 336 334 334 331 331 327 324 321 321 321 320 318 314 313 312 316 325 325 323 322 319 322 322 323 322 323 322 321 320 317 318 317 317 319 320 318
320 320 320 320 320 322 327 324 328 330 335 335 337 332 331 331 329 327 324 320 318 318 318 319 319 319 321 322 322 324 325 323 321 321 324 324 324 323 323 323 324 323 323 321 321 321 320 319 318
320 321 322 323 323 327 328 330 331 336 334 335 333 331 331 330 328 325 321 320 318 316 315 315 316 317 317 316 316 321 321 318 317 320 324 324 323 323 324 325 326 325 324 323 321 320 319 318 317
321 321 325 324 326 327 328 330 331 335 333 333 333 331 329 328 327 324 321 320 321 315 314 313 315 317 316 316 316 319 317 318 322 323 324 323 323 324 324 325 325 324 323 322 321 320 319 318 315
320 321 325 323 325 326 328 326 330 333 330 329 331 332 330 328 326 325 323 321 319 318 317 317 313 313 313 313 315 316 319 322 323 322 323 325 324 324 326 326 325 324 323 322 321 320 319 316 314
320 321 324 323 326 328 327 328 331 331 330 330 327 332 331 329 327 327 324 321 319 317 315 315 313 312 317 318 318 318 320 321 320 322 325 327 326 326 327 326 325 324 323 322 321 320 319 315 313
320 322 324 323 324 328 327 329 332 330 329 330 327 330 331 328 327 325 325 322 321 319 317 318 318 319 321 321 323 321 320 322 320 321 325 328 329 329 328 326 325 323 322 322 321 319 317 314 311
320 320 321 325 327 325 325 327 330 331 328 329 327 328 330 326 328 327 325 322 321 322 321 320 322 323 325 327 325 323 320 322 321 322 325 328 329 328 327 326 325 323 322 321 320 318 315 312 310
320 321 322 323 322 321 323 323 325 331 331 327 329 327 329 329 326 328 326 324 324 324 325 325 324 323 327 328 325 322 321 321 322 325 326 328 328 327 326 325 325 323 322 321 318 316 313 311 309
320 320 320 321 321 321 322 323 322 329 330 329 327 329 326 327 330 329 329 327 327 326 326 325 325 325 328 328 328 324 322 320 322 325 328 329 329 328 326 326 324 323 321 319 317 314 312 311 309
321 322 323 321 323 322 322 322 322 325 329 329 328 327 328 327 327 329 329 329 327 327 326 326 326 328 328 328 328 327 323 322 322 325 327 329 328 328 326 326 323 322 320 318 316 314 312 310 310
322 321 321 322 322 323 324 324 325 324 327 330 329 328 328 328 328 327 327 329 329 328 328 328 328 328 328 328 329 327 324 325 327 327 328 328 328 328 326 324 322 320 319 317 315 313 311 310 311
322 322 322 323 324 324 323 321 325 322 324 326 329 329 328 327 328 329 327 325 328 329 329 329 329 329 329 330 329 329 327 326 327 327 328 328 327 326 324 322 321 319 318 316 314 310 309 309 309
322 323 323 324 324 327 323 323 325 322 320 320 325 328 328 327 328 328 328 326 325 326 328 330 329 329 329 330 330 330 329 329 328 328 328 327 326 324 322 320 319 317 315 313 312 308 308 307 307
322 324 326 326 327 327 325 323 323 325 321 321 322 323 327 328 328 328 328 329 328 327 327 329 329 328 329 330 331 330 331 331 327 329 329 325 324 322 321 319 316 315 312 310 309 306 308 306 303
323 324 327 333 327 325 325 322 322 322 322 322 322 324 324 327 329 329 328 328 329 330 330 330 330 330 329 331 332 328 331 329 327 324 327 323 322 320 318 316 313 311 309 307 305 306 305 300 301
323 324 324 327 325 325 324 322 321 320 320 320 322 324 326 326 326 328 329 328 329 330 332 333 333 332 331 332 331 329 329 329 328 327 326 323 321 319 316 313 310 308 306 305 306 304 300 301 300
323 324 325 325 327 329 322 322 321 321 320 319 320 322 324 326 325 325 327 328 329 330 332 335 335 334 333 331 331 329 329 328 327 326 325 323 320 316 311 310 309 306 305 305 303 300 299 298 299
323 325 324 324 325 328 327 323 322 320 320 320 321 320 321 322 327 326 326 326 327 329 331 333 336 336 334 333 331 330 327 327 325 325 324 322 319 313 309 309 306 305 305 303 300 298 298 300 300
322 323 324 326 325 325 326 325 322 321 321 321 321 321 321 322 324 327 328 328 329 329 330 332 334 334 334 334 332 331 328 327 325 324 323 321 317 314 311 307 305 305 304 301 298 299 299 300 300

GFSSGP_925_thetae_048.txt.gz
Theta_e
315 317 321 321 318 318 318 317 319 318 323 328 332 333 332 331 333 344 330 331 331 333 342 344 344 339 339 337 336 334 332 328 326 324 322 321 320 323 331 333 334 335 330 330 329 328 321 314 318
320 323 319 318 318 319 317 318 318 323 329 328 326 329 331 331 334 342 339 326 327 338 342 343 343 341 339 339 337 335 330 327 325 322 320 317 321 327 330 332 334 332 330 330 329 324 313 314 319
315 319 318 319 320 318 318 319 320 321 326 328 328 325 332 336 326 343 343 339 339 340 341 340 342 341 339 339 338 333 329 326 321 318 316 318 324 327 329 331 331 332 331 329 327 316 313 315 320
320 319 319 318 316 317 317 319 320 320 322 325 327 325 343 343 341 342 344 339 339 339 339 339 340 340 339 338 336 330 327 320 317 317 317 323 326 327 328 329 331 331 331 328 317 314 313 313 318
318 318 319 319 319 319 318 318 319 318 321 327 326 330 343 340 342 343 344 338 337 339 338 338 330 338 338 337 332 327 321 319 318 323 322 324 328 331 331 332 332 331 325 318 315 314 313 311 312
319 320 319 318 319 319 327 324 328 322 322 329 329 330 325 330 338 342 343 340 337 338 336 339 338 338 337 333 329 322 321 321 322 323 323 326 331 333 333 332 330 327 316 316 314 314 313 312 312
318 319 319 319 321 323 326 325 325 330 334 333 328 332 322 329 332 340 341 339 337 338 337 337 336 335 333 331 327 323 321 322 326 325 324 324 327 328 329 327 323 318 316 316 314 315 315 315 314
318 317 318 318 319 322 322 324 326 327 333 329 326 338 338 334 333 337 337 337 336 336 335 333 332 330 329 328 329 329 329 328 326 323 322 320 319 319 319 320 320 316 316 316 315 316 316 316 315
318 318 319 320 321 321 321 322 325 325 330 330 328 335 335 331 331 329 331 331 331 331 330 328 327 324 323 320 325 326 327 326 325 322 320 317 315 316 317 318 317 316 316 316 316 316 316 317 314
318 319 321 320 320 320 320 322 330 328 332 327 324 327 333 332 332 327 326 327 327 328 328 326 324 321 317 315 318 320 324 326 323 320 318 317 317 323 318 316 316 316 317 316 316 317 317 318 317
319 319 320 320 320 320 320 323 324 329 334 327 328 333 332 331 332 329 324 322 324 322 325 324 320 318 318 318 317 318 318 325 322 319 321 321 323 323 317 316 316 317 316 316 316 318 319 320 318
319 319 320 320 321 321 321 326 328 334 339 330 332 333 331 331 330 325 322 321 321 321 320 321 319 318 320 321 319 318 324 322 320 323 324 324 322 322 319 320 322 318 319 318 319 319 321 319 318
319 319 320 323 323 322 324 327 328 336 336 334 331 331 331 328 325 323 320 317 318 318 319 318 319 315 315 313 315 319 323 321 321 324 322 324 323 324 323 323 324 323 322 321 322 321 320 319 317
319 321 320 324 323 325 325 326 326 334 332 333 332 331 329 327 324 321 319 318 317 316 317 316 317 313 312 318 320 319 319 316 319 318 321 324 323 323 324 326 326 325 325 324 322 320 320 319 316
320 319 320 324 325 325 325 325 327 324 330 333 332 330 329 326 324 322 321 318 317 315 317 318 318 317 318 316 314 317 319 318 319 321 324 323 324 323 325 325 326 325 324 323 322 321 320 318 315
320 319 320 323 326 327 325 329 324 325 328 328 333 332 329 325 326 323 319 316 315 315 316 315 316 316 315 315 317 317 318 319 322 321 323 323 324 324 324 326 326 324 323 322 322 321 320 318 314
320 320 322 323 324 326 331 330 327 326 329 327 332 330 330 328 327 324 321 318 317 316 316 315 316 315 314 316 314 314 315 316 314 315 323 324 323 327 325 327 326 324 323 323 322 321 320 317 314
320 321 321 325 325 323 326 332 330 333 328 327 328 329 328 326 326 325 322 320 319 318 317 315 314 314 315 316 313 314 319 321 322 322 323 326 327 327 328 327 326 324 323 323 322 321 319 316 314
318 319 323 324 324 326 322 324 329 327 328 328 327 329 328 328 326 325 323 322 321 317 317 315 314 316 318 320 319 322 321 322 322 322 321 326 327 328 329 327 326 324 324 323 322 319 317 313 311
319 319 321 321 324 321 319 322 329 329 331 327 327 329 327 328 329 326 322 322 322 320 319 321 320 319 321 321 322 325 323 321 323 323 323 328 327 328 328 327 326 325 324 323 321 319 315 313 311
319 320 322 324 323 323 322 321 325 329 327 327 328 327 328 327 328 328 325 324 324 324 323 323 324 323 324 326 326 327 323 321 320 322 326 327 328 328 328 327 327 325 324 322 320 318 315 313 310
320 320 321 322 322 321 323 324 323 323 328 327 327 328 328 327 329 329 329 327 326 326 326 326 326 325 324 327 328 328 325 324 322 322 327 327 326 328 328 327 326 324 323 322 319 317 314 313 312
321 323 323 322 322 323 324 326 323 323 325 328 328 328 328 328 327 330 329 330 328 328 328 327 326 326 327 327 329 328 327 323 323 322 324 326 328 327 327 327 325 324 322 320 319 316 314 312 311
321 322 323 323 324 327 324 324 326 325 326 324 328 329 328 328 327 327 328 329 329 329 329 328 328 327 329 328 326 329 328 326 326 328 328 328 328 327 327 326 324 322 321 319 318 315 311 310 310
321 323 327 328 329 330 324 324 326 324 324 324 327 328 328 328 327 328 327 326 329 330 330 330 331 330 330 330 329 329 330 329 327 328 328 327 323 325 325 324 323 321 320 319 315 313 309 309 307
322 323 330 335 335 333 328 325 323 323 323 322 322 323 327 328 328 328 328 327 326 327 331 331 331 330 330 330 331 330 324 330 329 328 329 327 323 320 324 323 321 320 318 315 311 310 308 308 307
323 324 324 331 328 333 329 326 324 323 320 320 322 323 325 325 329 328 328 329 329 328 328 330 331 331 330 330 331 330 326 325 329 331 329 326 324 321 323 321 320 317 316 313 309 307 306 306 301
322 323 326 326 331 332 324 322 323 322 320 319 320 323 325 326 326 327 328 328 329 330 329 329 330 330 330 330 332 331 326 323 329 329 328 326 326 323 322 320 318 316 313 309 306 306 306 301 301
322 324 326 327 326 332 332 326 325 324 321 321 322 322 322 324 327 326 327 327 329 330 331 332 332 332 332 332 333 332 330 327 329 329 327 325 325 322 320 318 315 312 309 306 305 305 302 299 300
323 324 326 329 328 331 337 329 324 323 322 322 322 322 322 322 324 328 328 328 327 328 331 336 336 335 335 333 333 332 331 330 327 326 325 325 323 320 318 315 310 307 306 305 305 302 300 300 300

GFSSGP_925_thetae_051.txt.gz
Theta_e
314 315 317 319 317 311 312 314 315 315 318 328 331 331 330 328 332 345 332 336 333 330 332 339 340 339 338 335 332 330 330 327 324 322 322 322 329 333 334 331 328 329 329 327 323 322 320 320 321
315 320 321 315 313 312 314 314 316 324 327 329 329 329 329 333 333 336 331 327 330 327 332 327 340 338 338 335 333 330 328 325 322 321 320 323 330 333 334 329 325 327 327 325 321 317 320 320 321
315 315 313 312 312 315 315 315 316 325 324 327 326 328 337 332 328 336 342 329 328 328 329 337 339 337 338 337 333 330 327 324 321 319 319 326 330 333 333 325 325 327 327 324 315 318 320 320 321
318 315 313 314 315 315 315 320 322 320 319 325 325 342 338 329 330 325 341 327 334 338 338 338 337 338 338 337 333 329 326 321 318 318 322 328 328 330 330 327 326 326 323 315 313 315 319 319 317
319 313 312 315 316 317 323 322 325 328 324 331 326 329 337 328 329 337 338 339 340 342 340 340 339 338 338 337 333 328 322 319 318 320 323 326 328 328 330 330 325 321 314 313 312 312 316 317 317
313 312 314 316 316 323 324 322 321 322 331 328 330 329 324 325 334 337 338 339 339 340 339 338 336 333 330 334 330 323 321 322 321 323 325 327 328 329 330 330 320 316 314 314 313 312 311 315 318
314 312 313 313 315 320 323 323 321 323 331 328 328 333 325 324 333 336 338 337 337 338 337 334 335 334 333 333 327 325 323 322 323 326 327 328 330 330 329 327 317 316 314 314 315 315 313 313 318
313 311 312 313 316 321 321 322 323 327 328 329 328 333 336 329 332 336 337 337 337 337 336 336 335 333 330 326 323 326 326 323 322 325 329 331 332 330 327 322 316 315 315 315 317 316 314 317 317
314 311 312 314 319 320 320 325 327 325 327 328 325 327 330 330 330 332 332 335 332 332 333 333 331 327 326 323 322 329 328 325 324 324 326 329 330 329 324 318 316 316 315 316 317 317 314 315 315
313 311 313 316 318 317 317 317 328 328 326 327 326 326 332 330 328 329 331 330 329 329 328 328 326 323 321 320 317 324 328 325 323 320 320 320 320 321 321 316 316 316 316 316 317 317 315 316 316
313 312 315 317 318 318 317 325 329 330 333 327 330 330 332 330 327 325 324 326 326 327 327 326 323 320 318 326 328 326 325 322 321 317 317 321 318 318 317 316 316 316 316 317 317 317 318 319 316
315 316 316 316 320 319 325 326 329 332 333 331 333 332 331 329 326 325 323 323 322 323 324 322 321 321 323 320 318 318 321 320 319 324 320 323 321 317 316 316 317 317 317 318 317 318 320 318 317
317 317 319 317 322 321 324 325 328 323 330 330 331 331 329 326 324 322 320 320 321 319 320 319 319 319 316 311 312 317 322 320 322 324 322 323 323 319 317 317 318 318 319 319 319 321 319 318 315
317 317 316 317 321 324 324 325 325 325 329 331 330 330 327 324 322 320 318 317 319 319 319 319 318 317 318 320 320 320 321 321 322 323 323 323 323 322 320 322 322 321 321 321 321 320 319 318 315
319 318 316 315 321 323 324 326 326 327 325 333 331 328 327 324 322 320 318 317 318 318 318 318 318 319 318 314 313 313 315 320 321 319 321 324 323 323 325 323 324 324 324 323 322 321 320 318 315
317 317 316 316 322 325 325 330 325 324 324 331 329 329 326 324 322 320 318 317 317 317 315 315 314 315 314 313 315 317 319 317 316 316 320 323 323 324 324 325 325 324 324 323 322 320 320 318 315
317 317 317 317 325 326 328 330 325 326 328 331 331 329 325 325 322 318 317 316 317 317 316 314 313 313 313 316 317 316 317 317 314 319 322 322 323 325 323 325 325 324 324 323 322 321 320 319 316
318 319 316 323 322 326 327 327 325 327 329 327 328 328 327 327 323 318 317 315 316 317 316 316 315 314 316 318 316 314 314 318 317 318 315 321 319 322 326 325 326 326 324 323 322 321 320 319 315
318 318 316 318 322 322 326 328 324 326 328 326 327 328 327 324 323 320 318 316 316 316 316 317 316 316 315 315 315 315 317 317 317 314 316 318 321 322 325 326 326 326 324 323 322 322 320 318 314
321 318 316 323 324 323 324 328 325 327 328 326 327 326 325 325 323 322 320 318 317 317 316 315 315 315 315 318 313 313 315 318 322 320 322 322 323 324 326 325 326 326 324 323 323 322 319 317 312
319 318 317 323 322 320 320 328 328 326 330 329 327 326 325 326 325 323 320 319 317 317 316 314 314 315 314 319 318 315 316 322 321 322 321 322 321 325 325 326 326 326 325 324 323 322 320 316 313
317 317 321 323 321 319 319 319 329 330 331 330 327 326 325 327 325 323 322 320 319 317 318 315 314 314 316 317 319 318 321 323 322 321 322 322 324 327 326 326 326 326 325 324 323 321 319 316 312
318 321 323 323 321 320 321 321 321 329 330 329 327 327 324 328 325 324 321 321 321 319 318 319 317 316 317 318 318 321 324 325 322 321 319 322 326 325 325 325 324 326 326 324 322 320 319 316 314
320 322 322 322 321 323 322 322 324 324 323 327 326 325 325 324 327 325 323 322 322 322 321 321 321 321 321 321 323 326 327 327 323 323 321 323 325 326 325 323 325 326 325 323 322 319 318 316 313
319 320 323 328 324 324 325 325 323 322 322 324 325 325 325 325 326 326 326 325 324 324 324 324 324 324 324 323 323 326 328 327 326 324 324 322 325 326 324 321 325 326 324 322 320 319 317 315 311
320 319 325 331 329 331 327 327 322 321 321 320 320 325 324 325 326 327 327 327 327 326 326 326 326 325 325 325 325 327 328 327 327 322 328 326 326 326 323 324 325 325 323 322 320 317 314 311 309
320 321 321 330 329 330 328 325 322 322 319 319 319 318 323 323 324 325 326 327 327 328 327 327 327 326 327 327 328 327 326 327 328 327 328 327 327 326 322 319 320 324 322 320 319 314 312 309 308
319 320 322 327 332 336 327 327 324 322 320 317 318 319 321 319 323 324 324 325 326 328 328 328 329 329 329 329 329 329 328 328 328 330 328 329 327 324 323 319 319 323 321 318 316 314 309 308 307
320 320 322 324 326 325 325 324 322 321 322 318 315 317 319 321 319 321 323 325 324 324 327 329 329 329 329 328 329 330 330 329 328 323 328 328 327 325 325 324 322 321 318 316 314 309 307 306 303
320 320 322 326 328 327 321 324 321 318 319 318 317 317 316 320 320 321 321 323 325 326 326 328 329 330 329 330 329 330 330 329 325 325 328 328 326 325 324 322 320 318 315 312 309 306 305 303 301

GFSSGP_925_thetae_054.txt.gz
Theta_e
314 316 321 318 314 309 312 312 313 313 314 324 330 328 327 330 340 342 336 337 334 340 338 332 336 338 335 331 330 328 324 321 321 322 325 331 328 324 322 325 327 326 327 329 329 329 328 328 328
315 319 320 313 311 311 311 311 314 315 316 327 328 328 332 334 329 332 334 336 333 334 339 338 331 333 337 332 331 329 325 323 321 323 330 333 329 323 323 323 323 321 325 328 328 328 324 321 325
314 316 313 312 308 311 312 313 315 320 326 326 327 338 335 334 328 329 335 338 334 333 339 339 337 334 334 334 332 329 325 323 322 328 334 333 329 323 323 322 319 318 323 327 327 321 319 317 321
318 313 310 313 313 312 314 314 317 325 326 327 326 336 336 330 332 334 334 329 328 334 333 335 327 327 333 334 331 326 324 324 326 333 333 334 328 322 322 319 315 315 321 322 320 319 317 320 321
319 309 311 312 313 313 315 320 320 331 329 328 327 327 334 329 333 335 336 333 332 331 331 331 332 335 335 335 335 327 325 325 329 332 333 333 325 322 320 316 314 313 314 319 319 317 317 320 321
312 309 313 314 314 314 316 322 326 329 326 327 328 328 324 328 330 334 336 335 336 336 335 336 335 333 335 334 329 330 323 324 328 329 333 332 325 322 320 316 314 313 311 313 315 315 317 318 321
312 311 312 312 314 313 320 320 325 330 329 329 328 333 326 324 328 335 337 337 335 335 337 336 335 336 333 331 328 323 329 328 329 330 330 328 328 323 320 315 314 313 312 312 312 313 318 316 316
309 310 313 311 313 315 318 322 325 327 331 328 327 332 336 330 333 335 335 333 336 335 335 334 330 331 332 330 324 319 327 328 329 330 329 329 329 326 318 315 314 314 316 315 313 315 317 316 315
311 312 311 312 315 318 321 326 324 325 329 328 326 328 328 330 332 333 329 331 332 334 333 333 331 332 328 325 321 316 324 326 329 330 329 330 330 327 317 315 315 315 317 316 314 316 316 315 314
310 309 312 312 315 320 328 326 327 329 329 327 326 327 331 329 330 331 330 328 329 329 330 329 328 325 325 319 321 321 323 326 331 333 331 330 328 324 316 316 315 315 317 317 314 315 315 315 314
310 312 313 313 314 318 325 327 329 326 327 331 333 330 332 328 326 327 329 329 328 328 327 326 325 325 323 319 315 327 325 328 330 332 331 328 326 320 316 316 316 317 316 317 316 316 318 316 314
313 312 313 313 317 322 325 325 330 330 333 333 332 332 329 328 328 325 325 326 327 326 325 324 323 323 323 325 330 327 325 323 323 323 324 323 322 317 316 317 316 318 318 317 317 319 318 316 314
315 315 316 316 322 322 324 326 327 331 331 330 331 330 329 327 325 322 322 323 323 324 323 323 323 328 326 330 328 325 322 318 318 320 317 317 316 316 316 317 318 318 317 317 318 320 318 317 314
316 317 316 315 322 323 323 325 324 324 330 330 330 329 326 324 323 321 320 320 321 322 322 321 322 325 328 327 326 322 320 321 319 322 320 319 317 317 317 317 318 318 318 318 319 320 319 317 314
317 316 315 315 320 323 322 325 326 328 330 331 329 327 326 324 322 321 319 319 319 320 320 321 321 318 319 319 323 323 320 323 321 322 322 320 320 318 317 317 318 319 320 320 320 321 319 318 316
317 315 316 315 323 323 323 325 323 327 331 331 329 327 325 322 322 320 318 318 318 319 318 318 318 316 314 316 322 321 321 324 323 324 324 324 323 323 322 322 323 322 321 321 321 320 319 319 316
315 316 317 317 318 325 324 325 325 322 326 331 329 327 324 323 321 320 318 317 318 318 318 317 317 317 317 316 320 319 320 321 322 319 319 323 324 324 324 325 324 325 324 323 322 320 320 319 316
316 316 315 314 323 325 327 325 323 327 331 331 328 325 324 323 321 318 318 317 318 316 316 316 317 316 316 314 314 314 317 318 319 317 317 322 323 323 324 324 325 324 324 323 322 321 320 319 319
316 317 317 316 318 326 325 324 323 324 326 330 329 325 324 324 321 318 317 316 317 317 315 316 316 315 315 315 316 316 318 317 318 316 317 318 319 321 323 324 324 324 324 323 322 321 321 320 319
318 318 319 316 321 320 323 325 324 323 326 324 327 327 326 325 321 318 317 315 317 316 315 315 315 314 315 316 316 316 314 316 315 316 316 316 313 314 316 320 324 324 324 324 323 322 321 320 316
319 320 317 317 321 320 323 324 328 326 326 326 327 327 325 325 323 320 318 315 316 315 316 315 315 314 316 318 316 315 314 316 316 317 318 315 317 319 320 323 323 325 325 325 323 322 322 320 315
320 319 316 320 319 318 316 319 325 326 325 328 328 325 324 324 322 321 319 316 316 316 315 316 316 314 315 316 316 313 314 315 317 320 321 320 320 321 321 323 324 324 324 326 325 323 322 321 316
320 319 318 321 320 319 319 319 317 326 327 328 328 326 324 324 323 321 320 318 317 317 315 315 316 315 315 315 318 315 314 315 317 321 323 320 320 320 322 323 325 325 323 324 325 323 322 321 319
319 321 320 319 319 322 321 319 320 329 328 328 326 326 325 325 323 322 320 319 318 317 316 314 314 315 315 314 317 318 316 316 319 322 323 322 320 321 323 324 325 325 324 324 325 323 322 320 317
319 317 321 323 323 323 322 324 321 323 325 328 326 325 324 326 324 323 321 320 319 317 316 316 314 314 314 314 316 317 317 316 319 321 322 322 320 321 325 325 325 323 321 323 322 324 322 319 317
318 318 321 326 327 327 325 326 321 320 319 325 325 324 324 323 326 324 321 321 320 319 317 317 317 315 314 314 315 315 316 318 321 324 324 323 321 320 322 325 325 323 322 324 324 322 320 318 315
320 320 319 326 327 326 325 324 320 320 320 318 323 323 323 323 324 325 323 321 321 321 320 319 319 318 318 318 318 319 320 321 324 326 325 325 324 322 323 324 325 322 325 324 322 321 319 316 313
318 319 322 325 329 329 328 327 322 321 318 316 316 321 322 323 323 324 325 324 323 322 322 322 321 321 321 322 322 322 322 322 324 326 327 326 324 325 322 324 323 324 322 323 321 319 315 312 310
319 319 321 323 324 325 325 323 319 319 320 316 313 316 318 321 323 323 325 325 326 325 324 324 324 324 324 324 324 324 324 324 325 325 326 327 326 326 325 325 321 319 321 321 319 317 313 311 308
317 319 320 324 326 323 319 323 318 317 317 317 316 315 316 319 321 322 322 325 326 326 326 326 326 325 325 325 326 325 326 326 326 326 327 327 325 326 325 324 322 320 320 318 316 313 312 308 306

GFSSGP_925_thetae_057.txt.gz
Theta_e
314 317 320 315 311 309 314 312 311 312 313 317 327 327 327 331 342 336 335 338 343 341 340 335 329 329 332 333 330 325 324 324 334 334 329 327 328 328 328 326 329 331 331 331 331 331 331 330 329
315 320 318 308 311 310 310 310 312 312 319 327 326 328 331 334 329 333 335 337 342 340 335 330 327 328 328 328 333 327 329 334 334 333 332 331 328 326 324 325 329 331 330 330 330 329 329 328 327
314 316 311 311 306 311 311 311 312 313 325 325 328 335 334 330 328 332 334 337 339 339 335 331 330 326 325 326 330 328 328 332 334 332 332 331 326 324 322 325 329 330 330 329 327 325 323 324 323
317 311 308 313 313 311 312 313 312 325 324 326 326 336 335 330 332 330 334 336 333 333 337 333 331 325 326 332 333 324 323 331 334 332 331 327 322 320 319 325 328 329 328 327 323 318 321 323 320
316 308 311 311 312 313 312 312 319 329 328 326 326 329 334 329 329 334 336 330 336 333 335 337 330 331 333 332 329 324 329 331 332 333 329 324 322 317 316 323 326 327 326 319 319 320 321 319 313
310 307 313 313 313 312 311 317 326 329 326 326 327 326 324 327 327 333 335 331 328 331 336 337 335 334 333 333 332 329 330 329 332 333 330 326 321 316 316 319 322 321 318 316 319 321 320 320 318
311 310 313 312 312 312 316 318 326 329 328 328 327 332 327 324 330 332 335 335 336 333 333 333 332 332 331 327 325 321 326 329 331 332 329 325 321 317 314 314 316 317 315 316 317 319 321 320 319
308 309 313 311 312 312 315 322 325 326 329 328 325 330 334 329 330 334 336 336 336 334 333 334 335 334 329 326 323 317 326 330 330 331 327 325 320 315 313 312 311 311 312 315 315 315 316 317 319
307 310 311 312 312 314 325 325 324 326 328 328 326 328 329 329 330 331 329 332 335 334 334 333 332 329 328 326 322 317 326 329 330 331 327 324 321 315 313 313 314 313 313 315 314 314 315 317 318
309 309 311 311 311 314 328 325 325 327 328 327 326 328 330 329 330 330 329 329 331 332 331 331 330 329 326 323 319 318 323 327 331 331 331 325 320 315 314 315 316 315 314 315 314 315 314 315 316
309 311 311 312 311 317 326 327 327 327 325 328 331 328 330 327 327 328 328 329 328 330 329 328 329 327 322 316 322 321 321 322 325 328 329 328 320 316 315 315 317 316 314 315 315 316 315 314 314
312 310 311 311 312 322 324 324 328 327 331 332 329 327 328 327 327 327 327 328 327 327 327 326 326 323 320 316 313 319 326 324 325 326 329 328 319 316 315 316 317 317 315 315 317 319 316 314 312
312 315 315 314 318 321 323 324 328 334 330 330 329 328 327 325 324 322 323 325 326 325 325 325 324 322 322 321 320 326 325 314 325 328 329 325 317 316 316 316 317 317 317 318 319 318 316 315 312
315 316 314 314 321 322 322 324 323 328 329 330 329 328 325 325 323 321 321 322 324 323 324 325 324 323 320 319 323 327 326 327 329 329 327 321 316 316 317 317 317 317 318 319 319 320 318 317 313
316 316 314 315 320 321 321 323 324 323 329 330 328 326 325 323 323 322 321 321 322 323 322 324 323 323 323 327 327 325 325 326 327 326 323 317 316 316 318 317 317 317 318 318 319 320 318 316 314
315 315 315 315 321 322 322 324 322 326 330 329 326 327 324 323 321 320 319 320 320 321 321 322 323 322 324 324 325 322 320 319 320 318 318 316 316 316 317 317 317 318 318 318 319 320 319 317 316
313 313 315 315 317 321 322 324 323 329 331 330 327 325 323 320 319 320 318 319 319 320 320 320 322 318 325 322 323 321 323 321 322 320 318 318 317 317 316 318 320 319 320 319 319 320 319 319 317
312 315 315 314 316 324 325 324 322 322 323 330 326 324 322 321 319 319 318 318 318 319 319 319 318 316 318 322 321 321 322 322 322 321 321 323 322 324 323 324 324 324 323 322 321 321 319 319 319
315 316 315 314 315 322 323 321 321 325 329 328 326 324 322 321 319 318 318 318 317 317 318 318 318 316 316 319 320 321 320 321 320 319 320 322 322 323 324 324 323 324 324 324 324 322 320 319 318
315 316 316 316 316 321 320 320 322 322 324 328 328 325 322 322 318 317 316 317 317 316 316 317 317 316 316 315 317 316 318 319 319 318 317 319 320 321 322 323 324 324 324 323 323 322 320 319 319
316 317 317 318 317 319 322 319 326 323 324 324 327 326 323 322 320 317 316 315 317 317 316 316 316 316 315 315 315 315 316 317 317 317 317 317 317 316 314 316 319 321 324 323 323 322 320 320 319
317 316 318 316 316 319 316 318 315 324 324 326 325 326 325 323 321 319 318 314 316 316 316 315 315 316 315 315 316 315 315 315 315 316 316 316 316 316 315 319 320 321 323 324 324 324 323 321 319
318 318 318 317 318 318 318 316 316 325 326 323 324 326 325 323 322 320 318 315 315 316 316 315 315 315 315 315 316 316 315 314 314 315 315 314 315 316 316 317 320 321 322 323 324 324 323 321 319
317 319 318 318 317 321 319 318 318 325 325 322 323 326 324 323 322 320 319 317 315 316 315 315 316 315 315 314 315 317 316 315 314 314 316 316 317 318 317 318 319 320 322 324 324 324 324 323 322
317 317 319 320 321 322 320 321 318 318 322 322 323 325 325 322 322 321 319 317 316 316 316 315 315 315 315 313 314 316 317 315 314 314 315 316 319 321 322 321 320 320 323 324 322 322 324 323 323
317 317 319 323 324 322 323 325 322 317 317 320 322 323 324 323 322 322 320 318 317 316 316 315 314 314 315 315 314 315 316 316 314 314 315 317 319 321 322 322 320 321 325 324 323 320 323 323 323
317 318 317 322 324 326 323 322 320 318 318 320 323 322 322 323 323 323 321 319 318 317 316 315 315 314 314 315 314 314 314 316 316 316 316 317 319 320 321 323 321 320 323 324 322 322 323 323 322
317 317 321 322 328 329 324 325 322 321 318 317 317 321 321 322 323 323 322 321 319 318 317 316 315 315 314 314 314 314 314 315 316 316 317 319 321 323 323 323 322 322 324 324 321 323 323 321 318
317 318 320 322 321 322 324 321 317 320 319 316 313 313 319 320 322 323 323 323 321 320 319 318 316 316 316 315 314 314 314 315 316 318 319 320 324 325 324 324 324 323 324 323 324 323 321 318 316
316 318 319 321 323 320 318 321 317 317 316 316 314 312 313 318 320 321 322 324 322 321 320 320 319 318 318 317 317 316 317 318 319 320 321 322 323 325 325 325 324 321 323 323 320 320 318 315 311

GFSSGP_925_thetae_060.txt.gz
Theta_e
314 318 319 313 309 308 314 313 311 312 312 313 321 325 325 328 335 330 334 339 342 340 339 339 336 335 331 332 338 336 333 336 335 335 333 330 329 330 330 331 332 331 331 331 330 329 328 327 327
315 319 315 307 309 310 310 309 311 310 313 322 326 329 330 335 328 333 336 339 342 339 339 336 333 332 330 325 332 335 336 336 332 331 329 329 330 330 332 332 331 331 330 331 330 331 329 327 322
314 315 310 307 305 311 310 310 310 312 315 325 329 334 335 330 327 333 333 338 341 339 337 333 331 329 327 326 324 331 334 333 326 327 330 331 331 332 332 331 330 330 331 331 331 331 328 320 317
316 310 306 313 314 310 310 312 311 314 324 325 327 334 334 330 331 329 332 337 340 339 335 329 329 329 327 326 327 331 328 328 326 329 329 330 331 332 331 330 330 330 329 330 329 328 322 314 310
314 307 310 311 312 311 309 310 311 325 327 326 325 328 334 329 328 332 333 335 338 337 333 329 327 326 325 324 328 327 333 334 332 329 329 330 330 332 331 330 329 326 324 322 325 322 315 310 310
309 306 311 312 312 312 310 310 319 327 326 325 327 325 323 326 325 328 333 334 334 333 336 334 330 328 326 330 331 329 328 331 330 328 328 329 330 331 331 329 326 319 318 319 321 319 313 311 312
311 309 311 312 312 312 312 318 325 327 327 326 326 330 326 322 328 331 333 334 330 330 333 335 335 328 333 332 326 324 325 326 329 326 328 328 328 329 329 325 318 318 320 320 320 318 317 314 314
307 308 312 311 312 311 313 321 324 326 326 327 326 329 331 329 328 332 336 334 336 331 332 336 333 333 332 331 325 322 328 329 330 326 327 326 326 326 325 320 316 318 321 321 320 319 318 317 315
306 310 311 313 311 312 317 321 322 324 328 327 325 326 328 328 329 331 331 333 333 333 333 334 331 330 325 325 323 319 318 325 329 324 325 323 321 322 320 315 315 316 316 318 320 320 319 318 316
309 309 311 310 310 312 311 322 323 326 326 327 325 327 329 328 330 328 327 329 332 332 333 332 329 325 323 323 322 319 319 319 323 323 324 321 318 314 312 312 314 315 315 315 316 316 318 318 316
308 310 309 310 310 309 311 326 326 326 325 324 326 325 327 327 327 329 329 328 330 330 329 330 327 325 326 323 320 321 325 325 323 325 323 319 316 313 314 314 315 314 315 315 315 316 317 317 316
311 309 310 310 312 316 322 323 326 321 323 328 329 325 328 326 326 328 328 327 329 328 328 328 328 328 325 321 324 323 320 321 324 321 323 319 315 315 315 314 314 314 315 316 314 314 314 315 314
310 312 313 313 312 318 322 324 325 330 329 329 328 327 326 325 324 323 325 327 327 327 326 326 325 325 322 318 319 321 324 321 322 322 323 318 314 315 316 316 314 314 315 317 317 314 313 313 312
314 314 313 312 317 320 323 322 324 323 328 329 328 325 324 324 323 322 323 324 326 325 325 323 322 321 319 319 320 322 322 322 321 321 321 318 315 315 316 317 316 314 316 318 319 316 316 314 312
315 315 312 313 317 321 320 322 322 322 328 330 327 324 324 323 323 323 322 323 325 324 324 323 322 319 318 316 321 325 319 317 324 320 322 319 316 315 316 317 317 317 317 319 320 318 317 315 312
314 313 314 313 318 319 320 321 318 325 329 328 326 325 324 322 321 321 321 322 323 324 323 323 323 321 320 318 323 326 325 322 323 324 324 321 316 316 317 317 318 317 316 318 320 319 317 316 314
311 312 313 314 315 320 321 321 320 325 329 328 325 324 323 320 319 318 318 320 321 322 322 322 323 322 321 320 323 325 325 321 322 323 320 322 316 317 317 317 318 317 316 317 319 320 319 317 316
314 314 313 313 315 318 321 322 320 328 329 328 325 323 323 319 318 318 318 318 320 321 321 321 322 321 322 323 320 322 323 324 325 324 322 320 316 316 317 317 317 317 318 318 319 319 319 318 317
312 314 314 312 312 317 315 318 318 320 325 323 324 325 321 319 316 318 318 319 318 319 319 320 321 319 322 318 321 321 322 321 321 319 319 317 317 316 316 317 321 321 320 320 321 321 320 319 318
314 314 314 313 315 315 315 318 317 321 323 324 325 323 322 319 319 318 317 317 318 318 318 318 318 318 319 320 320 321 322 321 323 322 322 322 321 322 321 322 322 323 322 323 323 323 322 320 318
314 314 314 316 314 314 319 319 319 321 320 325 326 324 322 320 319 318 316 316 317 317 317 318 318 317 319 319 319 319 320 319 321 319 319 315 316 321 321 321 322 323 324 323 323 323 323 321 319
315 314 315 315 315 317 317 320 314 317 322 324 323 326 324 321 320 318 316 315 317 317 317 317 317 317 317 317 317 316 317 318 317 318 319 318 316 318 317 316 316 317 319 321 323 323 322 321 319
314 315 315 316 315 316 317 316 314 324 322 321 321 323 324 322 320 318 316 315 315 317 316 316 316 316 316 315 315 316 315 316 316 317 317 317 317 316 316 317 316 317 320 320 322 323 323 321 320
316 317 317 317 316 319 318 317 317 317 320 320 320 321 323 323 321 319 317 315 314 316 316 315 315 316 315 315 315 314 315 315 315 315 315 316 315 316 315 316 317 317 318 320 321 322 323 322 322
316 316 319 320 322 322 317 319 319 317 316 319 318 319 322 323 321 319 317 315 314 314 315 315 315 314 315 315 315 315 315 315 314 314 314 315 315 315 315 315 317 318 319 319 319 321 321 322 322
316 317 319 324 322 320 321 325 321 318 316 315 316 318 321 321 321 320 318 317 315 314 314 314 314 315 314 314 314 315 315 316 315 315 314 314 314 315 315 315 318 321 321 321 320 321 322 323 321
315 317 316 319 322 324 321 320 318 317 316 316 320 320 320 321 320 321 319 318 316 315 315 315 315 315 315 315 314 314 314 315 317 316 315 315 314 314 315 316 318 320 320 322 321 321 323 321 321
316 316 321 319 326 328 321 323 319 318 317 315 318 321 319 320 320 320 320 318 318 316 316 315 315 315 315 315 316 315 314 314 315 316 316 315 315 314 314 315 316 319 322 323 322 322 322 321 321
316 316 318 319 319 322 322 320 316 317 318 317 314 313 318 318 319 321 320 320 319 317 316 316 315 315 315 315 315 315 315 314 314 315 315 316 315 315 315 316 318 321 324 323 322 322 321 320 321
314 315 317 319 320 319 318 320 315 315 316 315 314 311 309 315 317 319 321 321 320 318 317 316 315 315 315 315 314 314 314 315 315 314 314 315 315 317 316 318 319 322 324 324 323 322 321 321 320

GFSSGP_925_thetae_063.txt.gz
Theta_e
313 317 317 314 316 315 317 318 313 315 315 314 325 324 326 330 332 334 335 340 340 341 340 337 334 335 339 340 340 338 336 335 336 332 324 334 335 334 333 332 331 331 331 330 330 329 329 331 328
314 319 315 313 316 318 317 314 315 315 315 323 327 331 331 333 332 335 336 340 341 340 339 337 332 334 338 339 339 338 336 333 332 329 332 333 333 333 332 331 331 329 329 329 328 328 328 328 327
315 316 316 315 314 318 318 314 315 314 313 321 327 336 332 333 329 337 333 339 341 339 339 339 335 332 332 333 331 338 335 333 331 331 333 331 332 332 332 331 330 329 329 330 329 327 326 325 323
314 313 312 319 318 316 316 317 314 315 322 325 328 336 336 331 329 331 333 336 341 339 338 337 335 331 331 329 339 339 337 334 332 331 330 329 331 330 330 330 330 330 330 330 328 325 320 318 317
312 313 317 317 316 315 314 313 313 317 327 327 326 328 334 331 329 330 333 336 339 338 336 335 334 329 328 331 339 339 336 333 333 330 328 330 330 329 329 330 330 330 330 329 327 317 311 311 311
316 313 318 318 315 314 314 314 316 322 326 326 327 326 326 326 327 327 331 334 337 337 334 334 333 330 331 327 331 335 334 331 329 329 327 329 330 329 329 329 329 329 329 326 315 310 310 309 311
316 316 316 315 316 316 315 318 325 325 327 327 327 330 329 323 326 328 330 332 332 335 334 330 329 328 327 327 328 329 332 332 330 329 328 327 328 329 329 328 325 324 325 318 312 312 312 311 311
313 315 315 315 316 316 314 320 323 324 325 327 327 330 331 331 328 328 331 333 333 331 332 333 329 329 329 330 329 330 330 331 330 329 329 329 327 329 328 323 320 321 322 316 314 314 314 313 312
309 316 317 316 315 317 314 320 322 324 328 328 327 327 328 328 329 330 331 333 332 331 331 332 333 331 331 332 331 331 331 330 330 329 328 329 330 328 325 322 320 321 321 317 316 315 315 314 313
315 316 316 314 314 315 315 315 317 326 327 328 328 325 328 328 330 331 329 329 331 331 332 332 332 330 331 328 324 324 321 320 324 328 328 329 328 325 321 320 321 321 320 319 318 317 315 316 317
312 316 313 313 313 313 313 319 323 326 327 327 327 327 327 328 328 329 329 329 329 328 328 329 325 325 324 323 327 324 326 325 324 328 325 326 326 321 317 317 319 321 320 323 320 317 318 316 316
314 313 312 313 312 314 315 322 327 327 326 328 328 327 328 326 327 327 329 328 328 328 327 325 324 326 326 325 321 321 324 323 325 326 321 323 322 317 316 316 316 316 318 321 322 318 317 314 313
312 313 312 313 314 314 321 323 325 327 328 330 329 328 328 326 326 325 326 327 327 327 326 325 324 325 323 323 322 320 322 322 323 323 322 317 315 313 315 315 315 315 316 316 317 317 316 314 313
314 313 315 315 315 318 322 322 323 324 330 330 329 328 326 325 324 324 325 325 327 327 326 327 325 325 322 322 321 321 322 319 319 322 320 314 312 313 314 314 315 315 314 314 315 314 315 314 312
315 317 316 315 315 318 322 323 324 325 331 329 327 326 325 324 324 324 324 324 325 325 324 324 325 323 320 321 321 323 322 322 322 323 320 314 314 315 314 314 314 315 317 316 314 314 313 312 311
316 315 317 314 319 319 321 321 319 324 331 330 328 326 325 324 323 322 322 323 324 324 323 323 322 320 319 320 321 323 323 322 321 323 321 314 315 316 315 314 314 315 318 317 315 314 314 313 311
314 317 315 314 316 321 323 321 321 327 330 331 331 327 326 323 321 320 320 322 322 323 323 323 321 320 319 318 319 322 322 321 320 319 319 318 315 316 316 316 315 316 318 319 317 318 319 316 312
317 317 315 316 317 318 321 322 321 326 330 330 330 329 325 323 321 319 318 319 321 322 322 322 321 319 320 319 323 321 323 320 322 317 315 320 317 315 316 316 316 317 317 318 319 318 317 316 315
314 315 315 314 313 315 318 319 319 319 329 330 331 329 326 322 320 318 318 319 319 321 321 321 322 321 319 319 321 319 322 320 321 321 316 322 318 316 316 316 317 316 317 317 318 318 318 318 317
315 316 317 316 315 316 319 320 320 320 323 327 329 329 327 324 320 319 318 319 318 319 319 320 321 321 321 320 321 319 320 321 321 321 322 320 320 316 317 317 317 317 317 319 318 318 319 319 318
316 317 316 316 315 316 318 320 319 320 322 324 326 325 325 325 321 320 318 318 319 318 319 319 319 320 321 320 319 320 321 321 322 322 318 316 320 316 316 317 317 318 320 321 320 320 321 321 319
317 315 316 315 316 320 318 322 320 319 320 323 324 328 328 326 323 321 319 318 318 319 319 319 318 318 319 319 318 320 320 319 320 320 320 319 317 318 320 318 318 321 320 322 322 320 322 322 321
315 316 316 316 317 318 319 320 320 318 322 321 322 325 328 327 325 322 320 318 318 317 318 319 318 318 318 320 318 318 320 319 319 320 320 321 319 318 316 316 318 319 318 317 319 321 322 322 321
315 316 318 318 319 323 321 321 321 320 321 321 321 322 325 327 325 323 320 318 317 317 318 318 318 318 317 318 318 317 317 318 318 318 319 318 317 315 315 315 317 317 316 318 319 320 321 322 321
317 319 321 324 325 325 319 320 321 320 320 320 321 321 323 325 326 324 321 318 316 316 318 317 317 317 317 317 317 316 317 316 317 318 317 318 317 316 316 316 317 317 317 318 319 319 320 321 322
317 318 323 325 325 323 319 324 321 321 320 319 318 318 320 325 326 325 322 319 317 316 317 317 316 317 317 316 316 316 316 316 316 317 316 316 317 317 316 316 315 315 315 318 320 321 321 321 321
317 319 319 322 323 325 323 323 320 320 319 318 318 322 322 325 325 325 323 321 319 317 316 316 316 316 316 316 316 316 316 316 316 315 315 314 315 315 316 315 315 315 315 317 320 320 321 321 321
318 318 320 321 324 326 323 323 322 321 320 320 321 319 323 323 324 324 324 322 320 318 317 316 316 316 316 316 316 315 315 315 316 316 315 315 315 315 314 314 314 315 316 317 318 320 321 321 321
317 318 320 321 322 324 324 323 322 323 322 321 321 319 317 322 324 324 324 322 321 319 317 316 316 316 317 316 316 316 315 315 315 316 316 316 316 315 316 315 315 315 314 315 318 321 322 320 320
315 318 320 323 323 322 323 322 316 320 319 319 320 318 317 314 320 323 323 322 321 320 318 317 317 316 316 316 316 316 316 315 314 315 315 316 316 316 316 316 317 316 314 315 320 320 321 321 320

GFSSGP_925_thetae_066.txt.gz
Theta_e
313 319 319 320 321 320 320 320 320 320 320 321 325 328 327 329 327 330 339 342 342 342 342 340 341 344 345 343 338 334 339 338 338 335 333 333 334 334 336 335 334 334 334 334 331 331 332 332 331
318 321 320 320 321 320 320 320 320 320 320 319 327 331 332 331 334 337 340 341 343 342 342 340 340 342 344 342 339 340 340 339 337 333 334 335 336 335 335 333 332 331 331 331 331 329 330 330 328
318 319 321 321 321 320 320 320 320 320 319 319 328 332 333 330 333 340 339 341 343 341 341 340 336 337 343 342 341 340 338 339 335 332 335 335 334 333 333 332 330 330 330 330 329 330 329 327 326
316 318 319 322 321 321 320 321 321 321 323 324 327 330 336 337 333 338 337 340 342 342 339 340 333 333 339 342 341 340 339 337 332 334 335 334 333 332 330 329 329 329 329 329 329 329 326 324 321
318 320 319 320 320 321 321 321 320 321 324 328 329 327 330 335 333 335 337 339 340 343 339 340 334 330 328 335 341 341 339 337 335 334 334 334 333 332 329 329 329 329 329 328 327 325 322 320 319
320 320 319 318 320 320 320 320 320 322 324 326 328 328 328 330 332 332 335 338 338 340 339 338 333 327 325 331 335 339 338 335 333 332 332 332 332 330 329 329 331 331 327 323 321 317 316 315 315
320 318 316 317 319 320 320 321 322 321 322 324 328 329 329 329 330 332 333 336 338 337 338 335 333 331 332 331 333 336 337 334 333 331 331 331 330 329 331 331 332 330 323 311 313 312 312 313 314
318 318 318 317 319 320 319 320 322 323 323 329 328 326 329 334 331 333 333 334 337 335 335 336 335 334 333 332 333 332 335 333 332 332 332 331 328 329 329 329 329 327 315 311 311 311 311 311 312
317 318 318 318 318 320 319 320 320 323 324 328 329 330 330 329 330 331 332 334 335 336 335 335 332 333 334 332 330 330 331 331 331 332 332 329 331 329 328 328 327 321 313 313 313 313 312 312 313
317 318 318 318 318 319 319 320 320 322 323 327 330 330 328 329 331 332 331 333 333 332 332 334 333 331 331 331 332 330 329 329 329 332 328 330 330 329 325 326 324 319 313 314 314 313 313 317 317
316 317 317 318 318 318 319 320 322 323 322 323 327 330 329 330 330 331 332 330 331 331 332 332 332 332 331 331 330 330 331 330 328 327 326 330 328 325 325 326 326 324 317 320 318 317 319 318 317
316 317 316 317 317 317 319 320 322 324 325 328 327 329 330 330 330 329 330 329 330 330 328 327 329 327 328 329 329 329 329 327 325 324 327 329 325 324 325 326 325 324 323 322 321 321 320 319 318
316 315 317 317 317 317 319 321 322 323 325 329 330 330 331 330 329 328 329 329 330 329 327 325 324 325 324 325 325 322 322 321 319 318 322 327 324 323 323 324 325 324 324 324 322 321 320 319 318
316 316 316 316 317 319 320 319 323 322 324 331 331 331 330 329 328 327 328 328 330 328 326 325 324 323 324 324 324 323 322 321 319 319 323 325 322 321 321 322 322 322 324 324 322 320 319 318 318
316 317 317 318 318 319 320 320 321 322 329 331 331 331 330 328 326 327 327 326 327 327 327 325 325 324 323 325 323 323 324 322 324 323 324 323 321 320 321 320 320 320 321 321 320 319 318 317 317
317 317 318 318 317 318 321 318 319 324 329 331 330 331 330 329 326 326 324 325 325 325 326 325 324 324 322 322 322 322 322 323 320 323 322 322 321 320 319 319 319 320 319 319 319 319 319 318 317
318 319 319 318 317 320 324 320 325 327 328 328 331 332 331 330 326 324 323 323 324 327 325 324 322 323 322 321 323 323 320 321 319 320 322 320 318 315 317 318 319 321 320 319 318 318 318 317 316
319 320 318 319 319 319 321 323 322 323 327 329 330 332 332 330 328 323 322 322 324 323 324 323 322 321 322 322 322 323 322 320 319 321 322 320 318 318 318 319 320 320 322 321 320 320 320 319 318
317 318 318 317 317 316 317 319 321 322 325 329 330 331 332 331 328 323 321 320 322 322 323 322 321 319 322 322 322 322 322 322 319 322 322 321 321 320 320 320 320 320 322 323 322 322 321 320 319
316 317 318 317 318 318 316 320 322 322 323 325 329 331 332 331 329 324 322 321 322 322 322 322 321 322 321 320 320 321 322 322 320 319 318 320 321 316 317 321 319 320 321 322 323 323 322 322 320
316 317 318 317 318 318 319 321 322 321 323 325 327 328 330 331 330 326 323 321 321 322 322 322 321 321 322 321 322 320 321 319 321 320 318 318 321 316 315 318 320 322 322 322 322 323 323 323 323
317 317 317 318 318 316 321 322 321 321 321 322 325 328 329 330 329 328 325 322 323 321 322 323 321 321 321 320 321 319 319 318 322 321 319 320 320 319 316 319 322 323 320 323 323 324 323 323 323
317 317 318 318 319 317 318 322 320 321 321 320 321 325 329 330 330 329 326 323 322 322 321 323 322 320 320 320 320 319 318 318 320 322 321 320 321 319 317 317 319 318 319 320 322 323 324 324 321
316 317 317 318 318 321 320 323 321 320 321 321 321 323 327 330 330 329 326 324 322 321 322 322 322 321 319 320 320 319 320 320 321 321 322 320 320 318 317 317 318 318 318 319 321 319 320 322 324
317 318 321 322 324 321 322 323 323 321 321 322 323 323 325 329 331 330 328 326 322 321 321 321 322 322 321 319 319 319 319 319 318 320 320 320 318 318 318 319 318 317 317 316 317 319 323 323 323
317 318 322 323 325 325 323 324 323 321 321 323 322 323 323 327 330 330 329 327 323 321 322 321 322 322 321 321 321 320 318 318 319 319 319 319 320 319 319 318 317 317 317 320 321 321 322 323 323
319 321 320 323 325 325 325 323 322 321 321 321 322 323 326 326 329 330 329 327 325 322 322 322 322 322 322 321 320 320 319 319 319 320 319 319 319 319 319 318 316 316 319 321 321 321 322 322 323
320 319 321 321 325 327 325 324 323 321 321 321 324 324 325 327 328 329 329 328 326 323 321 322 321 322 322 322 322 322 321 320 320 320 320 319 319 319 319 320 320 320 319 320 320 321 321 322 323
319 320 321 321 322 326 327 325 322 322 322 322 323 323 323 327 329 329 329 328 327 325 322 322 321 321 321 322 322 321 321 321 321 321 320 320 319 319 319 319 319 319 319 319 320 321 321 322 323
318 319 320 323 324 323 326 325 321 322 323 322 322 322 323 321 325 328 329 328 327 326 324 322 321 321 321 321 321 321 321 321 321 320 320 320 320 320 320 319 319 319 319 319 320 320 320 321 320

GFSSGP_925_thetae_069.txt.gz
Theta_e
312 316 320 321 323 322 323 322 322 321 321 323 324 326 326 328 326 331 341 342 343 343 347 339 338 343 345 343 341 340 334 336 336 336 334 335 335 334 335 335 336 335 335 335 335 335 335 334 332
318 321 321 324 321 324 324 323 321 321 321 322 324 326 326 327 329 329 338 344 343 343 345 342 340 342 345 343 342 341 340 339 336 333 334 335 335 335 336 335 335 334 333 334 334 334 333 331 330
320 321 324 323 324 324 324 322 321 321 321 321 324 326 327 328 333 336 341 343 345 343 343 342 340 343 344 343 342 341 340 338 336 331 332 335 335 336 335 334 333 333 331 331 332 333 331 329 328
319 320 321 320 322 324 323 322 322 321 322 323 323 324 330 338 334 338 339 342 344 343 343 341 340 340 340 343 342 340 340 338 335 331 333 335 335 335 333 332 331 331 331 332 330 330 328 327 326
318 321 322 322 322 323 322 322 321 321 322 324 325 325 327 336 336 336 339 341 343 345 341 341 339 338 337 336 338 338 340 338 334 333 335 336 335 333 332 330 330 329 330 330 329 328 325 326 325
320 321 322 323 321 322 322 322 322 321 322 323 325 326 326 334 333 335 337 339 341 343 343 341 339 334 333 333 326 324 337 337 335 335 335 334 333 331 329 329 329 329 327 327 327 324 321 320 319
320 322 322 320 320 322 322 322 322 321 321 322 326 326 327 331 332 334 334 337 339 340 343 341 341 336 332 328 324 324 330 336 336 335 334 333 331 328 328 329 329 326 325 325 320 319 318 317 318
320 321 320 320 320 320 322 320 321 321 322 327 324 324 326 337 333 334 335 335 337 340 339 342 340 336 332 328 325 329 334 334 334 335 334 333 330 328 331 332 328 320 318 314 314 314 314 315 316
319 319 320 320 321 320 321 320 321 321 322 322 327 329 330 332 331 332 334 335 336 338 337 339 339 337 335 334 334 332 328 334 333 334 332 331 332 331 331 331 326 311 311 311 312 312 314 315 315
319 319 319 321 320 320 321 320 321 321 321 322 324 329 330 330 331 332 331 333 334 336 337 336 336 337 337 334 334 332 332 332 333 332 330 331 330 331 331 331 323 311 311 311 311 311 312 315 316
319 319 319 320 319 319 320 320 321 322 322 322 325 325 330 331 331 332 332 332 332 332 333 335 335 336 334 334 333 332 332 332 331 329 330 331 329 328 330 329 319 316 314 319 317 313 319 317 316
318 318 319 319 319 319 319 320 320 321 321 323 326 327 329 332 332 330 330 331 331 332 332 333 333 333 333 334 332 332 331 331 330 327 324 326 325 327 328 328 322 320 321 320 319 320 320 319 317
318 318 318 318 318 318 319 319 320 320 321 322 327 331 331 332 331 329 329 330 330 331 331 330 327 329 329 328 330 331 330 329 324 324 323 320 323 325 327 327 324 322 323 322 320 322 321 320 319
318 318 318 317 318 318 318 319 320 320 321 323 328 331 331 332 330 328 330 330 330 331 330 327 325 325 327 327 327 329 329 328 325 321 320 322 324 325 326 326 326 323 324 323 322 322 321 319 319
318 317 318 319 318 318 318 319 320 320 321 324 327 331 331 331 329 328 329 330 329 330 329 326 324 324 324 325 325 326 326 324 322 323 323 323 322 325 325 326 325 324 324 323 323 322 320 319 319
318 318 318 319 319 319 319 320 320 321 324 326 329 330 331 331 330 328 328 329 328 329 328 326 324 323 324 324 323 323 323 322 322 319 320 322 324 323 324 324 324 324 325 324 322 321 319 319 319
320 320 320 321 320 319 319 321 322 325 324 326 328 330 332 332 331 328 326 327 327 327 326 325 324 324 324 323 323 323 322 321 319 318 321 323 324 323 322 322 322 323 323 322 321 320 319 320 319
320 321 321 322 322 319 319 322 322 324 326 327 327 330 332 332 331 328 326 326 326 327 325 324 323 323 323 323 323 323 322 323 322 318 322 323 323 323 322 322 322 322 321 321 320 320 321 321 320
320 321 322 322 321 320 321 320 322 322 324 325 328 329 332 333 330 328 325 325 326 324 324 324 323 322 322 323 324 322 322 321 322 320 321 319 322 321 320 320 319 321 321 321 321 322 322 322 320
320 320 321 321 320 319 319 319 319 321 322 323 326 328 329 333 331 329 326 324 324 325 324 324 323 322 322 324 324 323 321 321 319 315 320 321 320 320 318 319 320 320 323 324 323 323 324 323 322
321 321 321 321 321 320 320 320 321 321 322 322 323 324 327 331 331 330 328 325 324 324 325 325 324 323 323 324 323 322 322 321 320 320 321 322 322 322 320 321 322 321 322 325 325 325 325 324 324
321 320 320 320 320 322 321 321 323 322 323 323 324 325 326 330 332 331 329 326 325 324 325 325 324 324 322 323 323 322 323 323 321 319 321 321 323 321 321 323 320 322 322 324 325 325 325 323 322
321 320 320 320 321 321 321 321 321 322 321 322 321 323 327 328 331 331 329 326 326 324 324 324 324 324 324 324 323 322 321 322 322 320 320 320 320 322 320 321 319 318 324 324 324 324 324 324 321
319 320 320 320 321 324 322 323 323 324 322 321 321 322 326 328 331 331 329 327 324 326 324 325 323 323 323 324 323 321 321 322 320 322 321 321 321 322 321 317 316 318 320 323 320 321 321 321 321
317 319 323 324 325 325 323 323 323 322 321 322 322 323 326 328 331 331 330 329 325 325 326 325 325 323 322 322 322 324 323 319 319 321 323 321 321 322 321 320 317 318 318 319 319 319 318 321 320
319 320 325 328 329 326 324 325 325 323 322 323 323 324 324 327 331 332 330 329 326 325 325 325 324 324 322 321 322 323 322 320 320 320 323 322 321 320 320 320 318 317 317 318 319 318 319 318 320
319 320 320 323 327 330 326 325 324 323 322 322 322 324 325 327 330 331 331 329 327 325 325 325 324 325 324 322 322 322 323 323 323 322 322 322 321 320 319 319 319 319 319 320 321 321 320 320 319
319 320 321 322 328 330 328 328 326 323 322 321 323 325 326 327 329 331 331 330 328 326 324 325 325 324 324 324 323 322 323 323 323 321 322 322 321 320 320 320 320 320 320 320 320 319 321 321 322
318 320 321 322 324 327 329 329 325 324 323 323 324 323 325 329 329 330 331 330 329 327 325 325 325 325 324 324 324 323 324 323 323 323 323 322 322 322 321 321 320 320 320 320 321 321 321 322 322
319 321 322 326 325 326 329 330 322 324 324 323 323 323 323 323 329 330 331 331 330 329 327 325 325 324 324 325 325 325 324 324 324 323 324 322 323 323 322 322 322 322 322 321 321 322 322 322 322

GFSSGP_925_thetae_072.txt.gz
Theta_e
313 312 316 321 322 323 324 324 323 322 321 323 323 324 325 325 323 335 342 344 343 349 347 337 338 344 342 340 341 341 335 335 335 332 333 334 333 332 335 335 336 336 337 338 337 337 335 334 331
316 318 321 322 324 324 324 324 323 322 322 322 321 322 324 325 332 336 342 344 344 345 347 342 338 343 345 341 340 340 339 339 336 333 333 331 332 333 335 336 336 335 336 337 336 336 334 331 330
316 321 322 324 325 324 325 323 322 322 321 321 320 323 325 326 333 335 341 344 345 343 344 344 339 341 345 344 341 340 339 339 337 333 333 332 332 335 335 335 334 333 334 335 334 333 331 330 328
319 321 320 321 321 322 322 324 323 322 321 322 322 323 325 334 332 335 340 343 344 344 343 344 342 339 342 344 343 340 338 338 337 331 334 333 334 336 335 334 333 332 333 333 333 332 330 329 325
318 320 321 322 322 322 323 323 322 322 321 323 323 324 327 337 337 337 339 340 343 344 342 343 341 340 341 343 342 340 338 336 335 333 336 335 334 335 334 333 331 330 331 332 330 328 327 326 323
319 319 320 321 322 323 323 323 322 322 321 321 322 324 329 337 335 338 338 339 341 343 345 342 341 339 337 338 337 334 333 333 335 334 336 336 335 334 332 331 330 331 329 328 329 327 326 325 320
320 320 321 321 322 321 322 323 322 321 321 322 325 326 326 332 335 336 335 337 340 341 344 342 341 336 336 336 330 329 326 324 333 335 336 335 334 332 331 330 330 330 328 326 324 325 324 319 320
320 320 320 320 321 321 322 322 322 321 321 323 323 322 328 336 335 335 335 336 337 340 340 341 340 339 335 333 330 325 325 324 327 334 336 334 332 330 330 329 328 328 326 323 319 318 316 317 320
319 319 321 320 320 321 322 322 321 321 321 321 321 325 328 334 333 333 334 336 336 336 338 339 338 338 336 333 327 324 324 324 329 336 335 333 330 329 330 328 326 324 322 317 317 314 315 317 320
319 321 320 319 320 321 321 321 321 321 321 321 322 325 331 331 331 332 333 334 334 334 337 337 336 336 335 333 331 326 325 324 329 334 333 333 330 331 330 327 322 319 316 314 312 312 312 316 320
318 320 319 319 319 320 319 320 321 321 321 323 324 326 328 332 331 333 331 331 332 333 333 333 334 335 335 333 333 331 329 324 326 332 331 332 332 330 330 323 316 315 312 312 311 312 314 318 319
317 318 319 319 319 319 319 319 320 320 322 322 322 325 327 330 332 331 332 330 331 332 332 334 333 334 334 333 332 333 331 329 333 331 331 331 330 330 329 321 315 314 314 313 311 316 317 316 320
318 317 318 318 319 319 318 319 319 320 320 321 321 329 330 330 332 330 328 331 330 332 332 332 331 333 334 334 332 333 332 332 331 330 330 329 328 328 326 321 314 319 317 315 315 321 318 317 317
318 317 317 318 319 319 318 318 318 320 320 321 321 327 331 331 332 330 329 330 331 332 331 329 325 326 330 331 332 332 332 330 328 328 326 327 326 321 323 322 319 323 319 317 320 323 320 319 319
318 318 318 318 318 319 318 318 318 319 320 320 320 324 330 331 331 329 328 331 331 332 330 327 325 325 327 328 327 329 328 328 325 323 322 324 321 321 322 323 320 324 321 321 321 321 321 320 319
319 318 319 318 318 319 319 319 319 320 321 321 322 325 330 331 331 329 328 330 330 331 329 326 324 323 325 327 328 327 326 325 324 323 324 320 320 321 322 323 323 324 322 323 324 321 321 320 319
318 319 318 318 319 320 320 320 320 321 323 322 324 327 329 331 331 329 329 329 329 329 328 325 325 323 324 324 325 326 326 324 323 322 319 318 322 323 324 325 325 325 323 325 322 321 320 320 320
320 319 318 320 321 321 321 320 320 323 324 324 324 325 329 332 331 330 328 328 327 328 326 325 324 325 323 324 323 323 323 322 322 322 322 320 319 323 320 324 324 324 325 323 322 321 319 319 319
320 319 320 321 321 322 322 321 320 322 322 325 325 326 329 332 331 330 328 327 327 328 326 325 324 324 324 324 323 323 323 321 321 321 321 318 319 321 324 323 323 323 323 322 321 320 321 322 321
319 320 321 321 321 321 321 321 321 320 321 323 325 326 327 332 332 330 328 327 326 325 325 324 324 324 323 324 323 323 323 322 320 319 319 321 323 323 323 322 323 322 321 320 321 321 322 322 320
320 321 321 321 320 322 320 321 321 321 321 321 323 324 327 332 332 331 329 327 325 324 325 323 324 323 323 324 323 323 322 322 321 319 321 322 322 322 321 321 321 321 321 320 321 322 323 322 322
320 320 321 321 322 323 322 323 323 322 322 322 323 324 324 328 332 331 329 328 326 325 325 325 324 323 323 324 323 322 322 321 319 318 319 317 319 321 321 320 320 318 321 324 324 323 323 324 322
319 321 323 322 322 323 321 322 322 321 323 323 323 324 325 325 332 331 330 328 326 326 325 325 324 324 324 324 323 322 322 321 319 316 316 321 321 322 321 321 322 320 321 323 324 323 323 323 322
318 320 323 323 323 325 322 323 323 324 324 323 324 323 325 326 332 331 330 328 327 326 325 326 325 325 323 324 323 323 323 322 321 318 318 320 322 322 322 322 323 320 320 322 323 322 322 323 321
318 324 329 328 326 327 322 323 324 324 322 322 322 322 325 328 331 331 331 329 327 327 325 325 325 324 325 324 324 323 324 323 322 319 318 320 320 321 322 321 323 320 323 323 323 323 323 320 320
318 322 325 329 330 326 323 324 325 324 322 323 323 323 326 327 331 331 331 329 326 328 326 325 325 324 324 325 324 323 323 322 323 321 319 319 320 321 321 322 321 320 318 318 320 321 319 319 319
320 320 319 325 326 332 327 324 325 323 322 322 322 323 324 326 330 331 331 329 327 327 328 326 326 324 324 323 324 324 324 324 323 322 322 321 320 320 321 322 321 319 316 317 318 318 318 318 319
320 319 325 323 327 335 332 328 326 325 323 322 322 325 326 327 329 331 331 330 328 326 327 328 326 325 324 322 323 323 324 323 322 321 322 324 323 321 320 321 322 320 319 317 318 318 318 320 320
321 320 321 322 323 332 335 331 329 327 324 323 325 325 327 329 329 331 331 330 329 327 327 327 327 326 326 324 322 322 323 323 324 323 322 322 324 323 322 320 320 320 319 319 320 320 321 321 321
320 320 320 326 326 324 330 331 328 326 324 325 323 324 325 325 329 331 330 331 330 329 327 327 327 326 326 326 324 323 323 323 324 324 323 323 323 323 322 321 320 320 320 320 320 320 320 320 320

GFSSGP_925_thetae_075.txt.gz
Theta_e
313 313 312 316 318 316 317 318 318 320 320 319 320 322 322 322 324 338 343 341 346 346 342 341 341 338 336 335 339 338 335 334 331 330 330 332 330 327 328 331 335 336 337 337 336 336 337 334 331
312 314 316 316 318 319 320 319 319 318 319 318 319 320 323 330 343 344 343 341 345 347 344 338 342 341 339 339 338 339 337 335 333 330 329 330 329 329 333 335 336 336 336 337 337 336 335 331 330
314 317 316 317 317 320 319 319 319 319 318 319 319 319 322 334 334 341 343 341 343 346 345 342 338 344 341 339 339 339 339 337 335 330 330 330 330 332 334 335 335 335 336 336 336 335 330 329 330
315 316 314 316 317 318 319 320 320 320 319 319 320 322 331 332 334 341 341 340 344 343 345 344 340 340 345 342 339 338 337 336 334 331 329 330 332 334 334 334 334 334 334 335 334 331 328 327 328
315 312 314 315 316 318 318 319 319 321 321 322 322 322 332 337 338 339 340 342 339 343 343 343 343 339 339 344 341 340 337 336 335 332 330 328 332 335 334 333 332 333 333 332 330 329 326 326 327
312 311 314 313 316 318 318 319 320 321 320 320 319 320 334 336 336 338 338 340 341 343 344 343 342 341 339 339 340 340 336 330 328 332 332 335 336 335 333 332 331 332 331 331 329 327 324 324 322
313 313 313 314 316 318 319 318 320 319 319 320 322 324 333 333 337 335 336 338 339 339 344 343 341 340 339 340 339 338 331 327 326 324 334 334 336 334 331 330 330 330 329 329 328 326 323 322 322
313 314 315 316 317 316 318 321 319 319 319 322 321 320 335 333 335 334 335 336 339 339 338 343 341 339 339 338 338 332 331 328 327 325 330 332 334 332 331 331 329 328 327 327 326 325 320 321 321
315 316 316 315 316 317 318 321 318 318 318 320 320 321 330 334 334 335 335 336 336 338 337 336 340 339 337 335 333 328 326 326 327 324 324 332 333 331 331 330 329 327 325 326 325 320 319 321 321
315 314 315 315 316 317 316 315 318 320 318 320 321 333 335 334 332 332 333 334 336 336 334 337 337 336 337 334 331 325 324 325 324 325 324 333 332 331 329 329 328 325 320 320 321 315 319 320 321
315 315 314 316 317 317 315 314 316 318 318 320 322 330 331 329 329 329 331 332 332 334 335 335 333 333 335 332 328 327 324 323 326 325 327 333 331 330 328 328 326 322 315 315 315 316 319 320 321
316 315 316 315 316 316 316 315 316 317 318 320 319 321 329 330 328 329 330 330 331 331 331 333 333 332 333 334 332 328 325 326 325 332 332 331 330 329 327 325 321 319 314 312 312 313 319 320 321
317 316 315 315 315 316 315 315 315 316 316 316 318 326 325 327 329 329 330 330 330 332 333 333 333 333 334 334 333 331 329 327 326 331 331 330 329 328 325 320 316 314 312 311 311 313 319 320 321
317 317 316 316 315 314 315 315 315 316 317 316 316 327 327 327 328 328 329 328 330 332 331 330 328 331 332 333 332 332 332 329 328 330 330 330 330 327 317 314 312 313 311 311 315 316 318 318 320
317 317 316 316 315 314 315 315 316 314 315 315 315 319 327 326 329 326 328 329 331 331 329 328 324 324 329 331 332 332 331 330 330 330 329 328 329 327 319 313 313 314 311 316 320 318 316 317 320
318 317 316 316 316 316 314 317 315 314 313 313 313 315 327 328 328 327 330 330 331 330 329 326 324 324 326 327 329 330 330 329 329 328 324 328 326 325 323 313 318 319 313 317 321 322 318 319 319
316 317 317 317 317 316 316 316 316 315 316 316 316 318 324 327 326 327 330 330 330 330 327 324 324 324 324 327 327 329 328 328 327 327 327 325 323 322 318 315 322 323 316 318 321 321 320 319 318
319 319 316 316 317 316 316 316 316 317 318 318 318 317 323 327 327 326 328 329 329 329 327 324 323 324 324 324 326 326 326 325 325 325 325 324 320 321 317 322 322 324 321 322 322 321 320 319 318
318 319 319 318 317 319 319 317 316 316 316 318 317 317 321 327 326 327 327 328 328 328 326 325 324 322 324 324 324 324 323 323 323 322 323 322 320 320 321 323 322 324 323 323 322 321 320 319 319
318 318 317 318 319 320 320 322 316 316 316 316 319 318 319 327 327 326 326 326 327 326 326 325 324 323 324 324 324 323 323 322 323 322 322 320 321 322 323 324 322 324 324 323 321 321 321 320 319
314 315 318 319 319 319 319 319 317 318 318 318 319 320 320 328 328 326 326 324 326 326 325 324 323 323 324 323 323 323 322 321 321 322 321 320 321 322 322 320 322 323 321 322 321 320 321 321 320
316 316 318 319 321 325 322 323 318 318 319 319 317 319 320 329 328 326 325 324 323 324 324 323 323 323 324 324 323 323 322 321 320 321 320 320 320 321 323 323 324 323 322 322 320 321 321 321 321
316 319 320 323 324 325 325 321 319 318 319 319 318 318 317 328 328 327 325 324 323 323 324 323 324 323 324 324 323 322 322 321 320 319 320 320 322 322 322 322 322 322 321 320 320 321 320 321 321
318 319 321 322 324 329 326 323 319 319 320 321 320 319 318 328 328 327 325 324 324 324 324 324 323 323 324 324 323 322 322 321 320 319 319 320 321 322 322 321 321 321 321 320 319 320 322 323 322
317 321 327 330 330 330 323 323 320 319 320 320 319 318 319 328 328 327 326 324 324 324 324 325 323 323 324 324 323 322 322 321 319 318 317 319 320 322 322 321 321 320 319 321 319 322 323 322 321
319 323 328 332 329 325 322 323 321 320 320 319 318 319 322 328 328 327 326 324 324 324 324 324 324 324 324 324 323 323 322 321 319 317 316 316 319 321 321 321 322 323 322 320 322 321 322 321 319
321 324 320 326 324 329 331 321 320 320 321 319 320 319 320 326 327 327 326 324 325 324 323 324 323 323 324 323 324 323 323 322 321 319 316 316 318 320 321 322 322 322 323 322 320 322 322 321 319
320 319 322 323 329 332 328 330 321 321 319 319 319 319 320 322 327 328 326 324 326 325 324 324 324 323 323 324 324 323 323 323 322 322 319 317 317 319 320 321 321 321 321 321 322 321 320 320 320
321 323 323 323 326 330 335 335 328 327 324 320 321 321 323 322 327 328 326 325 325 326 325 324 324 324 323 323 324 324 323 323 322 322 321 320 318 318 319 319 321 321 321 320 320 319 319 319 319
317 323 323 327 328 325 324 329 327 325 323 321 322 321 321 324 324 327 327 326 324 325 326 325 325 324 323 323 322 323 323 324 323 322 321 322 322 320 320 320 320 321 321 320 319 318 318 318 318

GFSSGP_925_thetae_078.txt.gz
Theta_e
315 314 313 315 316 312 316 316 316 317 319 319 319 321 321 325 322 323 342 340 344 343 342 341 339 336 334 333 333 333 334 333 331 332 335 335 335 332 329 329 334 336 337 338 337 337 338 337 333
314 314 315 312 316 317 315 317 317 317 318 316 318 320 321 343 343 342 342 340 344 344 342 341 339 337 336 334 334 333 333 332 331 333 333 332 329 328 332 333 333 334 335 335 336 336 337 332 331
313 316 314 315 313 316 316 318 320 317 316 317 317 318 323 337 343 342 341 341 346 346 342 340 339 339 339 338 335 335 333 332 330 332 332 329 328 330 333 334 336 335 334 334 335 336 334 331 332
314 314 312 315 317 317 316 318 316 316 318 317 317 326 333 333 341 341 340 342 344 345 343 341 339 341 339 339 338 335 334 333 328 328 330 327 327 331 333 335 335 335 335 335 334 333 330 331 330
313 308 314 314 314 315 316 315 315 318 319 320 320 321 336 337 337 340 340 342 343 344 344 342 340 340 341 339 339 339 338 336 335 331 333 330 331 333 333 335 335 335 334 334 333 330 331 329 329
310 308 311 314 314 316 314 314 315 318 319 318 318 322 337 338 340 341 342 341 343 342 343 343 342 340 339 342 339 338 339 337 335 332 330 335 337 335 335 334 334 333 333 332 331 330 330 330 328
311 309 311 312 313 314 316 315 317 318 317 318 319 327 335 333 338 339 337 340 340 342 343 342 341 340 340 340 340 338 335 333 330 329 327 326 332 334 334 333 333 332 331 329 329 329 328 323 323
309 310 315 314 316 315 316 316 316 316 317 320 319 332 336 331 336 335 335 337 337 338 342 342 340 340 340 340 337 337 335 335 326 329 325 324 330 329 331 333 332 330 327 329 328 325 322 321 323
311 312 313 315 315 316 316 315 315 316 318 320 319 324 328 334 334 335 335 337 339 337 337 341 338 337 338 339 339 335 333 332 329 328 324 325 329 331 331 332 331 329 327 327 325 322 321 320 322
313 311 314 314 314 314 315 313 313 316 317 317 330 334 333 334 333 333 333 333 338 338 336 334 337 339 337 336 336 332 331 329 325 324 325 328 330 331 331 330 329 328 327 327 324 321 320 322 322
313 317 314 313 312 313 314 314 316 314 315 316 324 335 333 332 332 331 332 334 334 335 335 335 337 338 336 335 332 327 326 328 328 326 326 326 325 331 331 329 327 326 326 325 323 320 320 321 321
316 315 314 314 314 314 314 314 315 313 315 317 322 332 332 330 329 327 327 331 333 333 334 335 333 333 334 334 331 325 324 324 326 325 325 327 329 331 330 329 326 324 325 324 321 319 320 320 321
315 316 316 316 314 314 314 314 314 314 313 313 317 329 330 328 326 328 329 330 331 331 331 332 332 332 334 333 330 325 325 324 325 325 325 325 330 329 329 327 325 319 321 321 317 319 320 320 321
314 314 315 315 314 314 314 314 312 314 313 313 318 325 328 327 326 327 327 329 330 331 331 332 332 332 334 333 330 327 325 325 325 329 328 325 329 328 327 326 321 316 315 315 316 319 319 320 321
316 315 315 315 314 314 313 313 314 312 312 313 313 318 323 325 326 327 327 329 330 331 330 329 327 330 332 333 332 329 326 326 326 329 329 329 328 327 325 322 316 313 312 313 314 318 320 320 321
316 316 317 316 315 314 312 316 315 313 311 312 311 310 324 324 327 326 327 329 330 330 330 327 326 324 329 331 332 332 329 327 327 330 329 328 326 326 321 316 313 311 311 311 313 319 318 320 320
315 317 316 316 315 315 314 316 315 314 313 312 312 310 320 325 325 324 327 329 330 330 329 327 324 323 325 327 330 330 330 329 328 329 329 327 327 324 315 313 311 310 310 314 316 316 316 318 320
316 316 315 315 316 316 316 315 315 315 314 313 312 313 322 326 327 326 328 329 329 329 327 326 323 326 324 327 328 328 329 328 328 328 327 327 326 319 312 312 314 310 312 318 319 317 317 319 319
316 317 317 316 317 318 318 317 317 318 317 314 313 313 322 327 324 327 327 328 328 327 326 325 323 323 323 324 326 326 326 326 326 326 326 327 326 322 314 313 318 314 314 319 320 321 318 319 318
314 316 317 316 317 317 316 316 318 318 317 316 315 314 319 324 326 326 326 327 326 325 325 324 323 323 322 324 324 324 325 325 325 325 324 326 324 323 319 315 322 320 316 318 319 321 319 318 318
314 315 315 315 317 317 317 319 319 319 317 314 313 316 316 326 327 327 325 325 325 325 324 324 323 322 323 322 324 324 323 323 323 323 323 323 322 322 321 321 322 323 319 321 321 321 320 319 318
321 313 315 318 321 323 320 324 320 320 320 317 315 314 316 326 326 327 325 324 324 324 324 324 323 323 324 323 322 322 322 322 322 323 323 322 321 321 321 323 322 324 324 322 322 321 320 320 318
319 314 316 320 321 323 321 323 321 320 319 318 316 313 317 326 326 327 325 324 324 324 324 324 323 324 324 323 323 322 322 322 322 322 322 321 321 321 322 322 323 323 323 323 322 321 321 321 319
316 316 317 320 322 324 320 324 323 321 320 319 317 317 318 327 326 326 324 322 322 323 323 323 323 323 324 323 322 323 321 321 321 321 320 320 320 321 322 323 321 322 321 321 319 321 321 321 320
317 320 323 324 325 324 321 324 323 321 319 318 318 318 319 326 326 324 324 322 321 322 322 323 323 323 323 324 323 322 322 321 320 320 320 320 320 321 322 322 323 323 323 321 319 320 321 321 321
318 322 327 326 329 326 323 324 322 320 320 319 317 316 323 327 326 325 324 322 322 322 323 323 323 323 323 324 323 322 322 321 321 320 319 319 320 320 320 322 322 322 322 321 320 321 320 320 321
321 325 321 327 328 327 327 324 320 319 318 317 316 322 327 327 326 325 324 323 323 322 323 323 323 322 322 324 323 322 322 321 320 320 319 319 319 320 321 322 322 321 320 320 321 321 320 320 321
318 321 325 324 328 330 327 327 324 327 323 318 317 320 327 327 326 325 324 323 323 323 323 323 323 323 323 323 323 323 322 321 320 320 318 317 318 319 320 321 322 321 320 320 320 320 320 320 320
321 323 323 323 324 333 332 332 326 327 326 322 318 318 324 326 327 326 324 324 323 322 322 322 322 323 323 323 323 323 323 322 321 320 319 316 316 317 319 320 321 321 322 322 322 321 321 321 321
320 320 323 324 326 326 326 328 328 327 324 320 320 320 319 326 326 325 324 324 324 323 322 322 322 322 322 323 323 323 323 323 322 322 321 319 316 316 317 318 320 321 321 321 321 322 321 321 321

GFSSGP_925_thetae_081.txt.gz
Theta_e
317 314 313 314 316 311 315 314 313 315 318 317 318 319 319 320 321 321 336 337 340 341 340 339 337 335 335 336 337 336 334 336 337 339 341 340 338 337 336 335 336 337 339 340 339 338 338 339 335
315 314 314 310 316 314 312 314 318 315 316 317 318 325 329 335 341 340 341 341 339 341 339 339 338 336 334 335 336 336 334 333 336 339 340 339 337 336 334 334 336 337 337 338 339 338 338 336 334
313 316 313 314 312 314 311 315 317 316 315 315 316 317 328 338 342 340 340 337 342 342 339 338 338 337 335 334 335 335 334 333 335 336 337 337 336 335 333 333 335 335 336 337 338 336 336 334 334
314 312 310 315 316 314 313 316 316 315 315 315 316 329 330 335 340 340 340 335 343 343 341 339 338 339 339 337 335 335 334 333 334 335 335 334 332 328 327 334 335 335 335 334 334 336 333 332 332
312 308 314 314 314 313 314 315 315 316 316 317 317 322 330 335 338 340 340 341 343 344 342 341 340 339 342 342 336 335 337 336 335 333 333 334 334 334 332 333 333 333 333 334 334 333 332 332 331
308 306 311 314 313 313 313 314 314 315 316 316 317 330 335 336 339 340 339 340 341 342 342 341 340 340 340 341 337 336 337 336 335 335 334 332 331 333 334 335 334 334 334 334 333 332 331 331 330
307 307 311 311 312 312 313 313 315 315 313 316 319 334 334 336 340 341 340 342 342 342 342 341 341 342 340 339 338 337 338 335 335 330 331 330 328 331 331 335 334 334 334 333 332 332 329 328 328
307 308 312 311 314 313 314 314 313 313 315 317 324 335 336 334 339 341 341 341 342 341 342 342 341 340 342 341 340 338 337 335 332 328 328 328 329 327 327 332 333 332 332 332 332 330 329 329 327
307 311 310 313 314 314 314 315 314 314 314 314 319 330 328 334 338 337 338 338 340 341 341 342 341 337 338 341 340 339 336 332 331 329 329 325 326 327 331 330 331 331 331 331 331 328 324 325 326
313 310 311 311 312 313 314 313 312 314 314 314 319 331 333 334 334 333 333 334 337 340 341 341 338 336 336 336 339 337 334 332 330 328 325 325 326 326 329 329 331 331 330 329 327 321 321 324 325
313 314 311 312 313 313 313 311 311 313 313 314 314 325 332 332 332 332 332 333 336 337 336 336 338 338 337 336 335 335 334 333 331 329 326 327 325 328 326 329 329 330 329 327 323 320 321 323 322
316 313 315 314 313 313 313 313 312 311 313 314 312 322 332 332 331 330 330 332 333 336 336 335 336 336 337 335 335 334 334 331 329 327 326 326 329 329 329 330 331 328 329 325 321 320 322 322 321
313 315 314 314 313 312 312 313 313 314 312 312 310 328 331 331 331 330 330 332 333 333 334 334 336 335 335 333 333 331 330 329 328 325 324 328 328 327 330 330 329 328 328 325 320 321 322 322 321
311 312 312 313 313 313 314 314 312 313 312 311 309 315 330 330 329 325 327 328 331 332 333 333 331 331 331 331 331 330 327 326 328 326 325 327 327 328 329 328 328 326 327 325 321 320 319 320 320
314 314 313 313 313 312 313 314 312 311 310 311 310 314 325 328 325 326 327 327 331 331 330 330 331 331 332 332 330 328 325 324 325 327 326 327 327 329 328 326 327 325 326 324 320 319 319 321 320
315 314 316 314 313 313 312 317 315 312 310 310 310 308 320 325 325 326 327 327 329 330 330 330 330 331 333 332 331 329 327 325 324 325 326 325 328 328 327 326 325 322 324 323 318 318 319 320 320
313 315 314 314 314 313 311 315 314 312 311 311 310 309 308 320 323 325 326 327 329 329 329 326 325 324 329 329 331 330 328 326 325 328 328 326 326 327 326 325 323 318 320 319 317 318 318 321 320
314 315 313 314 314 314 314 315 315 314 314 311 310 310 307 316 322 324 325 327 328 329 327 326 325 323 325 325 328 330 329 326 326 329 328 326 326 326 324 323 319 316 315 315 316 318 316 320 321
313 314 315 314 314 315 315 315 315 315 314 313 315 314 310 315 321 324 326 327 327 327 325 324 323 322 323 324 325 327 328 328 328 329 328 327 326 324 322 319 315 313 312 313 314 318 316 319 320
309 311 312 313 314 315 314 315 315 315 315 315 314 315 310 321 325 325 326 326 325 325 324 323 324 321 323 325 325 326 327 327 328 328 328 326 324 321 318 316 313 312 312 313 316 317 316 318 319
313 316 313 314 315 314 315 317 315 315 315 316 316 313 311 322 326 326 327 326 324 323 322 322 323 322 323 324 324 324 326 325 325 327 326 326 325 322 316 316 314 314 314 317 317 317 317 318 317
319 316 316 313 318 318 319 322 320 318 317 317 317 312 312 322 325 326 327 326 324 323 323 322 323 322 322 323 324 324 324 324 324 324 324 325 324 322 317 315 318 314 316 318 319 320 319 318 317
316 317 316 317 318 319 319 323 319 317 318 318 318 314 311 320 325 326 326 326 324 323 323 323 322 322 322 322 323 324 323 323 323 323 323 323 323 323 321 317 319 320 317 319 320 320 321 319 318
316 316 316 316 320 322 318 320 319 317 318 319 319 315 312 318 324 325 324 325 323 322 322 322 322 323 322 322 322 322 322 322 322 323 322 322 323 323 322 322 322 321 322 317 318 320 321 319 319
316 318 317 318 320 320 318 319 318 317 319 319 319 317 313 320 324 325 324 324 322 321 322 322 322 323 323 322 322 321 321 321 322 322 322 322 322 321 321 320 321 322 321 323 322 322 321 320 320
316 318 320 324 323 324 317 320 318 318 319 319 319 317 314 319 324 325 323 323 322 322 321 322 322 323 324 323 321 321 320 320 320 322 322 321 321 321 321 322 322 322 322 322 322 322 321 321 321
319 321 319 325 323 328 322 324 319 326 320 322 321 318 316 322 324 325 323 322 322 321 321 322 322 323 323 324 322 321 321 321 320 320 320 321 321 320 320 321 322 322 321 322 321 321 320 318 318
316 319 325 320 325 328 325 325 330 329 326 323 319 318 318 326 324 324 324 321 321 321 321 322 322 323 323 323 323 323 322 321 321 320 320 320 320 320 320 321 322 321 322 322 322 322 321 319 319
320 318 320 323 323 329 331 331 327 327 325 324 321 320 323 326 325 324 324 322 322 322 322 322 322 322 322 323 323 323 322 322 322 321 320 319 319 319 319 320 320 321 322 321 321 321 321 320 320
318 318 321 325 328 325 325 323 326 323 322 323 321 322 321 325 325 324 323 322 322 321 321 321 321 322 322 323 323 323 323 322 322 321 321 320 319 318 318 319 320 321 321 321 321 320 320 320 320

GFSSGP_925_thetae_084.txt.gz
Theta_e
317 315 312 313 313 311 315 313 312 314 315 314 315 317 318 318 319 318 331 338 338 338 338 337 339 345 338 337 336 336 339 342 341 340 338 337 337 337 336 334 335 339 339 340 336 334 338 338 337
316 313 314 309 312 312 310 312 316 315 315 314 319 326 327 323 337 337 337 338 336 338 337 337 339 343 337 337 336 336 337 341 340 339 337 336 337 337 336 335 336 338 340 338 338 339 337 337 336
314 314 311 313 311 311 308 311 315 315 313 315 315 318 324 329 339 338 336 334 337 339 336 337 339 342 343 336 336 335 336 337 341 341 340 339 338 337 337 336 337 337 338 338 338 337 336 335 334
315 310 308 314 315 313 310 314 314 314 314 314 314 319 328 332 338 338 337 335 337 340 337 336 338 342 345 339 337 335 336 340 344 342 342 340 339 338 337 336 336 335 335 337 338 336 335 334 333
311 307 312 314 314 312 312 313 314 315 315 315 315 317 328 332 337 339 338 336 337 341 339 337 338 341 343 344 340 337 334 337 340 341 339 339 337 337 336 334 333 333 334 335 335 335 335 334 333
306 306 312 313 313 312 311 312 314 314 314 314 314 317 327 334 338 339 338 335 339 341 341 339 338 339 343 341 339 339 337 335 336 336 334 334 334 333 331 331 333 332 333 334 335 334 333 333 332
305 307 310 310 312 312 312 310 313 314 312 314 318 324 330 334 338 339 338 339 341 342 341 341 340 340 342 341 340 338 337 336 336 334 331 330 330 327 328 331 330 331 333 334 334 333 332 332 331
304 306 309 308 312 312 312 314 313 314 314 314 324 326 326 330 339 339 339 340 342 342 341 341 342 345 340 341 340 339 337 336 331 330 330 332 331 332 331 330 330 332 332 333 333 332 331 330 330
305 308 307 309 311 311 312 314 313 313 313 313 315 322 326 329 338 339 339 341 341 341 341 341 342 346 339 339 340 339 338 335 333 332 330 328 327 326 326 328 329 330 331 332 332 331 330 330 328
310 309 308 308 309 310 311 313 313 313 313 312 313 318 330 333 337 336 335 336 339 340 341 341 341 342 339 339 339 339 337 332 332 329 327 327 326 326 326 327 329 329 329 332 331 328 327 327 326
313 312 309 311 310 311 311 310 310 312 311 312 313 313 330 331 334 334 335 335 336 338 339 341 341 340 338 338 340 337 334 332 328 327 328 327 327 326 327 326 328 328 328 332 330 328 327 326 325
314 313 313 312 312 313 312 311 312 310 312 313 311 311 324 331 331 332 332 332 334 336 338 339 340 338 336 336 339 337 334 332 330 328 328 328 326 325 327 328 327 327 328 330 324 323 324 325 324
312 314 313 313 312 311 311 312 313 312 310 310 309 310 317 328 330 331 332 330 333 335 336 336 337 337 336 336 336 336 332 331 330 329 328 327 325 326 327 327 327 327 329 329 321 321 323 324 323
308 309 309 310 311 311 313 314 312 313 310 310 309 308 312 323 328 330 328 329 331 332 335 335 334 335 333 333 333 333 332 331 328 328 328 327 326 327 327 329 328 327 328 327 321 321 322 323 321
311 312 312 312 311 311 311 313 312 312 310 310 309 308 307 318 326 327 329 328 329 330 332 334 334 335 335 330 329 330 330 330 327 327 326 327 328 329 328 329 328 328 328 325 320 321 322 322 320
312 312 314 312 312 312 311 315 313 311 310 311 308 307 307 312 324 327 328 327 327 329 331 332 333 331 330 327 327 328 330 328 327 327 325 327 328 328 328 328 328 328 328 323 319 321 321 321 320
309 310 312 313 313 313 311 314 313 312 310 309 308 307 307 307 316 324 326 326 327 329 331 331 330 330 329 328 328 328 330 326 327 326 325 327 328 327 327 327 325 327 327 324 319 319 320 319 319
308 312 313 314 312 312 312 313 313 312 312 313 311 309 308 306 308 314 323 325 326 329 330 329 328 328 328 328 329 329 329 328 325 325 325 325 326 327 327 326 324 326 325 323 319 318 319 320 319
310 311 310 309 310 312 311 312 313 312 311 310 310 310 310 309 308 314 323 325 326 327 328 327 325 324 326 326 328 329 328 327 326 326 327 326 325 326 326 324 325 324 323 321 318 318 318 319 319
307 307 308 309 310 311 312 313 313 312 312 313 311 311 311 310 320 322 323 324 325 323 324 324 323 322 323 324 324 326 328 327 327 326 327 326 324 326 324 323 323 322 319 319 317 317 317 318 319
309 311 313 314 314 311 312 314 312 312 313 313 312 312 312 311 316 325 325 324 324 322 322 323 322 321 322 323 324 324 325 326 326 328 326 325 324 324 321 323 322 318 317 318 316 317 317 318 319
316 315 316 315 315 315 315 319 313 314 315 315 314 313 313 311 317 325 325 324 325 323 322 322 323 321 321 322 324 324 325 325 324 326 325 324 325 322 320 321 319 316 314 315 316 317 316 319 317
316 316 317 316 316 316 315 317 314 314 315 315 314 313 313 311 319 325 325 324 325 323 322 321 323 321 322 323 323 324 324 324 325 325 325 324 323 321 317 317 315 314 313 314 315 317 316 318 318
314 315 315 315 317 318 314 316 315 315 315 315 315 315 315 312 321 324 323 325 324 322 320 321 321 321 321 322 322 324 324 324 324 323 323 323 322 321 319 316 313 313 314 316 314 316 318 316 318
314 316 315 316 321 319 314 316 316 315 315 315 316 316 315 313 321 324 324 325 323 321 320 320 321 320 321 322 321 322 323 323 323 323 322 323 323 322 321 317 315 315 316 315 315 317 318 319 318
315 316 317 321 321 321 319 316 316 323 322 321 320 317 315 312 321 324 324 324 323 322 320 320 319 320 321 321 321 321 321 322 323 322 322 322 322 322 322 321 319 316 318 317 318 319 320 320 320
317 319 317 321 319 323 321 319 322 324 323 322 321 320 320 316 319 324 323 324 322 321 321 320 320 321 320 322 320 320 320 319 320 322 322 322 323 323 323 322 321 321 319 315 320 320 318 319 320
315 318 324 321 320 323 321 322 327 325 323 322 322 321 323 320 317 323 323 323 322 321 321 320 321 322 322 322 322 320 320 319 319 319 321 322 322 322 322 322 322 320 320 320 316 320 321 320 321
318 319 320 320 323 324 322 323 326 325 322 322 322 323 323 319 323 324 322 321 322 321 320 320 321 322 322 322 322 321 320 321 320 320 320 320 320 321 321 321 321 321 321 321 321 321 320 321 321
316 316 316 323 322 322 320 320 325 325 320 321 321 322 322 323 324 323 321 321 320 320 319 319 321 322 322 322 323 322 322 321 321 320 321 320 320 320 320 320 320 321 321 321 321 321 321 321 320

GFSSGP_925_thetae_087.txt.gz
Theta_e
314 315 312 315 319 318 318 317 314 317 318 316 316 319 321 321 330 326 330 339 337 336 338 337 336 336 339 337 336 337 341 343 342 341 339 337 338 338 340 339 339 340 340 340 338 335 339 339 337
317 313 313 315 317 315 314 316 317 319 318 316 317 324 324 324 330 335 337 340 337 334 335 337 336 341 338 337 336 336 341 343 342 341 339 338 338 338 338 338 339 339 339 339 339 340 339 338 337
314 313 317 320 317 313 314 313 318 317 317 316 317 321 323 327 338 336 333 338 333 336 335 336 336 344 338 337 336 337 343 343 342 341 339 338 338 338 337 338 339 338 337 337 338 339 338 337 336
314 314 313 318 317 316 313 315 317 317 316 315 316 318 324 329 339 339 332 337 334 336 336 336 336 344 342 338 336 337 341 344 342 340 339 338 338 337 335 336 337 337 337 337 336 336 336 336 335
311 313 315 317 317 315 314 314 315 317 316 317 316 318 323 331 334 337 336 333 333 337 336 336 337 342 341 339 336 337 337 341 342 340 339 339 339 336 335 335 334 335 336 336 336 335 336 335 335
312 312 314 313 315 314 314 315 315 315 315 316 316 316 322 334 338 338 338 336 334 336 336 336 338 342 340 340 337 336 336 336 342 341 340 338 338 336 335 333 334 332 334 337 336 334 335 335 334
311 314 312 313 314 314 314 314 315 315 315 316 318 322 326 332 337 339 339 336 336 338 337 337 338 341 340 340 339 337 335 337 339 336 340 337 338 336 334 333 330 331 333 335 335 335 335 334 333
309 312 311 312 313 313 313 313 315 315 316 315 322 323 320 329 336 339 340 339 339 341 341 339 340 344 339 338 339 339 337 336 337 337 337 336 335 334 332 329 326 331 332 333 333 334 334 333 332
307 312 312 312 312 312 313 314 314 313 315 314 315 320 321 330 337 339 339 340 341 342 341 341 340 341 340 339 340 338 337 335 335 336 333 333 331 328 328 328 330 330 333 333 332 332 332 332 331
313 313 312 310 312 312 312 313 314 314 315 315 315 316 321 332 337 340 340 340 339 340 341 341 344 341 340 339 339 338 338 337 335 333 331 329 328 327 326 326 325 328 330 333 332 331 331 331 329
314 314 311 311 311 311 312 311 312 313 314 314 315 316 322 325 333 339 340 339 339 338 339 340 342 342 338 339 337 337 338 337 334 330 330 330 328 326 325 328 328 329 330 329 329 330 330 329 328
314 313 313 312 312 313 313 313 313 313 314 315 315 316 314 319 325 333 339 338 337 337 338 339 340 343 342 337 335 336 336 334 333 332 331 329 326 326 326 326 326 328 328 327 329 330 328 327 326
314 314 314 314 314 314 314 314 315 315 314 315 314 312 314 315 319 325 332 336 335 336 337 337 339 340 341 337 335 334 333 332 331 331 329 327 326 327 326 327 328 328 328 328 328 327 326 326 325
309 310 311 311 312 312 313 314 314 314 314 315 314 314 314 315 316 320 330 333 333 334 335 336 338 339 339 338 334 334 332 332 331 329 328 327 327 327 327 328 327 328 327 326 327 326 326 325 324
310 310 312 313 314 314 313 313 314 315 315 314 315 316 315 315 313 318 322 328 331 332 334 335 337 338 336 335 334 333 331 331 330 330 328 327 327 328 327 327 328 327 327 325 325 325 324 323 322
310 311 312 313 313 313 314 314 314 314 314 314 314 314 314 314 313 315 321 325 329 331 332 333 334 335 335 332 332 330 330 330 330 329 328 328 328 328 327 328 327 327 326 323 322 322 322 322 321
308 309 313 313 313 314 314 315 313 314 315 315 315 315 314 313 314 313 318 324 327 329 330 331 332 333 333 332 330 328 328 328 329 328 327 327 328 327 328 327 327 326 326 321 322 321 322 322 321
306 309 312 313 314 312 312 312 312 313 313 315 315 316 316 315 315 315 314 319 325 328 329 330 330 332 330 329 328 327 327 326 327 327 324 325 326 327 328 326 326 326 325 320 321 320 321 321 321
309 311 311 310 309 309 310 311 312 312 313 314 314 315 316 316 317 315 313 319 325 327 328 328 328 329 328 328 328 328 327 326 326 326 326 325 326 327 328 327 327 325 323 321 319 320 320 321 320
308 308 309 310 309 312 314 315 314 314 313 313 314 315 316 316 316 316 320 323 324 326 327 327 327 327 327 327 328 328 328 327 326 326 325 325 325 327 327 326 325 323 323 320 318 319 320 320 320
308 310 311 313 314 315 314 315 314 313 313 313 313 314 315 316 317 317 323 324 325 325 326 325 326 325 324 325 325 326 326 327 327 326 327 326 326 326 326 326 324 322 321 320 318 318 320 319 319
313 312 313 316 317 315 315 316 313 314 315 315 316 316 315 315 316 317 322 325 325 325 324 325 324 325 324 324 324 324 325 326 326 326 326 326 326 325 325 324 323 321 320 320 319 317 319 320 320
316 316 316 315 317 317 316 318 315 315 316 317 317 317 317 317 318 318 323 325 325 324 322 323 323 322 322 322 323 324 324 325 325 326 325 323 323 320 320 322 321 320 319 319 319 317 318 319 320
315 314 315 316 316 319 316 317 316 316 317 321 322 320 317 318 317 319 325 326 326 323 322 321 321 322 321 321 322 323 324 324 325 324 322 320 320 320 321 322 321 318 317 318 318 317 317 318 320
314 316 319 319 319 317 315 317 317 316 323 324 324 322 322 320 318 326 327 327 326 323 322 321 321 322 322 321 322 323 324 324 324 324 323 321 319 320 319 318 317 316 316 315 316 317 316 317 319
315 316 317 317 321 320 319 320 317 324 322 322 322 323 324 325 323 324 327 327 326 323 321 322 322 322 321 321 321 322 323 323 324 323 323 323 321 319 319 317 315 314 313 312 314 314 316 317 317
317 318 317 320 319 320 318 320 318 323 323 322 323 323 324 324 324 322 326 327 325 323 321 321 321 321 321 320 321 321 321 322 322 323 323 322 322 322 322 319 317 316 314 310 309 317 316 315 316
316 317 320 319 320 321 319 320 321 326 324 322 323 324 324 323 325 321 324 326 324 324 321 321 320 321 320 320 320 320 320 320 321 322 322 322 322 322 321 321 321 319 317 313 311 315 316 315 313
318 318 317 320 322 323 323 320 326 324 321 323 322 322 323 322 325 325 325 325 324 322 321 320 320 320 320 321 321 320 319 319 319 320 320 322 322 322 321 321 321 320 319 316 315 314 317 320 319
316 316 316 318 321 321 321 321 322 316 319 320 322 321 320 319 325 325 322 322 322 321 320 320 320 320 320 320 322 321 320 321 320 320 320 320 321 321 322 322 322 321 321 320 319 316 316 318 320

GFSSGP_925_thetae_090.txt.gz
Theta_e
314 318 314 319 321 319 319 318 319 322 322 321 321 321 323 325 330 328 335 342 343 343 345 335 335 334 338 338 338 337 338 340 341 340 338 339 339 341 342 342 341 341 341 342 341 341 341 339 337
318 315 315 320 317 318 318 319 319 320 322 321 321 321 324 324 325 331 339 344 344 342 345 344 338 334 339 338 337 337 338 341 342 341 339 340 340 341 342 342 340 340 340 341 341 341 340 338 337
317 314 318 318 319 317 318 318 319 321 320 321 322 323 325 326 332 331 336 342 344 342 343 345 338 336 339 338 337 337 340 342 343 342 340 340 342 340 341 340 339 340 340 339 340 340 339 337 338
316 315 317 318 316 317 317 317 320 321 319 319 320 322 322 327 333 333 335 341 341 340 342 344 336 337 339 337 337 337 349 344 344 343 341 341 342 340 339 339 339 339 338 338 338 338 338 337 337
316 317 316 316 316 317 318 317 321 322 320 318 319 322 322 328 333 339 337 340 339 341 342 340 336 339 339 338 337 337 346 347 343 343 341 343 342 339 337 338 338 337 337 336 335 338 338 337 336
317 316 316 316 316 316 317 317 318 319 318 317 318 320 322 330 335 339 340 342 341 343 343 343 337 340 340 339 337 337 340 346 345 342 341 341 341 338 335 336 336 335 334 335 335 335 337 336 336
316 316 315 315 315 315 316 317 317 316 316 316 319 321 324 328 335 342 343 341 344 345 344 341 340 340 340 340 338 338 337 339 344 341 340 338 337 337 335 334 334 333 334 335 336 335 336 335 335
316 315 316 315 314 315 315 315 316 316 316 319 320 321 325 324 332 343 344 344 344 345 345 342 340 342 341 341 339 337 338 337 336 337 338 338 337 336 335 334 333 333 333 335 336 334 335 334 334
315 316 317 316 315 315 315 315 316 316 317 317 318 319 321 325 331 338 344 345 344 345 344 344 343 343 342 342 342 339 337 338 338 337 337 338 337 336 335 334 332 331 330 335 334 334 335 334 333
316 318 318 318 316 316 316 315 315 316 316 316 317 317 317 320 326 329 338 343 343 344 345 345 343 342 342 342 342 341 341 339 339 339 339 335 337 337 334 331 327 327 326 331 332 331 333 333 332
316 317 318 316 315 316 316 316 315 315 315 315 316 316 317 321 320 323 328 336 339 341 343 340 343 343 343 342 341 341 342 341 339 338 338 337 337 334 332 327 326 326 329 327 330 330 330 331 331
317 316 316 316 315 315 315 315 315 315 316 316 316 316 317 318 319 320 323 328 336 338 341 341 343 342 341 340 339 340 339 339 338 337 335 334 333 330 331 329 326 328 328 329 331 330 330 330 330
315 314 314 315 315 315 315 315 316 317 317 317 317 317 318 318 318 318 320 323 328 336 341 341 340 341 340 338 339 338 337 337 337 335 335 332 331 331 328 327 327 329 328 330 330 329 329 330 329
313 313 314 314 314 315 315 316 316 317 317 317 317 318 318 319 319 318 319 323 325 332 337 342 340 340 339 338 337 336 336 336 335 334 333 332 330 328 329 326 329 329 329 329 327 328 329 329 328
313 314 315 315 315 316 316 317 318 317 317 317 318 318 318 319 319 319 319 321 325 329 334 340 340 339 339 337 336 335 334 334 333 333 332 330 329 328 328 327 329 329 327 327 327 329 328 328 327
311 312 313 313 314 315 316 315 316 316 317 317 318 318 318 319 319 318 318 319 321 327 331 337 339 338 338 337 335 334 333 333 333 332 331 329 328 328 330 329 328 329 327 327 327 327 327 327 327
310 310 311 312 314 315 316 315 316 317 317 317 318 318 319 319 319 318 318 319 322 325 330 335 339 337 336 335 334 333 333 332 332 331 330 329 328 327 328 328 328 328 327 326 325 326 326 326 326
308 308 309 311 312 314 314 314 315 315 314 314 315 317 318 319 319 319 319 319 320 325 329 333 337 337 335 335 334 334 330 330 329 330 329 329 327 327 328 328 328 327 325 325 325 326 326 326 325
308 309 310 312 312 310 311 311 311 313 314 315 315 316 316 317 319 319 319 319 320 324 329 332 336 334 334 333 333 333 330 329 327 327 328 328 327 328 328 328 327 326 325 324 325 325 325 325 324
309 308 307 308 310 312 313 314 316 315 315 316 316 316 317 317 317 319 319 319 324 325 329 331 334 332 334 334 334 331 329 329 327 327 327 327 326 327 327 327 326 325 324 324 325 325 325 325 324
311 310 311 310 311 314 316 316 315 316 316 316 316 317 317 317 318 318 319 319 324 327 329 331 333 332 334 333 332 331 329 328 327 327 326 326 326 327 328 326 326 324 323 324 324 325 325 324 323
311 310 311 311 315 317 316 314 313 314 315 317 319 321 321 320 319 318 318 320 324 327 329 330 332 333 332 331 331 330 329 328 328 327 326 326 326 326 327 326 325 324 324 323 324 325 325 324 324
311 315 315 316 317 316 316 318 315 315 317 320 322 324 324 323 320 320 319 320 322 327 329 330 332 331 330 330 329 328 327 327 329 328 327 326 326 325 326 325 325 324 324 324 323 324 324 324 324
315 317 316 315 315 319 316 317 314 318 320 323 325 325 326 325 325 321 320 320 325 328 327 328 331 331 330 329 327 327 327 326 327 326 325 325 325 325 325 325 325 324 323 323 323 323 324 324 323
315 314 318 320 320 316 317 317 316 318 325 326 326 326 326 327 327 326 325 327 327 328 324 327 330 329 328 327 326 326 326 327 327 324 323 320 320 321 322 322 322 322 322 323 323 321 323 323 324
315 315 316 315 316 316 317 320 320 324 324 324 324 324 325 326 328 327 326 328 329 326 323 325 327 328 326 325 325 325 326 326 326 324 322 320 320 319 319 319 320 319 320 321 321 321 321 321 322
316 319 316 319 318 320 316 317 322 323 324 323 323 323 324 326 329 328 326 328 329 327 323 324 327 328 326 324 324 325 325 325 325 323 323 320 320 319 318 318 318 318 319 320 320 320 319 319 320
317 316 320 320 321 320 317 318 321 325 322 321 322 323 324 325 329 329 324 327 329 327 323 324 327 327 324 324 323 324 324 324 325 324 323 322 320 319 319 319 317 317 315 314 315 314 315 317 318
318 318 319 320 321 324 319 321 326 321 318 318 321 322 323 325 326 328 327 326 328 326 323 323 325 324 323 323 322 323 322 323 323 323 322 322 322 320 320 320 319 314 313 314 315 312 314 317 318
316 316 318 320 323 320 321 320 321 319 314 313 317 321 321 318 318 324 324 326 325 323 323 322 323 322 323 322 322 322 321 322 322 322 322 322 322 322 322 322 319 318 318 319 317 314 313 315 318

GFSSGP_925_thetae_093.txt.gz
Theta_e
317 319 318 318 320 321 319 321 322 322 323 324 324 324 324 327 328 333 335 339 339 341 344 332 332 333 334 337 340 340 339 341 341 339 337 337 339 341 341 342 342 343 343 343 342 342 342 339 338
318 320 317 319 320 320 321 322 322 321 323 324 324 324 323 326 327 333 335 341 340 340 344 344 332 333 335 336 338 339 339 340 342 340 338 338 340 341 342 342 343 343 343 342 342 342 341 339 337
318 318 318 318 319 321 320 322 321 321 322 322 324 324 325 325 327 328 337 340 339 337 342 346 332 333 336 338 338 338 338 342 343 342 340 339 340 342 343 342 342 342 341 341 342 342 340 338 337
320 318 318 319 320 320 321 321 320 321 322 322 322 323 325 327 332 330 337 339 338 338 340 343 334 332 336 338 337 337 339 342 347 344 341 340 341 342 342 341 340 340 340 340 340 339 338 338 337
317 318 317 318 318 319 320 320 320 321 323 321 322 322 324 326 329 334 336 337 337 338 341 343 335 332 335 337 337 338 343 345 347 345 342 341 342 341 338 340 339 339 339 338 338 338 338 338 337
319 318 319 320 320 320 320 320 319 320 322 322 320 321 323 329 331 334 335 338 337 339 342 345 337 333 334 337 337 337 346 347 347 346 344 343 341 339 338 339 339 340 338 337 335 337 338 337 336
319 320 319 320 321 321 321 320 320 319 320 321 321 320 322 327 333 338 337 339 339 342 344 346 342 340 337 339 337 337 339 346 345 346 344 342 341 339 337 338 338 337 338 336 334 335 337 337 335
319 320 321 321 321 320 320 318 319 318 319 319 319 319 320 327 330 338 341 340 343 345 346 346 345 343 343 342 338 338 337 341 346 344 340 338 338 338 337 336 337 336 337 335 334 335 336 335 334
319 320 321 321 320 320 319 317 318 318 318 318 319 319 323 323 326 332 343 345 345 346 347 346 345 344 344 343 342 338 338 338 339 343 341 339 338 338 337 335 336 335 334 333 332 333 334 332 333
320 321 320 320 320 320 318 318 318 317 317 318 318 319 319 319 321 327 334 344 345 346 346 346 345 344 344 342 343 341 341 340 341 341 341 338 338 338 337 335 334 333 332 330 329 330 333 332 333
319 320 320 320 320 320 319 319 319 318 318 318 318 318 319 318 319 324 324 331 340 343 344 346 345 345 344 341 342 341 341 341 341 341 340 337 337 337 336 335 333 331 328 327 326 326 330 330 333
319 318 319 319 319 319 318 318 318 318 319 318 318 318 318 318 319 322 321 324 330 338 341 347 344 345 344 342 341 341 340 341 341 340 340 339 338 337 335 335 332 328 327 326 329 325 326 329 332
317 317 317 318 317 318 318 317 318 318 319 319 319 318 319 318 319 318 319 320 324 331 337 344 344 344 344 345 343 342 341 340 341 340 339 338 338 337 336 333 332 331 328 329 327 325 327 328 330
313 313 314 314 315 316 316 317 318 318 319 319 319 319 320 320 320 319 318 319 321 325 332 342 345 344 343 343 342 342 341 340 341 339 338 338 336 336 334 332 331 330 328 328 327 328 327 328 327
316 316 316 316 315 316 317 318 318 318 319 319 319 320 320 320 320 321 319 319 321 323 325 338 345 342 343 343 341 340 339 339 339 339 339 337 336 334 333 331 330 330 328 327 328 328 328 328 327
312 313 313 313 313 314 316 318 317 318 319 319 319 319 320 320 321 320 320 319 319 322 325 331 341 342 341 341 341 339 339 338 338 335 336 336 335 333 332 330 330 330 329 330 329 327 328 327 327
313 311 311 312 313 313 315 316 317 318 318 318 319 320 320 320 320 320 320 319 319 321 323 330 337 343 340 340 340 339 337 337 337 337 335 333 332 332 330 331 329 329 328 329 328 326 326 326 327
309 309 310 311 311 313 315 316 316 316 317 317 317 317 318 319 320 320 320 320 319 319 323 328 335 343 339 338 337 336 336 336 335 333 333 332 331 330 331 330 329 329 328 328 327 327 326 326 326
310 310 310 309 311 313 313 313 312 313 313 313 315 316 316 316 318 318 319 320 320 320 323 329 333 343 339 337 335 335 336 334 333 331 330 332 331 329 329 329 329 328 328 327 327 326 326 326 327
310 310 312 310 309 310 310 313 313 314 315 316 316 317 317 317 318 318 318 320 320 321 322 328 332 338 338 336 336 337 335 334 332 331 329 329 330 329 329 328 328 328 327 326 325 326 326 325 326
311 312 311 310 310 312 313 313 315 316 317 316 316 317 318 318 319 319 319 319 320 321 324 328 331 336 337 337 337 336 335 331 330 329 329 328 328 328 328 327 328 327 326 326 325 326 325 325 325
312 311 310 311 312 312 317 316 316 316 316 316 318 321 324 325 324 323 320 320 319 321 325 328 331 336 335 336 336 336 332 331 331 330 329 327 327 327 327 328 328 325 325 325 325 325 325 325 325
312 311 311 312 313 314 316 317 315 316 314 318 321 324 325 326 325 325 322 321 319 320 325 329 331 334 335 337 335 335 334 333 331 329 330 327 327 327 327 328 326 326 325 325 325 325 325 325 325
312 313 315 316 316 319 316 315 316 317 320 323 325 325 326 326 327 326 324 321 319 320 328 331 332 333 334 335 335 334 333 332 329 330 330 329 327 327 327 327 325 325 324 324 325 324 324 325 325
314 317 319 318 317 315 315 316 316 320 324 325 325 325 326 327 328 327 326 323 322 323 330 332 332 333 334 334 334 333 332 330 329 329 330 327 326 326 326 325 325 325 324 324 324 325 325 326 326
314 315 316 316 317 317 316 317 316 323 323 323 324 325 325 326 329 329 328 328 327 328 332 329 332 332 333 333 333 331 330 328 329 330 327 324 323 323 325 325 324 324 324 324 324 324 325 325 325
314 317 314 317 319 322 320 318 324 322 323 322 322 323 324 325 326 331 329 328 330 331 327 327 331 332 332 332 331 329 328 327 329 327 323 323 321 321 322 324 324 324 324 323 324 324 324 324 324
314 313 317 319 319 317 314 314 326 325 322 319 319 322 323 323 324 325 330 328 330 329 325 326 330 331 330 329 329 327 327 327 327 325 322 321 320 319 320 320 320 322 323 323 323 322 323 323 324
313 318 317 317 317 319 319 322 325 320 317 316 317 320 322 322 319 318 325 329 330 329 325 325 328 330 329 328 326 326 325 325 326 326 323 321 320 319 319 319 319 321 322 322 322 322 322 322 321
313 315 317 319 320 318 322 324 320 319 315 316 318 320 320 319 314 313 314 325 328 327 325 324 328 328 326 326 325 324 325 325 324 324 323 321 319 319 319 319 319 318 319 319 319 319 319 318 316

GFSSGP_925_thetae_096.txt.gz
Theta_e
312 317 320 320 318 320 319 319 321 322 322 323 324 324 324 325 333 338 336 338 343 337 328 331 333 334 336 341 341 341 342 342 341 339 336 335 337 340 341 341 342 343 344 344 342 339 337 334 335
316 319 321 319 318 318 319 320 321 322 324 325 324 324 323 324 331 334 338 338 345 341 328 330 331 331 332 336 340 340 341 341 341 340 337 336 337 339 340 341 342 343 343 342 342 343 340 335 336
316 319 321 318 318 318 320 321 322 323 324 324 323 323 323 323 326 334 338 339 341 342 336 330 329 331 332 334 337 339 340 341 342 341 339 337 338 338 339 341 342 343 343 341 342 341 340 336 336
316 321 320 317 317 319 318 320 322 322 322 322 321 321 324 329 331 331 338 339 338 341 343 329 328 329 332 334 337 338 339 340 342 342 341 338 338 339 339 340 342 343 341 340 341 341 339 336 336
315 320 318 317 317 318 320 321 322 321 320 323 321 321 323 326 331 335 338 338 336 340 343 337 329 329 332 336 337 337 338 341 347 344 342 340 339 339 339 339 341 340 339 340 340 339 337 336 336
317 318 319 319 319 319 320 321 321 320 320 322 321 320 323 329 330 333 337 338 337 343 344 340 336 331 332 335 336 337 338 341 344 345 343 340 340 339 339 339 340 340 338 339 337 337 337 336 336
320 320 320 320 321 321 321 323 322 320 320 320 322 322 323 324 333 336 335 337 339 342 347 344 338 335 332 336 337 338 337 345 344 344 344 342 341 340 338 338 339 338 338 337 337 336 337 336 335
322 322 322 322 321 321 321 322 320 320 320 321 321 321 322 332 333 337 338 339 340 342 345 346 341 338 334 336 338 337 337 345 343 344 344 344 342 340 339 337 337 337 338 337 335 333 332 335 335
320 321 322 321 321 322 322 321 321 319 319 319 320 320 323 328 329 336 341 341 343 346 346 348 345 343 342 340 338 337 338 340 344 343 344 341 341 340 339 337 336 336 335 334 333 331 330 332 332
318 323 321 320 320 321 321 320 320 319 318 318 319 320 320 322 321 328 341 345 346 347 348 348 346 345 344 344 343 337 339 339 341 343 342 341 340 338 338 336 335 335 333 334 332 327 325 330 330
316 320 321 320 320 320 320 320 320 319 318 319 320 320 321 321 320 323 327 339 344 347 348 348 346 345 345 343 343 341 341 340 340 341 341 340 339 338 339 337 335 334 333 332 330 326 325 326 330
316 317 319 319 319 319 319 320 320 320 321 320 320 320 320 320 320 321 325 325 327 344 348 346 347 346 345 343 344 342 342 340 341 340 341 340 338 339 337 336 334 334 332 331 328 328 327 326 330
315 316 316 318 318 318 319 318 319 319 319 319 319 319 319 319 319 319 318 322 322 327 345 347 346 346 347 343 342 343 342 341 342 342 341 340 339 339 337 336 334 332 331 328 328 326 326 326 327
314 315 314 315 316 316 316 316 317 317 318 318 319 318 319 320 319 319 319 319 320 322 329 348 346 345 346 343 344 341 342 343 342 340 341 339 339 338 337 335 334 332 329 329 327 327 325 325 327
314 314 313 314 314 314 315 315 316 317 317 317 318 319 319 319 320 320 320 320 319 320 323 349 346 344 346 344 345 343 341 341 342 341 339 338 338 337 335 334 333 333 331 329 329 329 326 326 327
315 315 315 315 316 316 316 317 316 316 317 318 318 319 319 320 320 320 321 321 319 320 322 342 347 344 345 345 344 341 343 340 339 339 340 338 338 336 335 334 333 332 331 329 329 328 328 327 327
314 315 315 314 313 313 313 314 314 315 316 316 318 320 319 320 320 320 320 321 320 319 321 325 347 346 344 344 342 340 339 340 338 337 337 339 338 336 334 332 332 331 329 328 328 328 328 328 326
313 312 313 313 312 312 312 314 314 315 316 318 318 319 318 319 320 320 321 320 321 320 319 325 346 345 343 342 340 340 339 338 339 338 335 336 336 335 333 332 331 330 329 329 329 328 328 327 326
310 311 312 312 311 312 313 313 312 315 315 313 314 316 316 317 317 317 320 320 320 321 320 324 340 345 343 342 340 339 338 337 336 337 337 335 333 332 331 331 330 330 329 329 328 327 327 327 325
311 311 312 312 311 311 310 311 311 311 312 313 313 313 314 315 316 317 317 320 321 321 321 326 335 345 342 340 339 337 336 336 335 333 334 334 333 331 330 331 330 329 329 328 328 327 326 326 326
311 312 311 311 311 310 311 310 312 313 314 314 314 315 316 317 318 319 320 320 320 323 322 325 330 344 342 340 337 336 335 335 335 334 332 331 331 329 328 330 330 329 328 327 327 327 325 326 325
310 311 311 312 311 311 310 313 312 315 316 315 315 316 318 323 325 325 324 323 321 324 323 323 327 332 342 338 337 337 338 335 333 332 331 329 328 328 328 329 329 329 328 327 327 327 325 325 325
311 311 311 312 312 312 312 313 313 315 315 316 321 324 325 326 326 327 326 325 322 321 325 324 326 330 341 338 337 337 337 333 331 331 330 329 328 329 329 328 328 328 327 327 326 326 325 325 325
313 311 312 312 313 315 313 314 314 315 316 320 325 325 326 327 327 327 327 325 323 320 324 327 329 332 339 338 337 339 335 334 333 331 332 330 328 327 326 327 328 327 327 326 326 326 325 324 324
314 314 318 320 319 319 314 314 315 315 324 325 324 325 326 327 328 329 327 327 324 322 324 331 331 333 337 336 337 338 335 333 334 331 330 331 328 327 327 326 327 326 326 325 326 325 325 325 324
316 315 319 320 320 318 314 315 318 318 323 323 324 324 325 325 325 326 326 330 328 326 333 332 332 333 337 336 337 336 334 333 332 329 330 330 328 326 326 327 326 326 325 325 325 325 325 324 324
317 318 318 320 317 322 325 315 322 321 323 322 322 323 324 323 322 322 323 327 329 334 334 332 332 332 335 335 334 333 333 330 328 329 329 326 324 325 326 326 326 325 325 325 325 325 324 323 324
316 315 317 318 327 326 327 322 327 325 322 318 318 322 322 320 319 317 319 319 328 330 329 329 331 333 334 333 333 331 329 328 328 328 325 324 322 323 322 323 324 325 325 324 324 325 324 323 324
313 317 316 317 319 322 322 326 324 320 316 317 320 321 321 318 315 312 311 313 316 328 326 326 329 330 331 331 330 328 327 327 327 326 323 323 322 321 320 321 323 324 324 324 324 325 324 324 324
311 315 318 319 319 318 324 327 320 318 315 319 320 320 318 315 311 308 306 306 307 313 326 325 326 328 329 329 327 326 326 326 327 325 322 322 321 320 319 320 321 322 324 324 324 324 324 324 324

GFSSGP_925_thetae_099.txt.gz
Theta_e
309 314 317 318 314 311 313 314 315 316 316 319 321 321 321 323 335 343 344 341 335 333 336 335 331 331 336 340 341 341 341 340 339 338 335 334 335 336 338 340 341 342 342 340 340 340 338 335 334
308 317 319 316 312 311 312 315 316 316 319 322 321 321 320 325 333 339 344 337 331 327 330 332 332 332 335 339 340 341 341 341 340 339 336 335 336 337 339 340 341 342 343 341 341 341 335 334 335
311 318 315 315 311 313 311 314 316 317 320 322 322 321 321 323 333 336 343 340 333 327 328 330 330 332 335 337 339 340 340 340 340 340 337 336 336 338 339 340 341 342 342 343 342 341 335 335 335
313 315 315 314 312 311 314 314 315 315 319 320 320 320 322 331 334 339 343 341 330 329 328 328 328 330 332 335 336 338 339 340 340 340 339 337 337 338 339 340 341 342 341 341 341 340 335 334 335
313 312 316 313 312 313 313 314 315 317 319 320 319 319 320 334 338 339 340 339 335 334 331 327 329 329 331 333 334 337 338 339 341 340 340 338 338 338 338 339 341 342 340 340 339 338 336 334 335
310 311 314 317 316 314 314 314 316 318 318 319 319 319 323 334 338 338 338 339 338 339 340 328 329 329 332 335 335 336 337 338 340 341 341 340 338 339 338 338 339 341 339 338 337 336 336 335 335
314 312 314 313 315 316 317 317 318 318 317 317 319 318 318 335 334 337 337 340 340 341 341 335 331 331 333 336 335 336 337 340 341 342 343 341 340 339 339 339 338 339 338 337 337 337 335 335 335
314 316 318 317 317 317 317 318 318 316 316 319 318 317 319 332 337 338 337 342 342 342 343 340 333 333 334 336 336 337 336 338 342 343 343 342 341 340 339 338 337 337 338 337 335 334 332 332 332
317 320 321 319 319 319 319 320 319 317 316 317 318 318 328 331 335 338 340 345 345 344 344 343 334 334 335 336 336 337 335 341 342 343 342 343 342 340 340 338 337 337 337 336 335 332 331 331 331
312 316 320 317 317 318 318 316 315 317 316 316 317 318 328 330 332 337 340 343 346 346 345 345 342 335 336 337 336 335 337 339 342 342 342 343 342 341 340 338 337 336 337 336 333 331 327 326 329
312 314 313 315 318 318 317 316 316 316 316 316 317 317 317 319 322 331 340 341 346 345 347 347 346 342 340 342 337 335 337 338 341 343 342 342 340 340 339 338 337 336 336 333 333 330 327 327 326
311 313 313 313 315 317 317 316 316 316 317 316 315 316 317 317 315 317 324 341 342 347 347 347 347 345 343 344 343 336 336 337 337 338 340 340 340 338 337 337 336 336 334 333 331 326 325 327 326
310 310 312 313 314 314 314 315 316 316 314 314 315 315 315 315 316 317 319 323 336 343 348 347 347 345 344 344 343 341 338 338 337 338 339 339 339 338 337 338 336 335 333 333 330 327 326 326 325
311 311 310 311 313 311 313 314 313 315 312 313 314 314 314 314 315 315 316 317 322 323 345 347 347 346 342 344 344 342 340 340 339 338 339 340 339 338 338 337 336 334 333 332 331 327 327 327 325
312 312 312 311 310 310 311 311 311 311 312 313 314 314 314 314 315 315 317 318 317 318 321 345 346 346 343 343 343 342 341 342 340 341 339 340 339 338 338 336 335 334 333 331 329 328 326 326 325
311 311 312 313 312 312 311 313 312 312 312 313 313 314 315 316 315 317 318 318 318 319 318 331 345 345 345 344 343 342 342 343 341 341 340 339 339 338 337 336 335 333 332 330 328 327 326 325 326
310 312 312 312 312 312 310 312 312 311 313 313 313 313 314 315 316 316 317 319 318 318 319 327 344 345 346 345 343 343 341 341 342 341 340 339 339 338 337 335 334 333 332 330 328 328 328 326 326
310 312 311 312 312 311 311 310 310 309 310 310 310 311 312 314 316 317 317 318 319 319 319 321 342 345 345 344 344 343 341 340 340 340 340 338 338 337 336 335 334 333 332 330 329 328 328 328 328
306 308 307 308 309 310 310 307 308 309 310 309 310 308 308 312 313 314 315 317 318 319 319 319 343 344 344 343 342 340 339 339 339 337 337 337 337 337 336 334 333 332 331 330 329 328 328 328 327
306 306 306 307 309 310 308 307 306 307 307 308 308 308 308 308 310 311 313 314 316 319 320 321 344 344 343 343 341 340 339 338 337 338 336 335 334 334 333 332 331 331 330 329 328 327 327 327 326
309 307 306 307 309 308 308 309 307 309 309 309 310 309 310 309 309 310 312 313 314 319 320 330 344 343 342 341 339 338 338 337 336 336 337 336 334 332 331 331 330 330 330 329 328 328 327 327 326
305 309 308 307 309 310 309 310 308 308 310 310 311 313 311 310 311 317 321 321 320 319 320 331 344 343 341 340 338 338 336 335 335 335 334 334 333 332 331 330 330 330 330 329 328 327 327 326 325
308 307 311 309 309 310 309 308 309 310 311 312 315 311 312 313 323 324 323 322 324 323 322 332 343 342 340 339 338 336 335 334 334 334 333 332 331 331 330 330 329 328 329 328 327 327 326 326 325
306 308 312 313 311 312 312 311 310 311 312 314 322 325 325 324 323 323 323 323 324 324 321 324 341 342 340 339 337 336 335 335 332 332 331 331 329 328 328 327 327 328 328 328 327 326 326 326 325
309 309 315 317 317 315 312 312 312 313 313 320 326 323 322 321 321 320 320 320 321 322 322 324 328 340 339 337 336 336 335 335 333 332 330 329 329 328 328 327 328 328 327 327 327 326 326 325 325
309 310 317 317 318 316 313 314 314 313 315 323 323 321 320 319 318 316 316 317 317 325 324 327 335 338 337 337 337 337 336 335 333 332 331 330 328 327 328 327 325 326 327 327 327 326 326 325 325
313 315 310 318 319 322 321 320 322 321 323 321 322 319 318 315 313 312 311 312 312 325 326 329 331 335 337 337 337 336 336 335 333 332 331 330 329 328 327 326 326 326 327 326 326 326 326 325 324
314 314 317 319 322 323 326 326 324 320 319 321 320 316 314 311 309 307 307 308 308 310 321 326 329 330 334 335 335 336 335 332 330 329 329 328 327 326 324 324 325 325 326 325 325 325 325 325 324
315 315 316 318 318 325 326 326 313 317 322 321 316 313 310 307 305 304 303 304 304 305 307 314 326 327 331 333 332 331 329 328 328 328 327 325 324 323 323 323 324 325 325 325 325 325 325 325 324
314 314 316 317 319 319 322 321 314 317 318 315 314 312 308 305 302 301 300 300 300 300 301 304 310 326 328 328 329 328 327 327 327 326 324 322 322 321 321 320 320 322 324 324 324 325 324 324 323

GFSSGP_925_thetae_102.txt.gz
Theta_e
311 310 316 317 312 307 311 312 312 314 314 314 316 320 321 324 334 334 341 342 337 339 341 341 339 338 339 340 341 341 340 339 338 335 333 333 334 336 339 341 341 341 340 340 339 340 340 339 338
308 314 318 311 310 309 308 312 314 314 315 315 318 320 320 334 336 344 343 341 333 334 338 338 337 336 338 339 340 340 340 339 339 336 334 334 336 337 339 340 341 341 341 340 339 339 337 336 337
309 317 313 315 309 310 309 311 314 314 313 313 318 319 320 325 341 342 341 337 333 333 333 334 335 336 336 336 338 340 340 340 339 338 335 335 337 338 339 340 341 342 341 342 342 338 334 335 336
313 314 312 315 312 310 310 311 312 312 313 314 317 318 323 331 339 340 338 334 331 331 330 331 332 336 336 334 335 337 339 339 339 339 336 336 337 339 339 340 341 342 342 342 341 335 335 335 336
312 309 315 314 314 311 312 311 312 314 315 316 317 318 322 336 338 339 335 331 328 330 329 331 333 334 333 333 335 335 338 338 339 339 338 336 337 339 339 339 340 341 341 341 339 335 335 335 336
309 308 312 316 315 314 312 311 312 314 315 315 316 317 327 337 343 342 339 332 326 327 330 331 334 331 332 334 335 334 337 339 339 339 339 337 337 338 338 338 339 341 340 339 338 336 335 334 336
309 308 311 313 314 314 314 313 315 316 315 315 316 317 326 332 340 341 338 328 327 327 329 330 331 331 332 333 335 335 335 338 338 339 340 339 338 338 338 338 339 341 338 338 337 337 335 334 335
311 312 316 314 315 314 314 316 316 316 317 316 317 317 322 333 337 338 338 336 331 334 329 329 329 331 334 335 335 335 335 337 337 339 340 340 339 338 339 339 338 338 338 337 335 335 333 334 334
313 315 317 317 318 318 317 318 318 316 315 315 314 316 322 335 336 340 344 344 343 342 337 330 328 330 333 335 335 336 338 338 340 340 341 341 340 339 339 339 338 337 337 336 334 334 332 332 332
310 313 319 317 316 317 317 316 315 316 315 316 315 316 329 335 337 339 344 345 344 343 341 339 333 329 332 335 336 338 339 338 339 341 340 342 341 340 340 339 338 337 336 336 334 332 329 331 330
310 314 315 314 313 313 314 315 315 316 315 317 316 315 315 321 328 335 341 345 345 344 343 341 338 331 331 335 337 339 339 337 340 341 340 342 342 341 340 339 338 338 337 336 334 331 332 330 328
313 312 312 312 312 311 313 313 314 314 315 316 314 314 314 316 318 322 335 343 344 344 342 343 342 339 331 331 336 337 339 338 339 341 340 342 341 341 340 339 337 337 337 335 332 331 327 327 327
306 308 308 309 311 312 312 312 314 314 313 312 312 313 313 312 313 316 322 335 342 344 343 343 344 343 340 333 335 336 337 339 336 339 340 341 339 339 338 338 337 337 336 335 333 331 329 327 327
309 309 309 308 307 308 310 311 310 312 312 310 311 310 311 311 312 313 315 316 331 344 344 343 345 345 344 339 338 339 335 335 337 336 338 339 338 338 338 337 337 336 335 334 333 331 326 327 328
308 308 309 310 309 309 309 309 310 309 310 310 310 310 311 310 311 311 314 315 317 331 344 345 345 345 345 343 340 342 340 336 336 336 337 339 339 338 337 336 337 336 335 333 332 329 326 325 326
306 308 309 311 310 310 309 312 311 309 308 309 310 311 312 312 311 314 315 315 316 316 326 343 345 345 345 344 341 342 342 338 337 337 337 339 340 338 337 337 337 336 334 333 331 329 326 326 326
306 306 307 308 310 310 310 311 311 309 310 311 311 312 312 312 311 313 314 315 315 316 316 328 342 345 345 344 343 342 342 340 340 339 338 339 340 339 338 337 336 335 334 332 331 329 327 327 326
305 308 306 308 308 309 309 310 310 311 309 308 308 308 309 311 311 312 313 314 315 316 316 320 332 336 343 344 343 342 342 342 341 340 340 339 340 339 338 337 336 335 332 331 330 329 328 326 326
303 302 302 303 304 306 305 306 307 309 304 305 307 306 306 307 309 311 313 315 316 316 316 317 331 338 343 343 342 340 340 342 342 342 341 340 340 339 338 337 335 334 331 331 330 329 328 327 327
304 304 304 304 305 305 305 305 307 305 306 305 305 304 304 305 306 306 309 311 314 316 316 316 328 335 342 342 342 340 340 340 340 341 341 339 339 338 337 336 334 334 332 331 330 329 328 328 328
306 307 307 307 307 306 305 306 307 307 306 307 307 307 306 305 306 307 307 308 310 312 315 316 324 337 340 342 341 340 339 338 338 338 338 338 338 336 335 335 334 332 331 330 329 329 328 327 327
305 305 306 306 305 308 307 308 308 308 308 309 308 308 308 308 309 312 319 320 322 320 315 316 327 338 341 342 340 339 338 337 337 337 336 335 335 333 334 335 333 331 330 330 329 329 327 327 326
302 306 306 306 306 312 309 309 309 308 309 308 308 317 318 319 321 321 319 320 321 322 323 323 332 340 341 341 339 338 337 336 336 335 335 336 335 335 334 333 332 331 330 330 329 328 327 327 326
306 307 307 309 313 313 311 312 310 309 310 309 323 323 320 317 316 316 316 316 316 321 326 330 341 341 340 339 338 337 336 335 334 334 333 333 334 334 333 332 331 330 330 329 328 328 328 327 326
307 307 310 311 314 313 310 311 310 313 313 312 321 319 317 314 312 311 312 312 312 313 322 322 341 340 339 338 337 337 336 334 334 332 332 331 331 331 331 332 331 330 329 329 328 327 327 326 326
303 311 311 312 314 315 311 312 315 320 321 321 319 315 311 309 308 308 309 309 309 309 311 323 335 340 338 337 336 335 335 333 333 332 332 331 330 330 329 328 328 328 327 327 327 327 326 326 325
311 312 310 312 312 315 319 316 319 319 319 316 314 311 308 305 304 304 304 304 305 305 306 310 323 331 336 335 334 334 334 334 332 332 332 330 330 329 327 327 327 327 327 327 327 326 326 326 325
312 312 311 313 314 316 320 323 325 316 319 315 309 307 304 301 300 300 301 300 301 301 303 305 309 316 330 334 335 335 335 334 333 332 331 331 330 329 327 326 327 327 326 326 326 326 326 326 325
314 315 314 314 317 316 322 321 310 311 311 310 307 303 301 299 298 297 297 297 298 298 299 301 304 307 314 331 333 334 334 334 333 331 330 330 329 328 327 325 325 325 326 326 326 326 326 326 325
312 314 314 313 314 318 319 318 309 306 305 304 302 301 299 297 295 294 295 295 295 295 296 298 300 302 306 320 327 330 330 329 328 328 327 326 324 323 322 323 323 323 324 325 325 325 325 325 325

GFSSGP_925_thetae_108.txt.gz
Theta_e
311 310 316 312 309 305 307 307 308 310 311 311 311 314 313 315 321 327 339 340 340 338 341 341 340 339 338 337 335 333 333 333 334 335 338 341 340 342 339 339 339 339 338 339 340 339 339 338 339
309 313 315 307 305 304 303 307 309 308 310 310 310 312 315 318 328 339 342 341 338 337 341 341 340 339 338 338 336 335 333 332 333 335 339 341 342 342 340 340 340 339 340 340 339 338 337 337 337
312 315 310 311 304 304 303 304 308 310 309 310 311 312 313 318 331 339 341 339 338 339 341 340 340 339 339 338 338 336 335 333 332 333 336 339 340 340 340 340 339 339 339 339 338 338 337 337 337
314 312 307 311 310 308 305 307 308 310 312 311 312 313 313 319 334 338 340 340 340 341 341 340 340 340 339 339 339 338 336 335 333 333 334 335 336 337 339 339 339 339 340 342 344 338 337 337 337
311 307 309 313 312 311 308 309 310 313 313 313 313 314 313 316 335 337 340 340 339 341 341 340 340 340 340 339 339 338 338 336 334 333 334 335 336 337 338 339 340 341 341 343 339 335 334 336 336
307 306 310 309 311 311 310 311 312 313 313 313 314 313 313 324 338 340 342 341 340 339 340 340 340 340 340 339 339 339 338 337 336 334 335 335 336 337 338 339 340 342 341 341 334 333 335 336 336
305 306 307 310 312 313 312 311 313 313 314 315 314 314 313 323 326 339 341 340 340 340 340 340 339 339 339 338 338 338 338 338 337 335 335 336 336 337 338 338 339 340 340 339 334 334 335 335 335
304 306 311 309 311 311 312 314 314 316 316 314 313 314 314 317 333 339 340 340 340 340 340 341 340 339 339 338 338 338 338 338 338 337 336 336 337 337 338 338 338 339 338 337 334 334 334 335 335
307 311 311 311 312 312 314 315 315 314 314 314 314 314 314 323 338 338 337 338 339 338 339 340 342 340 338 338 338 337 337 338 338 338 337 337 338 338 338 338 338 339 338 336 335 334 334 335 335
310 312 312 311 311 314 315 313 313 315 314 314 314 314 315 319 335 339 339 337 337 338 339 338 340 339 338 338 338 339 339 339 339 339 338 337 338 338 338 338 338 339 337 335 335 334 334 335 334
308 310 311 313 313 313 312 312 312 313 313 313 314 313 312 313 321 333 334 339 339 337 336 339 338 338 337 337 337 339 340 340 339 338 338 338 338 339 339 339 339 338 337 336 335 335 334 334 334
311 308 310 309 310 310 310 310 310 310 311 311 310 310 311 311 311 314 322 329 336 341 338 335 337 337 333 333 336 341 345 341 338 338 339 339 339 339 340 339 339 338 338 336 335 335 333 333 333
306 307 306 305 305 305 305 306 307 308 307 308 308 309 309 310 310 312 314 316 319 326 339 339 335 336 336 334 335 337 342 340 337 337 338 339 339 339 339 340 339 338 337 336 335 334 333 333 333
305 303 303 303 305 306 306 308 306 308 308 307 306 307 308 308 309 311 311 313 314 316 324 337 341 335 336 335 335 333 335 336 338 338 339 338 337 339 340 339 340 338 338 336 335 334 333 332 332
303 302 302 304 306 307 306 306 307 306 305 305 305 304 305 306 307 307 310 311 312 313 314 322 334 341 338 336 335 334 333 336 337 336 337 336 338 339 341 339 339 339 338 337 336 334 332 330 331
302 302 303 306 303 304 307 305 305 304 304 304 304 305 306 305 305 308 310 310 312 313 313 314 318 333 341 339 335 334 335 335 334 334 335 337 338 337 338 340 337 337 337 337 336 334 331 331 330
301 300 302 303 302 302 302 304 305 304 302 303 303 301 302 305 305 307 309 310 311 312 313 313 314 325 336 340 338 335 334 333 333 335 336 336 338 336 339 340 337 336 335 335 335 333 331 329 327
300 300 302 304 303 303 302 303 304 304 302 303 303 302 302 303 304 306 307 308 309 310 311 311 312 315 328 339 338 336 335 334 333 334 336 336 338 336 335 338 338 335 331 333 332 332 331 329 327
302 304 305 305 304 304 303 303 304 304 302 302 303 303 303 303 304 304 304 305 306 307 309 310 311 313 328 339 339 338 337 336 335 334 333 335 333 339 336 338 336 336 331 330 331 330 330 328 328
302 303 303 303 303 303 302 302 302 303 303 303 304 304 303 303 311 314 313 308 306 305 305 308 309 311 322 335 339 338 338 338 337 336 336 335 334 334 338 337 335 334 333 330 329 330 328 328 327
302 303 303 303 301 300 300 301 301 302 303 304 305 305 310 315 313 312 312 312 313 314 317 317 309 310 317 334 339 339 339 338 336 336 336 336 335 334 335 335 335 334 333 332 331 331 329 328 327
297 299 300 299 299 299 303 302 301 302 304 304 305 305 313 312 310 309 309 310 311 310 311 315 321 314 318 333 338 338 337 337 336 336 337 338 336 336 335 335 335 333 334 331 331 331 330 328 327
298 298 298 299 303 303 302 301 300 302 303 308 314 312 308 306 307 307 306 306 306 307 307 309 316 321 318 334 337 338 338 336 335 336 335 336 338 336 336 336 335 334 333 332 332 330 330 329 328
301 302 303 302 302 303 301 299 301 304 314 313 312 309 307 304 303 302 302 303 303 303 304 305 312 325 318 333 337 338 337 336 335 336 335 334 335 335 335 335 336 335 334 332 332 331 330 329 328
301 301 303 302 308 304 301 302 305 312 309 307 306 304 302 300 300 299 298 299 300 301 301 303 307 315 325 334 337 337 336 335 335 335 335 334 334 334 334 334 334 333 334 333 331 331 330 329 328
300 301 304 305 306 305 303 306 316 309 305 304 303 302 299 297 297 296 296 297 297 299 300 301 303 308 315 336 336 337 336 335 334 334 334 333 332 333 333 334 334 334 334 333 331 330 330 329 328
302 302 301 302 302 304 305 307 310 304 303 303 302 300 297 295 294 294 294 294 295 296 298 300 301 304 308 321 336 337 335 335 334 333 334 333 332 332 332 332 332 332 332 331 331 330 329 329 328
302 304 305 307 307 310 308 311 308 304 303 301 299 298 295 294 293 292 292 292 292 293 295 298 299 301 304 310 324 335 335 334 334 333 334 332 332 332 331 331 330 331 330 330 331 329 329 329 328
305 306 305 305 309 310 308 307 305 302 300 298 297 296 294 293 291 291 291 291 291 292 293 295 297 299 301 305 316 330 333 333 331 332 332 331 330 331 331 331 330 330 329 329 329 328 327 327 327
301 303 305 306 314 312 311 307 302 299 297 296 294 293 292 292 290 290 290 290 290 290 291 292 294 296 298 302 310 326 330 330 330 330 331 330 329 330 330 328 328 328 327 326 325 325 326 326 326

GFSSGP_925_thetae_111.txt.gz
Theta_e
311 310 315 313 314 313 311 312 311 312 313 313 313 314 315 316 317 326 338 339 340 340 340 339 340 338 336 334 335 336 337 340 342 342 342 340 337 335 336 338 338 339 338 338 340 339 339 339 338
310 313 314 312 311 310 311 310 312 313 312 312 313 314 315 317 320 329 341 340 340 339 340 341 340 337 336 335 333 334 334 336 338 340 341 340 337 337 338 338 338 338 337 338 340 339 338 338 339
311 315 315 317 310 311 311 308 312 311 311 312 314 314 315 319 322 333 341 341 342 341 341 341 340 337 337 335 334 333 334 335 337 339 340 339 340 339 339 339 338 337 337 339 339 338 337 337 337
315 315 312 314 313 311 309 310 310 313 315 313 313 317 317 318 331 337 336 340 342 342 341 340 340 338 337 336 335 334 333 334 336 338 340 341 342 340 340 339 338 338 338 339 339 338 337 337 336
311 312 313 314 314 313 313 311 312 315 315 315 314 318 318 318 330 335 339 341 343 344 341 340 340 338 338 337 336 335 334 333 335 337 340 341 340 340 340 339 338 338 338 340 340 337 336 336 336
311 311 312 313 313 313 313 313 314 314 314 316 316 317 318 317 326 336 340 341 342 344 342 340 340 339 338 338 337 337 335 334 334 335 336 337 338 339 339 338 338 338 339 338 339 337 335 335 336
310 311 312 312 314 314 314 313 315 315 316 318 315 318 318 319 330 335 339 341 342 342 342 341 341 340 339 338 338 338 337 335 334 334 335 336 336 338 338 338 339 341 340 338 335 334 334 335 335
308 310 311 312 313 313 313 315 315 316 318 316 316 318 320 318 327 335 338 340 341 342 342 342 341 341 340 340 339 338 338 337 335 334 335 336 337 338 338 339 340 341 341 339 333 333 334 335 334
309 313 313 312 312 313 314 317 317 316 317 316 316 317 317 315 328 336 339 340 340 341 340 342 343 344 342 340 339 339 338 338 337 336 336 337 340 340 340 340 340 340 339 338 333 333 334 334 334
315 317 314 312 312 314 316 316 316 316 317 317 316 316 314 314 316 319 337 339 339 339 339 339 339 341 343 341 340 339 339 339 338 338 338 339 338 339 341 340 339 340 339 337 334 333 334 335 336
310 309 313 315 314 315 315 314 314 314 314 314 314 313 314 313 314 315 323 339 338 337 337 339 338 338 340 341 342 341 340 340 339 339 338 339 339 339 339 341 340 340 339 338 335 334 335 337 336
311 311 312 312 311 310 310 311 311 311 311 312 312 312 312 313 314 314 315 321 339 340 336 334 336 339 338 339 342 342 340 341 341 341 338 338 339 340 339 340 340 340 339 338 337 335 335 336 335
308 309 307 307 305 306 307 308 310 310 311 310 309 309 310 310 311 311 311 312 317 336 341 335 332 333 337 339 341 340 339 340 344 343 342 341 342 340 340 339 339 340 339 337 336 335 335 335 334
306 305 304 304 306 306 307 308 307 310 308 307 307 308 308 308 309 309 310 311 312 314 326 336 336 332 331 333 337 340 338 339 343 341 339 340 342 341 342 340 338 338 337 337 336 335 334 335 334
303 304 304 305 307 307 306 306 308 307 306 306 307 307 307 307 307 308 309 309 309 310 311 324 326 338 336 333 330 336 337 338 339 339 338 338 340 340 340 339 339 338 338 338 336 335 334 334 333
306 303 305 305 305 304 307 305 308 306 306 306 306 306 306 307 307 306 307 308 308 308 309 311 319 326 337 337 334 332 332 334 337 338 338 337 338 339 337 337 338 338 338 338 336 333 333 334 333
304 304 303 304 305 305 306 305 306 306 305 306 306 306 306 306 306 306 306 307 307 308 308 309 311 324 323 332 337 335 333 333 334 336 337 337 338 336 335 336 336 337 337 337 337 333 334 333 332
303 303 303 304 306 306 306 306 306 305 305 305 305 306 306 306 306 306 306 305 306 306 306 307 308 310 327 333 336 337 336 335 335 334 334 334 334 335 335 335 336 335 336 336 336 334 332 333 333
305 304 305 306 305 305 306 305 304 304 303 304 305 305 306 306 307 306 312 313 312 309 306 306 307 308 316 332 335 335 335 335 335 334 333 333 333 335 334 335 335 334 335 335 334 333 332 329 329
303 304 304 304 304 303 302 302 302 302 303 303 304 305 306 307 310 313 313 312 313 314 314 315 314 308 309 324 332 333 334 335 335 334 334 333 334 336 336 334 333 333 333 334 333 332 330 330 329
303 303 303 301 301 300 301 302 303 302 303 304 308 312 312 311 310 311 310 309 309 310 311 311 313 316 316 310 327 334 335 336 336 335 335 334 335 336 335 334 332 333 333 332 332 332 331 330 327
300 300 300 300 300 300 302 302 302 302 304 313 312 309 307 305 304 304 305 305 305 307 307 308 309 311 315 318 319 333 335 334 334 335 336 335 335 335 334 335 332 332 332 332 331 331 330 330 328
301 300 301 302 302 303 302 302 302 302 308 309 307 305 303 301 299 299 299 299 300 301 302 303 306 309 314 319 321 333 335 335 335 336 336 335 334 334 335 335 334 331 332 332 332 331 330 330 330
302 303 303 304 303 302 301 301 302 311 310 307 304 303 300 298 296 296 296 296 297 297 298 300 303 306 312 320 322 331 335 335 336 336 336 334 335 333 334 333 334 332 331 332 332 332 331 330 330
301 302 304 305 306 303 303 303 305 309 307 304 303 300 299 297 295 294 294 295 295 296 296 298 301 303 307 314 321 330 335 336 336 336 336 335 333 333 333 334 333 332 332 332 333 332 331 330 330
300 301 302 303 304 304 301 301 309 306 304 302 301 299 297 296 294 293 293 293 292 293 294 296 299 302 305 309 320 330 333 334 336 336 336 334 333 333 333 333 333 333 333 332 332 332 331 330 330
301 302 301 302 302 303 302 306 306 303 302 301 299 297 296 294 293 292 291 291 291 292 292 294 297 300 302 305 311 330 332 334 334 335 335 335 334 334 333 333 332 332 332 331 335 331 330 330 329
301 302 306 304 308 308 307 307 312 303 301 299 297 296 294 293 291 290 290 290 290 290 291 292 294 298 300 303 307 319 334 333 333 334 335 335 333 332 332 331 333 331 332 330 330 330 330 329 329
303 303 303 304 305 311 312 311 303 300 298 296 295 294 293 292 290 289 289 289 289 289 289 291 292 295 298 300 304 317 332 333 332 332 334 334 332 331 330 330 331 332 330 330 331 330 329 329 329
301 302 305 306 308 309 311 309 299 297 295 294 293 292 291 291 290 289 288 288 288 288 288 289 290 291 295 298 301 306 320 331 330 331 331 332 331 329 329 329 330 330 329 328 329 329 328 328 327

GFSSGP_925_thetae_114.txt.gz
Theta_e
314 314 316 318 319 317 318 317 316 316 317 318 317 317 317 319 320 326 325 343 345 345 350 343 341 338 336 338 341 343 343 343 343 341 338 340 338 337 337 338 340 340 339 338 340 341 340 338 337
313 314 317 317 318 320 320 318 316 317 316 316 317 317 319 321 323 326 333 340 344 346 348 347 340 337 336 336 339 342 343 343 344 342 340 340 338 336 337 338 339 339 337 339 339 339 338 338 339
314 316 319 319 320 321 321 319 317 315 315 316 318 319 320 322 326 329 332 341 346 346 347 348 340 337 336 335 336 338 341 343 343 343 342 339 337 336 338 338 339 338 338 339 340 339 338 339 339
314 315 316 319 321 320 319 318 316 316 317 317 318 319 321 325 326 329 335 345 346 346 347 348 340 337 336 334 334 335 336 338 340 341 341 339 337 337 338 339 339 338 338 339 340 338 337 338 338
315 317 319 320 321 320 319 318 316 317 318 318 318 320 321 322 325 329 334 346 346 346 347 348 341 338 336 335 334 334 335 336 338 340 341 339 339 339 339 339 339 338 339 339 338 337 337 337 336
316 318 319 321 321 320 319 318 317 318 318 318 319 320 321 320 322 330 334 344 347 347 348 349 342 338 337 336 335 334 334 335 337 339 340 340 341 340 340 339 339 338 339 340 338 337 336 336 336
316 318 320 320 320 319 319 318 318 319 319 319 319 320 322 322 319 330 335 343 347 348 348 349 344 342 338 337 336 335 334 335 336 339 340 341 341 340 340 339 339 339 340 339 336 337 336 335 335
315 316 318 318 319 319 319 317 318 318 319 319 319 321 322 322 317 323 327 342 346 347 348 349 347 345 345 343 337 337 335 334 335 337 339 339 339 339 339 339 339 339 340 339 336 336 335 335 335
314 314 316 317 317 317 316 317 318 319 319 319 319 319 319 318 316 317 319 333 344 345 347 346 346 345 347 346 343 338 337 336 335 335 336 338 342 342 342 342 341 341 341 340 336 335 334 335 335
312 314 315 315 315 315 315 316 317 317 318 318 318 318 316 315 315 317 318 320 333 345 345 345 345 343 343 345 345 344 343 341 341 341 342 342 343 344 343 343 343 341 341 340 336 334 335 335 337
311 313 313 314 314 315 316 316 316 315 315 316 315 314 315 315 315 316 316 317 323 338 343 342 343 344 344 344 345 344 343 342 343 343 343 342 343 344 343 343 342 342 341 341 337 336 337 336 336
311 311 311 312 313 314 313 312 312 312 313 314 314 314 314 314 315 315 315 315 317 329 341 342 342 342 342 343 343 344 344 344 343 343 343 342 343 344 343 343 342 342 341 341 339 338 337 337 337
310 309 310 312 311 310 310 311 311 312 313 313 312 312 312 312 312 312 312 313 314 318 328 340 342 341 341 341 341 341 341 341 343 343 344 343 344 343 343 341 342 342 341 341 340 339 338 338 338
310 311 310 309 309 309 309 309 310 311 311 311 310 310 311 311 311 311 313 313 313 314 315 320 337 341 341 340 340 340 340 340 341 342 342 344 341 341 342 341 341 341 342 341 341 340 339 339 337
307 307 308 308 308 308 309 310 311 311 310 310 310 310 310 310 310 310 311 311 312 312 313 314 320 333 341 340 340 339 339 339 339 340 340 341 341 341 341 341 340 340 341 341 340 339 339 338 337
309 309 308 309 308 308 308 308 309 311 310 310 310 310 309 310 310 309 309 310 310 311 312 313 314 320 335 339 339 339 338 338 337 338 340 342 342 341 340 339 340 341 341 340 340 339 339 338 337
309 307 307 307 308 308 307 307 308 309 309 309 309 309 309 310 309 309 309 309 309 310 311 311 312 315 324 336 338 340 339 339 337 338 338 340 341 341 341 340 338 338 340 339 340 339 338 338 337
308 307 307 307 307 308 308 308 309 308 308 308 308 308 309 308 309 308 309 310 313 314 315 314 312 312 315 326 335 335 338 339 339 338 338 339 340 340 340 339 339 336 337 337 338 338 338 338 337
307 307 307 307 308 307 308 308 307 307 307 307 307 308 308 311 314 314 314 314 314 314 315 317 318 319 313 315 327 330 336 336 338 339 339 339 340 340 339 338 338 335 336 337 337 338 337 337 337
307 307 307 307 307 306 305 305 306 307 306 306 306 311 314 313 312 311 310 310 311 311 313 314 314 315 317 316 315 327 331 334 334 336 339 340 339 339 339 337 337 336 336 336 335 335 335 335 334
307 307 307 306 304 304 305 305 307 306 306 309 313 312 311 310 309 308 307 307 307 307 308 309 310 312 313 316 319 316 328 331 333 336 339 340 338 338 338 337 336 336 335 335 334 334 334 333 332
306 305 303 303 304 305 305 305 307 308 307 311 311 310 309 307 306 305 304 303 303 303 304 305 307 308 310 313 317 319 321 330 333 334 336 336 338 338 338 337 335 335 335 334 334 333 334 333 331
304 303 304 304 304 305 305 306 308 306 306 311 309 308 307 305 304 303 302 300 300 301 301 301 303 304 307 311 314 319 319 327 331 334 334 335 336 337 336 335 336 334 334 334 334 333 333 333 332
303 303 304 305 305 306 306 305 307 309 311 308 306 304 304 303 302 301 299 298 299 299 298 298 299 301 303 306 310 316 323 324 330 331 335 335 336 335 335 335 335 334 334 333 333 333 333 332 333
304 304 305 306 309 307 305 305 305 311 308 305 304 302 302 300 300 298 298 297 296 295 295 295 295 297 299 303 306 312 319 324 331 331 335 336 336 334 335 334 334 333 333 333 333 333 332 331 332
305 304 305 302 304 305 305 305 308 308 306 304 302 301 300 298 297 296 295 294 293 293 294 294 293 294 296 299 304 308 316 325 330 332 333 335 336 334 333 334 334 334 333 333 333 332 332 332 332
303 303 303 303 304 305 305 305 308 306 305 303 301 300 298 296 295 294 293 292 292 290 291 291 291 292 294 298 302 307 316 328 332 333 334 335 336 334 334 334 333 333 332 333 333 332 332 332 333
301 303 306 305 308 308 307 307 315 306 303 300 299 297 295 294 293 292 291 290 290 289 288 289 289 291 293 296 302 305 313 327 333 334 335 335 336 335 334 334 333 332 332 332 332 332 332 332 332
303 303 304 306 307 310 312 315 304 301 298 297 298 296 295 293 292 291 290 288 288 288 287 287 288 290 292 296 301 305 311 331 334 333 333 335 336 334 335 335 333 332 332 331 331 332 331 331 331
302 303 305 308 310 308 311 312 299 297 296 295 295 295 294 292 291 290 288 287 287 287 286 286 287 289 291 294 299 301 304 322 332 332 332 334 334 335 333 333 332 331 331 330 330 331 330 330 330

GFSSGP_925_thetae_117.txt.gz
Theta_e
310 315 317 319 322 321 322 323 322 320 319 320 320 319 320 320 322 327 328 338 340 343 354 344 342 340 338 337 339 341 342 344 342 336 335 337 339 338 339 340 340 342 344 342 340 340 340 339 338
318 316 318 323 322 324 324 324 321 321 319 318 318 319 320 323 324 328 331 335 342 345 352 349 342 340 337 337 339 342 343 344 342 338 336 339 339 338 339 339 341 341 341 340 341 342 340 337 337
317 317 322 323 324 325 324 324 321 320 318 318 319 320 321 325 327 329 331 342 345 347 350 350 343 339 336 338 339 342 343 343 343 340 338 340 339 338 338 339 341 339 339 340 341 343 339 337 339
317 319 321 323 324 325 324 324 320 319 319 319 319 320 322 326 327 330 331 342 347 347 348 350 343 338 336 337 339 342 343 343 343 343 339 340 339 337 338 339 340 339 339 341 341 339 338 338 338
318 321 323 324 324 324 325 323 322 321 321 320 320 321 322 324 323 329 332 342 347 347 348 349 344 338 336 336 337 339 341 343 343 343 341 341 338 337 338 339 339 338 339 341 341 339 338 338 337
319 320 323 324 325 324 324 323 322 321 321 321 321 322 323 323 323 327 333 339 349 348 349 352 346 339 337 336 336 336 336 338 341 342 342 340 338 337 338 339 339 338 339 341 340 338 337 337 336
318 321 323 323 324 324 323 322 321 321 322 322 322 322 323 324 322 320 325 337 347 350 349 351 347 343 337 336 335 335 335 336 337 340 341 340 338 339 339 340 339 339 339 340 339 337 337 336 336
318 320 321 322 323 323 323 322 320 320 321 321 321 322 323 324 321 319 321 327 344 349 350 352 349 347 344 341 336 335 335 335 337 339 340 340 340 341 340 340 340 339 340 340 338 337 337 336 336
317 317 320 321 321 321 321 319 320 320 321 321 321 321 321 320 318 318 320 322 336 347 348 350 349 348 347 345 342 336 336 336 338 340 341 341 345 345 344 342 342 339 340 340 338 337 337 336 336
316 318 319 319 318 318 318 318 318 319 319 320 320 320 319 318 317 318 320 321 322 336 347 346 348 346 349 346 346 343 342 340 341 342 344 344 343 343 343 343 343 339 339 341 340 336 335 335 338
315 316 317 317 316 317 316 316 317 317 317 318 318 317 317 316 317 317 318 319 320 327 344 347 346 345 346 348 346 344 343 343 343 343 343 343 343 343 343 344 343 343 341 342 340 336 337 337 337
314 314 314 314 314 314 315 315 314 314 315 315 315 316 316 316 316 316 317 317 318 321 337 346 346 346 346 346 345 344 342 343 343 343 344 343 343 343 343 343 343 342 342 342 341 339 338 338 338
311 312 312 312 312 312 312 311 311 312 313 314 314 314 314 314 315 315 315 315 317 318 323 337 345 345 345 346 346 345 344 342 342 343 343 343 341 343 344 341 343 342 341 341 342 340 339 338 338
312 311 312 312 311 311 310 310 310 311 313 313 313 313 313 313 313 313 314 315 316 317 317 319 325 343 343 344 344 344 344 342 343 342 343 344 342 343 343 341 340 341 340 341 342 341 339 338 338
310 309 310 310 310 310 310 310 310 312 313 313 313 313 312 312 312 312 312 312 313 314 315 316 318 322 337 341 343 343 342 342 341 341 344 342 345 343 342 343 340 338 339 340 341 342 340 338 339
310 311 312 313 311 310 309 310 311 312 312 312 312 312 311 312 312 311 311 311 311 312 313 314 315 317 322 332 338 341 341 341 340 341 341 342 342 343 343 341 342 339 339 341 342 341 341 339 339
312 313 314 313 311 310 310 310 310 311 311 310 311 311 311 311 312 311 311 311 311 313 314 316 317 316 317 320 331 337 339 341 340 339 340 340 342 342 342 341 341 341 340 342 341 341 340 340 339
314 314 313 312 312 311 310 310 311 311 311 311 311 311 311 311 311 315 316 316 316 317 317 317 318 320 320 317 319 331 336 338 341 340 339 339 342 342 341 340 340 340 342 342 342 341 340 340 339
312 312 311 310 310 310 310 310 310 310 310 310 310 310 310 312 316 314 312 312 313 314 314 314 316 317 319 321 317 320 334 336 339 341 341 339 340 343 342 341 341 340 340 341 340 341 340 339 339
311 309 309 310 310 310 310 309 309 309 310 310 310 310 315 314 313 311 310 310 310 310 311 312 312 313 315 317 319 318 320 329 335 337 339 341 341 342 343 342 341 342 340 339 338 339 340 340 339
309 308 309 309 309 308 308 308 310 311 309 309 313 313 312 312 311 310 308 307 307 307 308 308 309 310 312 313 315 317 320 319 330 336 338 340 342 343 343 343 342 341 340 338 338 337 338 339 339
308 308 308 307 307 308 310 310 311 311 311 311 313 312 312 310 308 308 307 306 305 304 305 306 306 306 308 310 312 316 318 321 324 333 336 336 341 342 343 343 342 341 340 338 336 336 337 336 335
308 307 306 307 307 307 308 308 310 311 310 313 312 310 308 308 306 305 304 302 302 302 302 302 303 303 305 307 309 312 316 319 322 322 335 336 338 340 343 342 343 341 339 337 336 335 336 336 335
306 306 306 306 306 308 309 309 310 314 314 311 309 307 306 305 304 302 300 299 299 299 299 299 300 301 302 304 305 307 310 315 319 324 327 334 336 338 341 341 341 341 339 337 337 335 334 336 335
306 307 309 310 310 310 310 310 309 313 310 307 307 306 304 303 301 300 299 297 296 295 296 295 296 297 298 300 302 303 306 310 316 320 325 332 335 337 338 339 339 339 338 336 336 335 334 334 334
306 307 309 309 309 309 307 308 312 310 308 307 305 303 301 300 298 297 295 294 293 292 293 292 292 294 295 296 297 299 302 305 312 318 323 327 335 337 338 337 336 336 337 336 335 334 334 333 334
304 305 305 306 306 307 306 307 311 309 308 305 303 301 299 298 296 295 293 291 290 291 290 290 290 291 292 293 294 296 299 304 308 317 323 328 332 336 337 336 335 334 335 335 334 334 333 333 334
304 304 305 305 307 308 307 308 314 306 304 302 301 300 298 296 294 293 291 290 289 289 289 289 288 289 290 291 293 296 299 304 308 317 326 330 332 336 335 336 334 334 334 334 333 333 333 333 332
304 304 303 305 309 312 313 318 305 301 300 300 300 299 298 295 293 293 291 288 288 288 287 287 287 288 289 290 293 296 301 304 309 320 328 333 332 332 334 335 334 334 334 334 334 333 333 332 332
304 305 305 308 307 310 310 313 301 299 299 298 297 297 296 294 293 293 290 289 288 287 287 286 286 286 288 290 292 298 298 302 309 320 329 332 332 332 333 333 333 334 333 333 332 332 332 332 331

GFSSGP_925_thetae_120.txt.gz
Theta_e
310 313 316 319 321 322 322 323 324 321 321 321 320 319 319 320 322 330 333 337 343 345 348 342 342 341 340 338 337 337 340 342 342 339 334 335 336 335 336 338 340 341 341 344 345 340 340 340 336
318 320 319 321 323 324 324 325 323 320 319 319 319 319 319 322 327 329 332 337 344 347 353 343 342 341 339 337 336 337 340 343 343 340 334 336 337 336 336 338 338 340 344 341 341 340 341 339 337
318 320 320 323 324 325 324 324 322 320 320 319 319 320 321 327 328 330 331 338 345 347 354 349 342 341 339 337 338 340 342 343 343 338 335 337 338 336 337 338 339 340 340 339 342 343 341 337 337
318 319 320 323 324 325 325 325 322 321 320 320 320 320 322 326 327 329 332 339 347 347 351 351 347 341 338 338 340 341 342 343 342 338 336 338 339 337 338 338 339 339 339 339 341 342 339 338 338
319 320 322 323 324 324 324 325 324 322 322 322 321 321 323 325 324 329 333 339 348 349 351 351 349 341 338 339 341 342 342 343 343 341 338 339 339 338 338 339 340 339 338 340 340 339 339 338 338
319 321 323 324 324 325 325 325 324 323 322 322 322 321 323 324 323 322 325 336 347 350 352 349 347 341 338 338 340 342 342 343 343 343 341 340 340 338 338 339 339 339 338 340 341 339 338 338 337
317 320 322 323 323 324 324 324 323 322 322 322 323 323 324 324 322 321 321 324 344 350 353 352 349 341 338 338 339 339 340 342 343 343 342 341 340 338 338 339 339 339 338 339 340 338 337 337 336
317 319 320 321 322 323 323 322 321 320 321 322 321 322 324 325 321 319 320 322 342 348 351 353 349 344 338 337 337 337 337 337 339 341 342 342 340 338 339 340 340 339 338 339 340 338 337 336 335
318 319 319 320 321 321 320 320 320 320 320 320 321 321 322 321 319 318 319 321 328 347 346 350 350 348 344 341 337 336 336 337 338 340 342 341 341 340 340 340 340 339 338 340 340 338 337 336 335
316 319 320 320 319 319 318 318 317 316 318 319 320 321 320 319 318 318 319 320 321 327 348 346 350 347 347 345 344 337 336 336 338 340 341 342 343 345 345 342 343 341 339 339 340 338 337 336 335
315 316 317 317 318 316 316 316 317 316 317 318 318 317 318 317 317 318 318 318 319 320 341 346 346 346 348 348 346 342 340 337 338 342 344 341 345 346 343 343 341 342 340 341 341 339 337 336 338
314 315 315 316 314 314 314 315 314 314 315 315 315 316 317 317 317 316 317 316 317 318 321 345 345 343 344 350 348 345 344 342 342 342 343 343 344 343 341 343 343 341 341 340 341 340 336 335 337
313 313 313 313 313 312 312 312 312 311 311 312 313 314 315 315 315 315 315 315 316 317 319 329 344 345 344 345 345 345 345 345 344 343 343 345 342 344 344 341 342 341 342 341 341 340 337 337 336
312 312 313 312 312 311 312 311 311 311 311 311 313 314 314 314 314 313 312 313 315 316 317 318 321 338 341 343 342 343 344 345 344 344 345 343 344 344 344 341 344 341 341 341 340 341 340 338 339
311 311 311 311 311 311 312 311 311 312 312 312 313 313 313 314 312 313 312 312 312 312 314 318 317 317 324 339 340 341 343 341 343 342 345 344 343 343 345 341 343 344 339 343 340 341 340 338 338
310 311 312 313 315 312 310 310 312 313 312 312 313 313 313 312 312 312 313 316 317 318 318 318 318 318 317 318 329 338 340 342 342 343 342 343 344 345 344 344 344 342 343 343 339 339 341 339 338
314 314 314 315 314 312 311 311 312 312 311 312 312 311 312 312 312 316 316 316 316 316 316 317 317 318 320 322 320 320 337 338 340 341 343 344 342 342 346 343 342 343 343 342 339 340 341 341 339
314 315 315 315 314 313 312 311 311 312 312 313 312 312 312 312 316 315 313 312 312 313 313 314 315 315 316 318 320 320 319 338 339 340 341 343 343 339 342 345 343 338 342 343 342 341 341 341 339
314 314 313 314 314 312 312 312 311 312 312 312 312 311 312 312 315 312 311 310 310 310 310 311 311 312 313 315 318 320 321 321 339 341 341 340 342 343 339 342 344 340 338 342 343 342 340 340 339
312 312 313 312 311 311 311 311 311 311 311 311 311 313 315 314 312 311 310 309 308 308 307 307 309 309 310 311 313 315 316 318 321 335 340 341 341 342 343 342 342 342 339 340 344 343 341 340 339
311 312 312 310 310 310 310 310 310 311 313 312 313 314 313 312 310 309 307 306 305 305 304 305 306 306 307 307 309 312 314 317 319 321 326 340 340 341 342 343 341 342 341 340 341 342 342 340 340
310 310 310 309 309 309 309 309 309 310 311 312 314 313 310 309 308 306 305 303 302 302 301 301 301 302 303 305 306 309 312 315 317 319 322 334 340 340 342 343 343 342 343 341 340 339 338 340 340
309 309 309 308 308 308 308 309 310 311 311 314 312 309 308 307 305 304 302 300 299 298 298 297 298 298 299 301 303 305 307 310 313 316 319 322 327 338 339 339 341 343 342 342 340 339 337 338 337
308 307 307 307 308 309 308 309 310 314 314 311 308 307 305 304 302 301 299 297 296 295 294 294 294 295 295 296 298 301 302 305 307 310 315 319 324 329 337 336 339 340 343 339 340 338 337 337 336
307 307 309 310 312 313 311 311 315 312 309 307 306 305 302 301 299 298 296 294 293 292 292 292 292 292 292 293 295 297 298 300 303 305 310 315 319 325 332 335 338 339 342 340 340 338 336 336 335
307 307 309 309 312 311 309 308 312 310 307 305 304 303 300 298 297 295 294 292 291 290 290 290 290 290 290 291 292 294 295 297 299 302 306 311 317 322 327 332 333 337 339 340 339 338 337 335 334
306 307 306 308 307 308 307 307 312 308 305 304 303 301 299 297 295 294 292 291 290 289 289 289 289 288 288 289 290 292 293 295 297 300 303 307 312 319 324 330 333 333 338 338 339 338 337 334 333
305 305 307 306 307 308 308 309 312 306 303 302 301 300 298 296 294 293 292 290 290 289 288 288 288 287 287 288 290 291 294 296 298 300 303 306 309 317 324 327 330 331 334 336 336 336 335 334 332
305 306 305 305 305 308 311 313 305 302 301 300 299 298 297 295 294 293 291 290 290 289 289 288 287 287 287 288 290 292 296 298 300 303 307 307 310 315 323 329 327 318 329 332 333 335 334 334 333
304 304 305 309 307 306 308 313 302 300 300 298 297 297 295 294 293 292 290 289 289 289 289 289 287 287 287 288 290 292 293 295 295 298 302 311 314 318 327 329 326 316 330 333 334 333 333 333 333

GFSSGP_925_thetae_123.txt.gz
Theta_e
313 312 316 316 314 313 315 316 317 315 316 315 316 315 316 319 326 336 335 342 344 347 344 342 341 340 340 339 340 339 339 341 339 335 333 334 333 333 334 336 337 336 337 339 338 337 338 338 333
313 319 319 313 316 318 317 318 314 315 317 317 317 317 317 327 327 329 334 344 345 349 347 342 341 340 340 339 338 338 339 341 340 336 334 335 334 333 334 336 337 338 342 343 343 340 340 342 337
315 319 313 315 316 318 319 319 316 316 317 317 318 318 320 328 329 331 336 344 347 350 352 343 341 340 339 338 337 338 340 341 341 339 334 336 336 334 335 336 337 339 341 338 338 339 340 337 336
316 315 312 316 318 318 320 320 319 317 317 318 318 319 324 326 328 333 337 338 348 351 353 350 343 340 339 337 338 340 341 342 342 340 335 336 337 335 335 337 338 339 338 337 341 342 338 336 336
318 312 315 317 318 318 319 319 320 321 321 321 319 320 324 323 325 330 334 339 350 352 352 350 348 341 339 337 338 340 342 342 342 339 336 338 338 336 336 337 338 338 337 338 340 342 338 336 337
313 312 316 318 318 319 320 320 321 321 320 321 320 320 323 322 321 321 326 340 343 352 350 349 348 344 340 337 338 340 342 343 342 340 337 338 339 337 336 337 339 338 337 338 340 339 338 337 337
313 312 315 316 317 318 319 319 319 318 318 320 320 321 322 320 320 319 320 325 336 348 353 348 347 344 340 337 338 340 342 342 342 342 340 339 340 338 336 338 339 339 337 338 340 339 338 337 336
311 312 314 314 316 317 317 318 315 316 320 321 319 320 320 321 318 318 318 323 338 344 352 352 350 348 340 337 337 339 341 342 342 342 342 340 340 339 337 338 339 339 338 338 338 338 337 336 335
313 313 314 315 316 316 316 317 315 315 315 318 320 320 319 318 317 317 317 318 336 346 350 351 351 349 342 338 336 338 338 338 339 341 342 341 341 340 338 338 339 339 338 338 338 338 336 336 335
311 312 314 315 314 313 312 311 313 314 314 315 317 316 315 316 316 316 316 316 317 331 345 350 350 348 345 339 338 336 336 337 337 338 341 342 341 339 338 338 339 339 339 339 339 338 337 336 335
309 311 312 313 313 313 311 311 311 311 313 315 314 313 314 315 315 316 315 315 316 319 336 345 347 348 347 345 343 338 336 336 337 338 339 341 341 340 339 340 340 341 340 339 339 339 337 336 335
309 310 311 311 312 310 309 310 310 311 311 310 308 310 314 314 314 315 315 315 315 315 322 337 345 344 345 346 347 344 338 336 336 338 338 341 342 344 343 342 341 340 340 338 338 339 338 335 334
309 310 309 309 308 309 310 309 309 309 308 308 309 310 311 313 313 313 313 312 313 315 318 327 334 339 343 343 344 345 343 339 337 337 341 340 341 345 346 343 343 341 340 339 338 338 338 335 333
309 309 308 309 308 308 308 308 309 309 308 308 308 307 311 312 312 312 312 312 315 317 317 319 320 326 340 336 339 341 343 344 342 340 339 342 341 342 344 342 342 342 341 339 338 338 338 336 332
309 308 308 308 309 308 308 307 307 307 308 308 307 311 311 310 311 312 315 315 315 315 315 315 316 316 317 319 323 336 338 340 342 343 342 341 342 341 343 344 340 342 341 340 340 338 339 338 335
307 308 308 309 310 311 307 309 309 307 310 311 309 310 310 310 313 313 312 312 312 312 312 312 313 313 314 315 317 320 320 330 338 338 341 344 342 343 342 345 342 344 341 341 341 340 341 340 337
308 310 311 312 312 310 308 308 308 308 309 308 308 308 307 308 312 311 310 309 309 308 308 308 309 310 311 312 314 316 318 320 323 337 339 339 340 341 344 343 344 341 343 342 342 341 341 340 339
309 310 311 311 312 310 309 307 307 308 308 307 307 306 305 310 310 309 308 307 306 306 305 305 306 307 308 309 310 313 314 316 319 324 336 337 338 339 339 343 344 342 343 343 341 341 341 340 339
309 311 310 309 311 310 309 308 307 307 307 306 307 307 310 309 308 306 305 303 303 303 302 303 303 304 305 306 307 307 309 311 313 315 318 336 336 336 341 340 341 342 341 343 342 340 340 340 340
312 310 309 310 311 310 307 306 306 307 307 307 308 309 308 307 305 304 303 301 300 300 299 299 299 300 300 302 303 305 306 308 311 313 316 319 331 338 338 337 337 340 340 340 342 341 340 340 340
310 309 309 309 308 306 305 306 306 307 307 312 309 307 306 304 303 301 300 298 298 297 296 296 296 296 297 298 299 301 304 305 308 310 313 316 319 327 337 336 335 338 341 339 339 342 340 339 339
308 308 309 309 307 306 306 306 306 307 309 310 307 305 303 301 300 299 297 296 295 294 293 293 293 293 294 295 295 296 298 303 305 306 308 310 313 318 325 335 336 333 337 341 338 340 341 339 338
308 308 307 307 304 304 305 304 306 306 311 308 305 303 301 299 298 297 295 293 293 292 291 291 291 291 291 291 292 293 294 298 301 302 304 306 308 313 318 325 335 337 337 339 339 338 341 339 338
307 306 306 305 304 305 306 305 307 310 309 306 304 301 299 297 295 294 293 292 291 290 289 289 289 290 289 290 290 291 292 294 297 299 300 302 305 308 313 318 324 334 336 337 338 339 338 338 337
306 305 306 308 308 308 308 308 315 308 305 304 303 301 298 296 294 293 292 291 290 289 289 289 289 289 289 288 288 289 291 292 294 296 298 300 302 305 310 316 319 324 334 336 337 338 337 335 333
306 306 308 310 308 306 306 308 311 305 303 303 301 299 297 295 293 292 291 290 289 289 289 289 289 288 288 288 288 288 290 291 292 294 296 298 300 303 305 309 316 323 326 334 334 335 335 331 326
306 304 305 306 304 306 305 308 307 304 302 302 300 298 295 293 292 291 290 289 289 289 289 289 288 288 287 287 288 289 290 292 293 294 295 297 299 301 303 307 312 318 324 329 332 334 334 332 326
304 304 304 305 307 307 305 308 313 305 302 301 300 298 295 293 291 290 289 288 288 289 289 289 288 287 287 288 288 290 292 294 295 297 298 299 300 302 304 305 308 314 322 327 330 331 331 332 333
305 304 305 304 304 305 304 301 305 301 301 300 298 297 294 292 290 288 288 288 288 288 288 289 288 287 287 287 288 290 291 293 294 296 297 299 302 304 307 307 309 313 321 328 331 330 329 330 333
303 304 305 303 305 305 306 304 301 299 300 298 296 295 293 291 288 288 288 287 287 288 288 288 287 287 287 287 288 289 289 290 292 292 293 295 297 304 308 310 313 318 321 322 326 326 323 317 326

GFSSGP_925_thetae_126.txt.gz
Theta_e
309 313 318 315 314 310 315 316 315 315 316 314 314 316 322 322 330 335 338 344 345 345 343 342 341 341 340 340 340 340 340 339 336 333 334 333 331 333 333 335 337 339 339 338 336 336 335 336 336
312 318 317 310 313 315 316 315 315 315 315 316 316 316 322 329 329 330 334 346 347 347 345 342 341 340 340 340 339 339 340 340 337 334 334 334 332 333 334 335 335 336 340 339 336 337 337 336 336
316 318 311 312 313 316 317 316 316 315 316 317 317 317 323 329 329 333 342 346 348 348 346 343 341 340 340 339 338 338 339 340 339 335 334 335 333 332 334 335 336 338 342 342 340 339 339 336 336
317 312 309 314 317 316 319 318 318 315 317 317 316 320 323 326 331 337 336 344 348 350 349 344 341 341 340 338 337 337 339 341 340 337 334 336 334 333 334 335 335 338 337 337 341 341 338 335 336
316 308 313 315 316 316 317 317 318 320 320 320 317 322 322 320 334 338 335 331 347 351 351 347 344 341 340 338 337 337 339 341 341 340 335 336 336 334 334 335 337 337 336 337 342 341 337 336 337
312 309 314 316 316 316 316 315 318 319 319 320 319 321 321 320 320 329 327 328 332 349 351 349 347 341 340 338 337 338 340 341 342 340 335 337 338 335 334 335 336 336 336 337 339 340 337 336 337
311 309 313 315 315 315 317 316 315 315 318 319 319 321 321 319 318 320 323 332 331 344 348 349 347 345 341 338 337 338 340 341 342 340 336 337 339 337 335 336 337 337 336 336 338 338 337 336 336
308 308 313 312 314 314 314 314 312 313 317 317 318 318 320 319 317 317 318 331 341 341 349 348 349 348 345 340 337 337 340 341 342 341 339 338 339 339 336 336 337 337 337 336 337 338 337 336 335
310 311 312 314 315 315 312 312 312 313 313 315 316 315 317 316 316 317 316 319 332 346 348 350 349 349 347 342 338 338 339 342 343 342 342 340 340 340 338 336 337 338 337 336 336 337 336 336 334
309 310 313 313 314 312 311 309 310 312 311 313 311 312 312 314 315 315 315 315 315 318 345 349 350 349 347 343 338 337 338 339 341 343 343 342 340 340 339 337 337 338 338 336 336 337 336 335 335
308 308 310 312 311 311 310 308 310 310 311 312 310 309 309 314 313 314 314 314 314 315 334 337 346 349 347 344 341 337 337 338 338 340 341 343 341 341 340 338 339 339 339 338 338 338 337 336 335
308 308 309 310 310 308 308 309 308 310 310 310 308 308 309 310 311 313 313 312 317 320 334 344 340 344 346 346 344 342 339 337 337 337 339 341 342 341 341 339 339 340 340 339 338 337 336 335 335
307 308 308 307 307 306 308 308 309 308 307 307 307 308 307 310 312 311 314 316 316 316 316 318 324 331 333 337 335 341 343 341 337 337 337 339 341 341 341 340 340 340 340 339 338 337 337 336 335
308 307 306 307 307 307 308 307 307 308 308 307 306 307 307 309 311 313 313 313 313 312 312 313 314 315 316 318 319 319 323 330 340 338 337 337 338 341 341 341 341 341 341 340 338 337 337 337 336
307 307 307 308 308 307 308 308 308 307 306 307 305 306 309 311 311 310 310 309 309 308 308 309 310 311 312 313 314 316 316 318 322 332 340 340 337 337 340 344 344 342 342 340 340 338 337 337 337
307 307 308 309 309 309 307 309 307 306 307 309 307 308 309 310 308 307 306 306 305 305 305 305 306 307 307 308 309 310 314 316 317 319 322 333 338 336 337 340 344 343 342 341 341 339 338 338 338
306 307 309 311 311 310 308 307 307 306 308 308 307 306 309 307 306 304 303 302 301 301 301 301 302 303 304 305 306 307 307 309 312 314 315 319 331 332 333 338 341 342 341 341 341 340 339 338 338
306 308 308 309 309 309 309 308 306 306 306 306 304 306 307 305 303 301 299 299 298 298 298 297 298 298 300 302 303 304 305 306 307 308 311 315 317 319 329 336 336 339 341 340 341 340 340 338 338
306 306 307 307 308 309 308 306 307 307 305 307 308 306 305 303 301 299 297 296 295 294 294 294 294 294 295 297 298 299 300 302 304 305 307 310 313 317 321 333 330 328 337 338 340 340 340 339 339
308 308 309 307 309 308 307 305 305 306 308 306 304 303 301 300 298 297 295 294 293 292 292 292 292 292 293 294 294 295 296 298 299 302 305 307 308 311 315 319 333 323 336 336 338 339 339 339 338
309 308 308 308 307 306 305 305 306 307 307 305 302 300 299 298 296 295 294 292 292 291 290 290 290 290 291 291 291 292 294 295 297 299 301 303 304 306 309 312 317 333 326 324 336 337 338 336 337
307 307 307 306 304 304 304 304 304 307 306 304 301 298 297 295 294 293 292 291 290 290 289 289 288 289 290 289 290 290 291 292 293 294 297 299 301 303 305 307 312 318 333 334 334 334 337 336 336
307 306 306 305 304 304 303 303 303 307 307 304 300 298 296 294 293 292 292 290 289 289 289 288 288 288 289 289 288 289 289 290 291 292 294 296 298 299 301 304 308 312 319 331 331 334 336 336 336
306 305 304 303 303 305 305 303 303 308 306 303 300 298 296 294 292 292 290 289 289 289 289 288 289 288 288 288 288 288 288 288 289 291 292 294 296 298 300 302 306 312 315 318 330 333 335 335 334
305 303 305 306 307 307 305 305 309 305 303 301 300 297 295 293 292 290 289 289 288 288 288 288 289 288 288 288 288 288 288 288 289 290 292 293 294 296 298 301 303 307 311 316 322 331 333 333 333
304 304 306 310 310 306 305 305 308 303 302 301 299 296 294 292 290 289 289 288 288 288 288 289 288 288 287 287 287 288 289 290 291 292 293 294 295 296 297 299 300 302 305 308 313 323 331 332 332
305 304 304 305 304 305 304 308 305 303 302 301 299 296 293 291 289 288 288 288 287 287 288 289 287 287 287 287 288 289 290 291 293 293 294 295 296 297 298 300 302 303 305 308 313 321 328 331 331
304 303 304 305 308 307 304 305 307 304 303 300 298 295 292 290 288 288 287 287 287 287 287 288 287 286 287 287 287 288 289 290 292 293 295 296 299 299 300 301 302 304 305 306 310 316 325 329 330
303 302 303 304 305 305 304 299 297 298 299 298 296 294 292 289 287 287 287 286 286 286 285 287 286 286 286 286 287 288 288 289 290 291 292 292 294 296 300 304 304 305 307 308 311 316 323 328 329
303 303 304 304 305 303 304 303 301 299 298 296 295 294 292 289 287 286 286 285 285 285 284 285 285 285 285 285 286 287 288 288 288 288 289 290 291 291 293 297 300 301 306 308 312 318 322 327 329